Logo
 


Wetterdaten - Montag, 22.04.2019 - Rheinberg-Annaberg     25 m ber NN private Wetterstation Rheinberg/Angaben ohne Gewhr!
Wetterdaten: aktuell Montag, 22.04.2019 13:59
Datum Zeit Temp. A. Feuchte A. Luftdruck Regen Wind Richtung Richtung Sonnenschein ET UV Solar Taupunkt Windchill Windben Empfang
22.04.2019 13:59 25,7 C 25 % 1007,9 hPa 0,0 l/m 12,3 km/h N-NO 15 1 min 0,000 mm 4,0 UV-I 796 W/m 4,2 C 24,5 C 19,1 km/h 100,00 %
22.04.2019 13:58 25,7 C 25 % 1007,9 hPa 0,0 l/m 16,7 km/h O 101 1 min 0,000 mm 3,9 UV-I 794 W/m 4,2 C 23,9 C 21,0 km/h 100,00 %
22.04.2019 13:57 25,7 C 26 % 1007,9 hPa 0,0 l/m 11,9 km/h O 96 1 min 0,000 mm 3,9 UV-I 795 W/m 4,7 C 24,6 C 19,1 km/h 95,65 %
22.04.2019 13:56 25,7 C 25 % 1007,9 hPa 0,0 l/m 17,7 km/h O-SO 107 1 min 0,000 mm 4,0 UV-I 797 W/m 4,2 C 23,8 C 24,9 km/h 100,00 %
22.04.2019 13:55 25,8 C 25 % 1008,1 hPa 0,0 l/m 14,7 km/h O-SO 107 1 min 0,000 mm 4,0 UV-I 796 W/m 4,3 C 24,3 C 23,0 km/h 100,00 %
22.04.2019 13:54 25,8 C 26 % 1008,1 hPa 0,0 l/m 16,6 km/h O-SO 119 1 min 0,000 mm 4,0 UV-I 800 W/m 4,8 C 24,1 C 21,0 km/h 100,00 %
22.04.2019 13:53 25,8 C 25 % 1008,1 hPa 0,0 l/m 21,0 km/h O-SO 117 1 min 0,000 mm 4,0 UV-I 801 W/m 4,3 C 23,6 C 30,6 km/h 100,00 %
22.04.2019 13:52 25,8 C 25 % 1008,0 hPa 0,0 l/m 16,3 km/h O 88 1 min 0,000 mm 4,0 UV-I 804 W/m 4,3 C 24,1 C 23,0 km/h 100,00 %
22.04.2019 13:51 25,9 C 24 % 1008,0 hPa 0,0 l/m 12,3 km/h O-SO 107 1 min 0,000 mm 4,0 UV-I 799 W/m 3,8 C 24,8 C 19,1 km/h 100,00 %
22.04.2019 13:50 25,9 C 25 % 1008,0 hPa 0,0 l/m 11,0 km/h O-SO 109 1 min 0,000 mm 4,0 UV-I 798 W/m 4,4 C 25,0 C 17,2 km/h 96,15 %
22.04.2019 13:49 25,8 C 24 % 1008,1 hPa 0,0 l/m 4,3 km/h O-SO 115 1 min 0,000 mm 4,0 UV-I 798 W/m 3,7 C 25,8 C 5,7 km/h 100,00 %
22.04.2019 13:48 25,8 C 24 % 1008,1 hPa 0,0 l/m 12,5 km/h O 90 1 min 0,000 mm 4,0 UV-I 800 W/m 3,7 C 24,6 C 21,0 km/h 100,00 %
22.04.2019 13:47 25,9 C 24 % 1008,1 hPa 0,0 l/m 18,8 km/h O-NO 74 1 min 0,000 mm 4,0 UV-I 802 W/m 3,8 C 24,0 C 26,8 km/h 100,00 %
22.04.2019 13:46 26,1 C 24 % 1008,1 hPa 0,0 l/m 14,0 km/h O-SO 111 1 min 0,000 mm 4,0 UV-I 802 W/m 3,9 C 24,8 C 21,0 km/h 100,00 %
22.04.2019 13:45 26,2 C 24 % 1008,2 hPa 0,0 l/m 12,2 km/h O 80 1 min 0,000 mm 4,1 UV-I 803 W/m 4,0 C 25,1 C 23,0 km/h 100,00 %
22.04.2019 13:44 26,3 C 24 % 1008,2 hPa 0,0 l/m 11,6 km/h O 98 1 min 0,000 mm 4,1 UV-I 804 W/m 4,1 C 25,3 C 17,2 km/h 100,00 %
22.04.2019 13:43 26,2 C 25 % 1008,2 hPa 0,0 l/m 11,0 km/h O 95 1 min 0,000 mm 4,1 UV-I 805 W/m 4,6 C 25,3 C 17,2 km/h 100,00 %
22.04.2019 13:42 26,1 C 25 % 1008,2 hPa 0,0 l/m 11,4 km/h O 101 1 min 0,000 mm 4,1 UV-I 799 W/m 4,5 C 25,1 C 21,0 km/h 100,00 %
22.04.2019 13:41 26,1 C 25 % 1008,2 hPa 0,0 l/m 7,4 km/h O-SO 123 1 min 0,000 mm 4,1 UV-I 802 W/m 4,5 C 25,9 C 15,3 km/h 95,83 %
22.04.2019 13:40 25,9 C 25 % 1008,1 hPa 0,0 l/m 14,2 km/h O 96 1 min 0,000 mm 4,0 UV-I 800 W/m 4,4 C 24,5 C 19,1 km/h 100,00 %
22.04.2019 13:39 25,9 C 25 % 1008,2 hPa 0,0 l/m 12,5 km/h O 95 1 min 0,000 mm 4,0 UV-I 797 W/m 4,4 C 24,7 C 23,0 km/h 100,00 %
22.04.2019 13:38 25,9 C 25 % 1008,2 hPa 0,0 l/m 12,7 km/h O-SO 115 1 min 0,000 mm 4,0 UV-I 797 W/m 4,4 C 24,7 C 26,8 km/h 100,00 %
22.04.2019 13:37 26,0 C 26 % 1008,2 hPa 0,0 l/m 14,0 km/h O-NO 72 1 min 0,000 mm 4,0 UV-I 797 W/m 5,0 C 24,7 C 19,1 km/h 100,00 %
22.04.2019 13:36 25,9 C 26 % 1008,3 hPa 0,0 l/m 6,0 km/h SO 128 1 min 0,000 mm 4,0 UV-I 792 W/m 4,9 C 25,9 C 9,6 km/h 100,00 %
22.04.2019 13:35 25,9 C 25 % 1008,3 hPa 0,0 l/m 11,7 km/h O-NO 76 1 min 0,000 mm 4,0 UV-I 789 W/m 4,4 C 24,9 C 17,2 km/h 100,00 %
22.04.2019 13:34 25,9 C 25 % 1008,3 hPa 0,0 l/m 18,6 km/h O-SO 105 1 min 0,000 mm 4,0 UV-I 794 W/m 4,4 C 24,0 C 24,9 km/h 100,00 %
22.04.2019 13:33 25,9 C 25 % 1008,3 hPa 0,0 l/m 6,6 km/h O-NO 75 1 min 0,000 mm 4,0 UV-I 795 W/m 4,4 C 25,9 C 9,6 km/h 100,00 %
22.04.2019 13:32 25,8 C 25 % 1008,2 hPa 0,0 l/m 5,5 km/h O 81 1 min 0,000 mm 4,0 UV-I 794 W/m 4,3 C 25,8 C 11,5 km/h 100,00 %
22.04.2019 13:31 25,8 C 26 % 1008,3 hPa 0,0 l/m 3,0 km/h O-NO 58 1 min 0,000 mm 4,0 UV-I 797 W/m 4,8 C 25,8 C 7,7 km/h 95,83 %
22.04.2019 13:30 25,7 C 25 % 1008,3 hPa 0,0 l/m 6,4 km/h O 79 1 min 0,000 mm 4,0 UV-I 795 W/m 4,2 C 25,7 C 17,2 km/h 100,00 %
22.04.2019 13:29 25,6 C 25 % 1008,3 hPa 0,0 l/m 8,4 km/h NO 46 1 min 0,000 mm 4,0 UV-I 795 W/m 4,1 C 25,1 C 21,0 km/h 100,00 %
22.04.2019 13:28 25,6 C 25 % 1008,3 hPa 0,0 l/m 9,3 km/h NO 46 1 min 0,000 mm 4,0 UV-I 794 W/m 4,1 C 25,0 C 19,1 km/h 100,00 %
22.04.2019 13:27 25,6 C 25 % 1008,4 hPa 0,0 l/m 9,4 km/h O-NO 71 1 min 0,000 mm 4,0 UV-I 796 W/m 4,1 C 24,9 C 17,2 km/h 100,00 %
22.04.2019 13:26 25,7 C 25 % 1008,4 hPa 0,0 l/m 9,4 km/h O-SO 107 1 min 0,000 mm 4,0 UV-I 795 W/m 4,2 C 25,0 C 17,2 km/h 100,00 %
22.04.2019 13:25 25,7 C 25 % 1008,4 hPa 0,0 l/m 15,2 km/h O-SO 107 1 min 0,000 mm 4,0 UV-I 791 W/m 4,2 C 24,1 C 19,1 km/h 100,00 %
22.04.2019 13:24 25,7 C 25 % 1008,4 hPa 0,0 l/m 14,1 km/h NO 34 1 min 0,000 mm 4,0 UV-I 793 W/m 4,2 C 24,3 C 24,9 km/h 100,00 %
22.04.2019 13:23 25,8 C 25 % 1008,4 hPa 0,0 l/m 16,9 km/h O-SO 118 1 min 0,000 mm 4,0 UV-I 791 W/m 4,3 C 24,0 C 21,0 km/h 93,33 %
22.04.2019 13:22 25,8 C 26 % 1008,4 hPa 0,0 l/m 13,1 km/h O-SO 109 1 min 0,000 mm 4,0 UV-I 794 W/m 4,8 C 24,5 C 21,0 km/h 100,00 %
22.04.2019 13:21 25,8 C 25 % 1008,4 hPa 0,0 l/m 17,6 km/h O-SO 105 1 min 0,000 mm 4,0 UV-I 795 W/m 4,3 C 24,0 C 21,0 km/h 98,70 %
22.04.2019 13:20 25,9 C 25 % 1008,4 hPa 0,0 l/m 13,9 km/h O-SO 123 1 min 0,000 mm 4,0 UV-I 793 W/m 4,4 C 24,5 C 26,8 km/h 100,00 %
22.04.2019 13:19 25,9 C 25 % 1008,4 hPa 0,0 l/m 14,5 km/h O-NO 78 1 min 0,000 mm 4,0 UV-I 789 W/m 4,4 C 24,5 C 23,0 km/h 100,00 %
22.04.2019 13:18 25,9 C 26 % 1008,5 hPa 0,0 l/m 15,6 km/h O-NO 65 1 min 0,000 mm 4,0 UV-I 788 W/m 4,9 C 24,3 C 23,0 km/h 100,00 %
22.04.2019 13:17 25,9 C 26 % 1008,4 hPa 0,0 l/m 12,8 km/h O-SO 113 1 min 0,000 mm 4,0 UV-I 790 W/m 4,9 C 24,7 C 26,8 km/h 95,83 %
22.04.2019 13:16 25,8 C 26 % 1008,4 hPa 0,0 l/m 9,4 km/h O 99 1 min 0,000 mm 4,0 UV-I 788 W/m 4,8 C 25,2 C 19,1 km/h 100,00 %
22.04.2019 13:15 25,8 C 25 % 1008,5 hPa 0,0 l/m 7,9 km/h O 97 1 min 0,000 mm 4,0 UV-I 787 W/m 4,3 C 25,5 C 15,3 km/h 100,00 %
22.04.2019 13:14 25,8 C 26 % 1008,5 hPa 0,0 l/m 8,7 km/h O-NO 68 1 min 0,000 mm 4,0 UV-I 786 W/m 4,8 C 25,3 C 15,3 km/h 100,00 %
22.04.2019 13:13 25,8 C 26 % 1008,5 hPa 0,0 l/m 14,5 km/h O-SO 107 1 min 0,000 mm 4,0 UV-I 788 W/m 4,8 C 24,3 C 19,1 km/h 100,00 %
22.04.2019 13:12 25,8 C 26 % 1008,5 hPa 0,0 l/m 10,1 km/h O-SO 121 1 min 0,000 mm 4,0 UV-I 788 W/m 4,8 C 25,0 C 19,1 km/h 100,00 %
22.04.2019 13:11 25,8 C 26 % 1008,5 hPa 0,0 l/m 9,1 km/h SO 124 1 min 0,000 mm 4,0 UV-I 787 W/m 4,8 C 25,2 C 13,4 km/h 100,00 %
22.04.2019 13:10 25,7 C 25 % 1008,5 hPa 0,0 l/m 16,7 km/h O 89 1 min 0,000 mm 4,0 UV-I 788 W/m 4,2 C 23,9 C 21,0 km/h 100,00 %
22.04.2019 13:09 25,7 C 26 % 1008,6 hPa 0,0 l/m 9,9 km/h O-SO 111 1 min 0,000 mm 4,0 UV-I 789 W/m 4,7 C 25,0 C 21,0 km/h 100,00 %
22.04.2019 13:08 25,6 C 26 % 1008,5 hPa 0,0 l/m 10,3 km/h O 88 1 min 0,000 mm 4,0 UV-I 789 W/m 4,7 C 24,8 C 17,2 km/h 100,00 %
22.04.2019 13:07 25,4 C 25 % 1008,5 hPa 0,0 l/m 12,7 km/h SO 126 1 min 0,000 mm 4,0 UV-I 789 W/m 3,9 C 24,1 C 15,3 km/h 100,00 %
22.04.2019 13:06 25,4 C 25 % 1008,6 hPa 0,0 l/m 12,7 km/h SO 124 1 min 0,000 mm 4,0 UV-I 784 W/m 3,9 C 24,1 C 17,2 km/h 100,00 %
22.04.2019 13:05 25,3 C 25 % 1008,6 hPa 0,0 l/m 12,3 km/h O 81 1 min 0,000 mm 4,0 UV-I 782 W/m 3,9 C 24,1 C 21,0 km/h 100,00 %
22.04.2019 13:04 25,4 C 24 % 1008,6 hPa 0,0 l/m 15,3 km/h O-NO 73 1 min 0,000 mm 4,0 UV-I 783 W/m 3,4 C 23,8 C 24,9 km/h 100,00 %
22.04.2019 13:03 25,4 C 26 % 1008,7 hPa 0,0 l/m 11,3 km/h SO 129 1 min 0,000 mm 4,0 UV-I 784 W/m 4,5 C 24,4 C 19,1 km/h 100,00 %
22.04.2019 13:02 25,4 C 26 % 1008,7 hPa 0,0 l/m 10,0 km/h O-SO 110 1 min 0,000 mm 4,0 UV-I 782 W/m 4,5 C 24,6 C 21,0 km/h 95,83 %
22.04.2019 13:01 25,4 C 25 % 1008,7 hPa 0,0 l/m 12,0 km/h SO 141 1 min 0,559 mm 4,0 UV-I 787 W/m 3,9 C 24,2 C 17,2 km/h 100,00 %
22.04.2019 13:00 25,4 C 25 % 1008,7 hPa 0,0 l/m 14,0 km/h O 96 1 min 0,000 mm 4,0 UV-I 784 W/m 3,9 C 23,9 C 19,1 km/h 100,00 %
22.04.2019 12:59 25,5 C 25 % 1008,8 hPa 0,0 l/m 19,1 km/h O-SO 123 1 min 0,000 mm 4,0 UV-I 784 W/m 4,0 C 23,4 C 34,4 km/h 100,00 %
22.04.2019 12:58 25,6 C 25 % 1008,8 hPa 0,0 l/m 16,7 km/h O 87 1 min 0,000 mm 4,0 UV-I 783 W/m 4,1 C 23,8 C 24,9 km/h 100,00 %
22.04.2019 12:57 25,6 C 25 % 1008,8 hPa 0,0 l/m 15,9 km/h O 92 1 min 0,000 mm 4,0 UV-I 779 W/m 4,1 C 23,9 C 21,0 km/h 100,00 %
22.04.2019 12:56 25,5 C 25 % 1008,8 hPa 0,0 l/m 13,8 km/h O-SO 109 1 min 0,000 mm 4,0 UV-I 777 W/m 4,0 C 24,1 C 19,1 km/h 96,15 %
22.04.2019 12:55 25,4 C 25 % 1008,8 hPa 0,0 l/m 10,1 km/h O 99 1 min 0,000 mm 3,9 UV-I 775 W/m 3,9 C 24,6 C 15,3 km/h 100,00 %
22.04.2019 12:54 25,4 C 25 % 1008,8 hPa 0,0 l/m 7,5 km/h O 101 1 min 0,000 mm 3,9 UV-I 777 W/m 3,9 C 25,1 C 13,4 km/h 92,86 %
22.04.2019 12:53 25,4 C 25 % 1008,8 hPa 0,0 l/m 10,4 km/h O-SO 120 1 min 0,000 mm 3,9 UV-I 774 W/m 3,9 C 24,5 C 17,2 km/h 100,00 %
22.04.2019 12:52 25,3 C 25 % 1008,8 hPa 0,0 l/m 10,2 km/h S-SO 158 1 min 0,000 mm 3,9 UV-I 772 W/m 3,9 C 24,5 C 17,2 km/h 100,00 %
22.04.2019 12:51 25,3 C 25 % 1008,9 hPa 0,0 l/m 18,6 km/h O-SO 115 1 min 0,000 mm 3,9 UV-I 771 W/m 3,9 C 23,2 C 23,0 km/h 100,00 %
22.04.2019 12:50 25,3 C 25 % 1008,8 hPa 0,0 l/m 17,1 km/h O-SO 105 1 min 0,000 mm 3,9 UV-I 770 W/m 3,9 C 23,4 C 21,0 km/h 100,00 %
22.04.2019 12:49 25,3 C 25 % 1008,9 hPa 0,0 l/m 20,3 km/h O-SO 107 1 min 0,000 mm 3,9 UV-I 768 W/m 3,9 C 23,0 C 26,8 km/h 100,00 %
22.04.2019 12:48 25,3 C 25 % 1008,9 hPa 0,0 l/m 14,8 km/h O-NO 70 1 min 0,000 mm 3,9 UV-I 765 W/m 3,9 C 23,7 C 19,1 km/h 100,00 %
22.04.2019 12:47 25,3 C 26 % 1009,0 hPa 0,0 l/m 13,6 km/h O-SO 123 1 min 0,000 mm 3,9 UV-I 766 W/m 4,4 C 23,9 C 24,9 km/h 100,00 %
22.04.2019 12:46 25,2 C 25 % 1009,0 hPa 0,0 l/m 15,5 km/h SO 139 1 min 0,000 mm 3,9 UV-I 767 W/m 3,8 C 23,5 C 23,0 km/h 100,00 %
22.04.2019 12:45 25,3 C 25 % 1009,0 hPa 0,0 l/m 13,2 km/h O-SO 114 1 min 0,000 mm 3,9 UV-I 770 W/m 3,9 C 23,9 C 21,0 km/h 100,00 %
22.04.2019 12:44 25,3 C 25 % 1009,0 hPa 0,0 l/m 20,6 km/h O-SO 113 1 min 0,000 mm 3,9 UV-I 767 W/m 3,9 C 23,0 C 36,4 km/h 100,00 %
22.04.2019 12:43 25,3 C 25 % 1009,1 hPa 0,0 l/m 16,6 km/h O-SO 105 1 min 0,000 mm 3,9 UV-I 762 W/m 3,9 C 23,5 C 24,9 km/h 100,00 %
22.04.2019 12:42 25,3 C 27 % 1009,0 hPa 0,0 l/m 10,6 km/h O 85 1 min 0,000 mm 3,9 UV-I 764 W/m 4,9 C 24,4 C 17,2 km/h 100,00 %
22.04.2019 12:41 25,2 C 27 % 1009,1 hPa 0,0 l/m 8,0 km/h O-SO 102 1 min 0,000 mm 3,8 UV-I 758 W/m 4,9 C 24,8 C 15,3 km/h 100,00 %
22.04.2019 12:40 25,2 C 26 % 1009,1 hPa 0,0 l/m 17,8 km/h O-SO 117 1 min 0,000 mm 3,8 UV-I 756 W/m 4,3 C 23,2 C 26,8 km/h 100,00 %
22.04.2019 12:39 25,3 C 26 % 1009,1 hPa 0,0 l/m 18,0 km/h O-SO 114 1 min 0,000 mm 3,8 UV-I 757 W/m 4,4 C 23,3 C 26,8 km/h 100,00 %
22.04.2019 12:38 25,2 C 28 % 1009,1 hPa 0,0 l/m 14,4 km/h O 86 1 min 0,000 mm 3,8 UV-I 758 W/m 5,4 C 23,6 C 26,8 km/h 100,00 %
22.04.2019 12:37 25,1 C 28 % 1009,1 hPa 0,0 l/m 14,4 km/h O-SO 115 1 min 0,000 mm 3,8 UV-I 756 W/m 5,3 C 23,5 C 23,0 km/h 100,00 %
22.04.2019 12:36 25,1 C 28 % 1009,1 hPa 0,0 l/m 10,5 km/h O-SO 109 1 min 0,000 mm 3,8 UV-I 758 W/m 5,3 C 24,2 C 19,1 km/h 100,00 %
22.04.2019 12:35 25,0 C 29 % 1009,1 hPa 0,0 l/m 8,8 km/h SO 137 1 min 0,000 mm 3,8 UV-I 757 W/m 5,7 C 24,4 C 19,1 km/h 100,00 %
22.04.2019 12:34 25,0 C 30 % 1009,1 hPa 0,0 l/m 11,1 km/h O-SO 105 1 min 0,000 mm 3,8 UV-I 755 W/m 6,2 C 24,0 C 21,0 km/h 100,00 %
22.04.2019 12:33 24,9 C 31 % 1009,2 hPa 0,0 l/m 9,6 km/h O 92 1 min 0,000 mm 3,7 UV-I 753 W/m 6,6 C 24,1 C 19,1 km/h 100,00 %
22.04.2019 12:32 24,9 C 31 % 1009,2 hPa 0,0 l/m 15,7 km/h O 90 1 min 0,000 mm 3,5 UV-I 750 W/m 6,6 C 23,1 C 23,0 km/h 100,00 %
22.04.2019 12:31 24,9 C 31 % 1009,2 hPa 0,0 l/m 16,9 km/h NO 46 1 min 0,000 mm 3,0 UV-I 750 W/m 6,6 C 22,9 C 24,9 km/h 100,00 %
22.04.2019 12:30 24,9 C 32 % 1009,2 hPa 0,0 l/m 10,3 km/h O 84 1 min 0,000 mm 3,7 UV-I 744 W/m 7,1 C 24,0 C 15,3 km/h 100,00 %
22.04.2019 12:29 24,8 C 33 % 1009,1 hPa 0,0 l/m 3,0 km/h O-NO 74 1 min 0,000 mm 3,7 UV-I 746 W/m 7,4 C 24,8 C 5,7 km/h 96,55 %
22.04.2019 12:28 24,7 C 32 % 1009,2 hPa 0,0 l/m 6,1 km/h O 91 1 min 0,000 mm 3,7 UV-I 746 W/m 6,9 C 24,7 C 9,6 km/h 100,00 %
22.04.2019 12:27 24,7 C 32 % 1009,2 hPa 0,0 l/m 7,0 km/h N-NW 334 1 min 0,000 mm 3,6 UV-I 742 W/m 6,9 C 24,5 C 15,3 km/h 100,00 %
22.04.2019 12:26 24,6 C 32 % 1009,2 hPa 0,0 l/m 1,7 km/h O 100 1 min 0,000 mm 3,7 UV-I 740 W/m 6,8 C 24,6 C 7,7 km/h 100,00 %
22.04.2019 12:25 24,6 C 32 % 1009,3 hPa 0,0 l/m 3,7 km/h O-NO 75 1 min 0,000 mm 3,6 UV-I 737 W/m 6,8 C 24,6 C 9,6 km/h 100,00 %
22.04.2019 12:24 24,5 C 31 % 1009,4 hPa 0,0 l/m 3,9 km/h O 95 1 min 0,000 mm 3,6 UV-I 728 W/m 6,3 C 24,5 C 9,6 km/h 100,00 %
22.04.2019 12:23 24,4 C 32 % 1009,3 hPa 0,0 l/m 4,3 km/h O-NO 78 1 min 0,000 mm 3,5 UV-I 727 W/m 6,6 C 24,4 C 9,6 km/h 100,00 %
22.04.2019 12:22 24,3 C 32 % 1009,4 hPa 0,0 l/m 9,1 km/h O 97 1 min 0,000 mm 3,5 UV-I 728 W/m 6,5 C 23,6 C 15,3 km/h 100,00 %
22.04.2019 12:21 24,2 C 33 % 1009,4 hPa 0,0 l/m 8,3 km/h O 89 1 min 0,000 mm 3,5 UV-I 729 W/m 6,9 C 23,7 C 17,2 km/h 86,96 %
22.04.2019 12:20 24,0 C 33 % 1009,3 hPa 0,0 l/m 4,5 km/h NO 56 1 min 0,000 mm 3,5 UV-I 729 W/m 6,7 C 24,0 C 13,4 km/h 100,00 %
22.04.2019 12:19 23,8 C 34 % 1009,4 hPa 0,0 l/m 5,6 km/h N 5 1 min 0,000 mm 3,4 UV-I 722 W/m 7,0 C 23,8 C 11,5 km/h 92,31 %
22.04.2019 12:18 23,8 C 34 % 1009,4 hPa 0,0 l/m 5,1 km/h N 5 1 min 0,000 mm 3,4 UV-I 718 W/m 7,0 C 23,8 C 7,7 km/h 95,83 %
22.04.2019 12:17 23,7 C 35 % 1009,4 hPa 0,0 l/m 5,5 km/h NO 46 1 min 0,000 mm 3,4 UV-I 721 W/m 7,3 C 23,7 C 9,6 km/h 95,65 %
22.04.2019 12:16 23,7 C 35 % 1009,5 hPa 0,0 l/m 8,8 km/h O 94 1 min 0,000 mm 3,4 UV-I 722 W/m 7,3 C 23,0 C 17,2 km/h 95,83 %
22.04.2019 12:15 23,7 C 35 % 1009,5 hPa 0,0 l/m 7,6 km/h N 9 1 min 0,000 mm 3,4 UV-I 714 W/m 7,3 C 23,3 C 15,3 km/h 100,00 %
22.04.2019 12:14 23,7 C 35 % 1009,5 hPa 0,0 l/m 9,5 km/h O 99 1 min 0,000 mm 3,4 UV-I 701 W/m 7,3 C 22,8 C 17,2 km/h 95,83 %
22.04.2019 12:13 23,8 C 35 % 1009,4 hPa 0,0 l/m 15,4 km/h N-NW 342 1 min 0,000 mm 3,4 UV-I 720 W/m 7,4 C 21,8 C 21,0 km/h 96,15 %
22.04.2019 12:12 23,8 C 35 % 1009,5 hPa 0,0 l/m 8,0 km/h N 5 1 min 0,000 mm 3,5 UV-I 724 W/m 7,4 C 23,3 C 17,2 km/h 91,67 %
22.04.2019 12:11 23,7 C 35 % 1009,5 hPa 0,0 l/m 3,1 km/h N-NO 15 1 min 0,000 mm 3,4 UV-I 724 W/m 7,3 C 23,7 C 7,7 km/h 100,00 %
22.04.2019 12:10 23,6 C 36 % 1009,5 hPa 0,0 l/m 3,1 km/h O 88 1 min 0,000 mm 3,4 UV-I 724 W/m 7,6 C 23,6 C 7,7 km/h 95,65 %
22.04.2019 12:09 23,5 C 35 % 1009,6 hPa 0,0 l/m 2,2 km/h O-SO 112 1 min 0,000 mm 3,4 UV-I 722 W/m 7,1 C 23,5 C 7,7 km/h 100,00 %
22.04.2019 12:08 23,4 C 35 % 1009,6 hPa 0,0 l/m 3,2 km/h O 93 1 min 0,000 mm 3,4 UV-I 724 W/m 7,1 C 23,4 C 11,5 km/h 96,55 %
22.04.2019 12:07 23,4 C 35 % 1009,7 hPa 0,0 l/m 7,5 km/h O-NO 63 1 min 0,000 mm 3,4 UV-I 723 W/m 7,1 C 23,1 C 11,5 km/h 95,83 %
22.04.2019 12:06 23,6 C 35 % 1009,7 hPa 0,0 l/m 8,8 km/h N 355 1 min 0,000 mm 3,4 UV-I 721 W/m 7,2 C 22,9 C 15,3 km/h 100,00 %
22.04.2019 12:05 23,6 C 36 % 1009,7 hPa 0,0 l/m 3,3 km/h N 355 1 min 0,000 mm 3,4 UV-I 722 W/m 7,6 C 23,6 C 11,5 km/h 95,83 %
22.04.2019 12:04 23,6 C 35 % 1009,7 hPa 0,0 l/m 7,8 km/h O-NO 74 1 min 0,000 mm 3,4 UV-I 720 W/m 7,2 C 23,2 C 15,3 km/h 100,00 %
22.04.2019 12:03 23,7 C 36 % 1009,7 hPa 0,0 l/m 8,3 km/h N 5 1 min 0,000 mm 3,4 UV-I 717 W/m 7,7 C 23,2 C 11,5 km/h 91,67 %
22.04.2019 12:02 23,7 C 36 % 1009,7 hPa 0,0 l/m 0,4 km/h O 86 1 min 0,000 mm 3,4 UV-I 715 W/m 7,7 C 23,7 C 1,9 km/h 100,00 %
22.04.2019 12:01 23,6 C 35 % 1009,8 hPa 0,0 l/m 7,8 km/h O 94 1 min 0,000 mm 3,4 UV-I 713 W/m 7,2 C 23,2 C 11,5 km/h 95,83 %
22.04.2019 12:00 23,7 C 36 % 1009,8 hPa 0,0 l/m 6,1 km/h O-NO 74 1 min 0,432 mm 3,4 UV-I 710 W/m 7,7 C 23,7 C 11,5 km/h 100,00 %
22.04.2019 11:59 23,7 C 36 % 1009,8 hPa 0,0 l/m 3,0 km/h N 9 1 min 0,000 mm 3,4 UV-I 711 W/m 7,7 C 23,7 C 7,7 km/h 95,83 %
22.04.2019 11:58 23,6 C 36 % 1009,9 hPa 0,0 l/m 2,6 km/h N-NO 26 1 min 0,000 mm 3,4 UV-I 714 W/m 7,6 C 23,6 C 5,7 km/h 95,65 %
22.04.2019 11:57 23,7 C 36 % 1009,9 hPa 0,0 l/m 7,0 km/h N-NO 26 1 min 0,000 mm 3,4 UV-I 711 W/m 7,7 C 23,5 C 13,4 km/h 100,00 %
22.04.2019 11:56 23,7 C 36 % 1009,9 hPa 0,0 l/m 8,0 km/h N 9 1 min 0,000 mm 3,4 UV-I 708 W/m 7,7 C 23,2 C 17,2 km/h 96,15 %
22.04.2019 11:55 23,7 C 36 % 1010,0 hPa 0,0 l/m 7,6 km/h N-NO 17 1 min 0,000 mm 3,4 UV-I 705 W/m 7,7 C 23,3 C 11,5 km/h 100,00 %
22.04.2019 11:54 23,7 C 37 % 1010,0 hPa 0,0 l/m 2,8 km/h N-NO 18 1 min 0,000 mm 3,3 UV-I 705 W/m 8,1 C 23,7 C 5,7 km/h 95,65 %
22.04.2019 11:53 23,6 C 37 % 1010,0 hPa 0,0 l/m 4,3 km/h O-SO 110 1 min 0,000 mm 3,3 UV-I 698 W/m 8,0 C 23,6 C 5,7 km/h 95,83 %
22.04.2019 11:52 23,4 C 37 % 1010,0 hPa 0,0 l/m 3,7 km/h O-SO 111 1 min 0,000 mm 3,3 UV-I 696 W/m 7,9 C 23,4 C 7,7 km/h 100,00 %
22.04.2019 11:51 23,3 C 37 % 1010,0 hPa 0,0 l/m 4,1 km/h O-NO 61 1 min 0,000 mm 3,2 UV-I 698 W/m 7,8 C 23,3 C 7,7 km/h 100,00 %
22.04.2019 11:50 23,2 C 37 % 1010,0 hPa 0,0 l/m 1,7 km/h O-NO 75 1 min 0,000 mm 3,0 UV-I 694 W/m 7,7 C 23,2 C 5,7 km/h 96,30 %
22.04.2019 11:49 23,1 C 37 % 1010,0 hPa 0,0 l/m 1,2 km/h O 97 1 min 0,000 mm 3,3 UV-I 692 W/m 7,6 C 23,1 C 5,7 km/h 96,55 %
22.04.2019 11:48 22,9 C 36 % 1010,0 hPa 0,0 l/m 3,3 km/h O 97 1 min 0,000 mm 3,3 UV-I 692 W/m 7,0 C 22,9 C 5,7 km/h 100,00 %
22.04.2019 11:47 22,8 C 37 % 1010,1 hPa 0,0 l/m 6,1 km/h O 89 1 min 0,000 mm 3,2 UV-I 691 W/m 7,3 C 22,8 C 13,4 km/h 95,65 %
22.04.2019 11:46 22,7 C 37 % 1010,1 hPa 0,0 l/m 2,6 km/h O-SO 111 1 min 0,000 mm 3,2 UV-I 690 W/m 7,3 C 22,7 C 11,5 km/h 96,43 %
22.04.2019 11:45 22,7 C 38 % 1010,1 hPa 0,0 l/m 6,7 km/h NO 55 1 min 0,000 mm 3,2 UV-I 689 W/m 7,6 C 22,6 C 9,6 km/h 100,00 %
22.04.2019 11:44 22,7 C 39 % 1010,1 hPa 0,0 l/m 2,8 km/h N 5 1 min 0,000 mm 3,2 UV-I 693 W/m 8,0 C 22,7 C 5,7 km/h 95,83 %
22.04.2019 11:43 22,7 C 38 % 1010,2 hPa 0,0 l/m 4,8 km/h N-NW 346 1 min 0,000 mm 3,2 UV-I 692 W/m 7,6 C 22,7 C 7,7 km/h 96,15 %
22.04.2019 11:42 22,7 C 38 % 1010,1 hPa 0,0 l/m 0,5 km/h NO 42 1 min 0,000 mm 3,2 UV-I 691 W/m 7,6 C 22,7 C 1,9 km/h 95,83 %
22.04.2019 11:41 22,7 C 38 % 1010,2 hPa 0,0 l/m 3,5 km/h NO 42 1 min 0,000 mm 3,2 UV-I 691 W/m 7,6 C 22,7 C 7,7 km/h 100,00 %
22.04.2019 11:40 22,8 C 38 % 1010,2 hPa 0,0 l/m 4,5 km/h N-NO 18 1 min 0,000 mm 3,2 UV-I 690 W/m 7,7 C 22,8 C 9,6 km/h 97,37 %
22.04.2019 11:39 22,9 C 38 % 1010,2 hPa 0,0 l/m 4,2 km/h N 355 1 min 0,000 mm 3,2 UV-I 687 W/m 7,8 C 22,9 C 9,6 km/h 98,74 %
22.04.2019 11:38 22,8 C 39 % 1010,2 hPa 0,0 l/m 0,6 km/h NO 50 1 min 0,000 mm 3,2 UV-I 684 W/m 8,1 C 22,8 C 1,9 km/h 96,00 %
22.04.2019 11:37 22,7 C 39 % 1010,2 hPa 0,0 l/m 0,5 km/h NO 50 1 min 0,000 mm 3,2 UV-I 684 W/m 8,0 C 22,7 C 1,9 km/h 100,00 %
22.04.2019 11:36 22,7 C 39 % 1010,2 hPa 0,0 l/m 1,7 km/h NO 49 1 min 0,000 mm 3,1 UV-I 681 W/m 8,0 C 22,7 C 5,7 km/h 95,83 %
22.04.2019 11:35 22,6 C 39 % 1010,2 hPa 0,0 l/m 6,5 km/h NO 53 1 min 0,000 mm 3,1 UV-I 674 W/m 7,9 C 22,6 C 11,5 km/h 96,30 %
22.04.2019 11:34 22,6 C 39 % 1010,3 hPa 0,0 l/m 3,2 km/h NO 38 1 min 0,000 mm 3,1 UV-I 668 W/m 7,9 C 22,6 C 5,7 km/h 100,00 %
22.04.2019 11:33 22,5 C 39 % 1010,3 hPa 0,0 l/m 5,3 km/h N-NO 28 1 min 0,000 mm 3,1 UV-I 665 W/m 7,8 C 22,5 C 13,4 km/h 100,00 %
22.04.2019 11:32 22,5 C 39 % 1010,3 hPa 0,0 l/m 4,0 km/h N 349 1 min 0,000 mm 3,1 UV-I 667 W/m 7,8 C 22,5 C 9,6 km/h 100,00 %
22.04.2019 11:31 22,4 C 39 % 1010,3 hPa 0,0 l/m 1,7 km/h NO 42 1 min 0,000 mm 3,1 UV-I 669 W/m 7,8 C 22,4 C 3,8 km/h 94,44 %
22.04.2019 11:30 22,4 C 39 % 1010,3 hPa 0,0 l/m 0,6 km/h NO 43 1 min 0,000 mm 3,1 UV-I 666 W/m 7,8 C 22,4 C 3,8 km/h 100,00 %
22.04.2019 11:29 22,4 C 39 % 1010,3 hPa 0,0 l/m 2,5 km/h NO 44 1 min 0,000 mm 3,1 UV-I 664 W/m 7,8 C 22,4 C 5,7 km/h 96,30 %
22.04.2019 11:28 22,4 C 38 % 1010,4 hPa 0,0 l/m 5,2 km/h O 83 1 min 0,000 mm 3,0 UV-I 662 W/m 7,4 C 22,4 C 7,7 km/h 100,00 %
22.04.2019 11:27 22,5 C 39 % 1010,3 hPa 0,0 l/m 1,5 km/h O 88 1 min 0,000 mm 3,0 UV-I 663 W/m 7,8 C 22,5 C 7,7 km/h 100,00 %
22.04.2019 11:26 22,4 C 40 % 1010,3 hPa 0,0 l/m 2,5 km/h O-SO 119 1 min 0,000 mm 3,0 UV-I 657 W/m 8,1 C 22,4 C 7,7 km/h 100,00 %
22.04.2019 11:25 22,4 C 39 % 1010,4 hPa 0,0 l/m 5,7 km/h SO 124 1 min 0,000 mm 3,0 UV-I 657 W/m 7,8 C 22,4 C 7,7 km/h 100,00 %
22.04.2019 11:24 22,3 C 40 % 1010,4 hPa 0,0 l/m 2,8 km/h O-NO 63 1 min 0,000 mm 3,0 UV-I 656 W/m 8,0 C 22,3 C 7,7 km/h 100,00 %
22.04.2019 11:23 22,2 C 40 % 1010,4 hPa 0,0 l/m 3,0 km/h O 85 1 min 0,000 mm 3,0 UV-I 653 W/m 8,0 C 22,2 C 7,7 km/h 100,00 %
22.04.2019 11:22 22,1 C 40 % 1010,4 hPa 0,0 l/m 3,9 km/h O-SO 117 1 min 0,000 mm 3,0 UV-I 650 W/m 7,9 C 22,1 C 5,7 km/h 96,15 %
22.04.2019 11:21 21,9 C 40 % 1010,4 hPa 0,0 l/m 4,0 km/h O-SO 119 1 min 0,000 mm 2,9 UV-I 650 W/m 7,7 C 21,9 C 5,7 km/h 100,00 %
22.04.2019 11:20 21,9 C 40 % 1010,4 hPa 0,0 l/m 2,7 km/h O-SO 118 1 min 0,000 mm 2,9 UV-I 652 W/m 7,7 C 21,9 C 5,7 km/h 100,00 %
22.04.2019 11:19 21,8 C 40 % 1010,4 hPa 0,0 l/m 1,8 km/h SO 133 1 min 0,000 mm 2,9 UV-I 654 W/m 7,6 C 21,8 C 3,8 km/h 100,00 %
22.04.2019 11:18 21,8 C 41 % 1010,4 hPa 0,0 l/m 3,2 km/h SO 133 1 min 0,000 mm 2,9 UV-I 651 W/m 8,0 C 21,8 C 7,7 km/h 100,00 %
22.04.2019 11:17 21,8 C 39 % 1010,4 hPa 0,0 l/m 6,2 km/h SO 136 1 min 0,000 mm 2,9 UV-I 652 W/m 7,2 C 21,8 C 9,6 km/h 100,00 %
22.04.2019 11:16 21,8 C 40 % 1010,5 hPa 0,0 l/m 4,5 km/h O 99 1 min 0,000 mm 2,9 UV-I 652 W/m 7,6 C 21,8 C 7,7 km/h 100,00 %
22.04.2019 11:15 21,8 C 41 % 1010,5 hPa 0,0 l/m 6,7 km/h O 80 1 min 0,000 mm 2,9 UV-I 592 W/m 8,0 C 21,7 C 11,5 km/h 95,65 %
22.04.2019 11:14 21,7 C 42 % 1010,5 hPa 0,0 l/m 3,2 km/h O 101 1 min 0,000 mm 2,9 UV-I 648 W/m 8,2 C 21,7 C 13,4 km/h 100,00 %
22.04.2019 11:13 21,6 C 41 % 1010,5 hPa 0,0 l/m 2,0 km/h O 90 1 min 0,000 mm 2,9 UV-I 646 W/m 7,8 C 21,6 C 5,7 km/h 100,00 %
22.04.2019 11:12 21,6 C 41 % 1010,5 hPa 0,0 l/m 8,7 km/h O 89 1 min 0,000 mm 2,9 UV-I 643 W/m 7,8 C 20,8 C 15,3 km/h 100,00 %
22.04.2019 11:11 21,5 C 42 % 1010,5 hPa 0,0 l/m 2,2 km/h O-NO 76 1 min 0,000 mm 2,8 UV-I 641 W/m 8,0 C 21,5 C 5,7 km/h 100,00 %
22.04.2019 11:10 21,4 C 43 % 1010,6 hPa 0,0 l/m 2,5 km/h O-NO 78 1 min 0,000 mm 2,8 UV-I 636 W/m 8,3 C 21,4 C 5,7 km/h 100,00 %
22.04.2019 11:09 21,4 C 43 % 1010,6 hPa 0,0 l/m 1,8 km/h O-NO 73 1 min 0,000 mm 2,8 UV-I 628 W/m 8,3 C 21,4 C 5,7 km/h 100,00 %
22.04.2019 11:08 21,3 C 43 % 1010,6 hPa 0,0 l/m 1,9 km/h SO 128 1 min 0,000 mm 2,7 UV-I 618 W/m 8,2 C 21,3 C 3,8 km/h 100,00 %
22.04.2019 11:07 21,3 C 44 % 1010,6 hPa 0,0 l/m 1,1 km/h SO 129 1 min 0,000 mm 2,1 UV-I 612 W/m 8,5 C 21,3 C 3,8 km/h 100,00 %
22.04.2019 11:06 21,2 C 43 % 1010,6 hPa 0,0 l/m 3,3 km/h SO 129 1 min 0,000 mm 2,2 UV-I 609 W/m 8,1 C 21,2 C 5,7 km/h 100,00 %
22.04.2019 11:05 21,2 C 43 % 1010,6 hPa 0,0 l/m 2,9 km/h SO 129 1 min 0,000 mm 2,7 UV-I 606 W/m 8,1 C 21,2 C 7,7 km/h 100,00 %
22.04.2019 11:04 21,2 C 43 % 1010,7 hPa 0,0 l/m 1,9 km/h O-SO 106 1 min 0,000 mm 2,6 UV-I 606 W/m 8,1 C 21,2 C 3,8 km/h 96,30 %
22.04.2019 11:03 21,1 C 43 % 1010,7 hPa 0,0 l/m 0,8 km/h O-SO 107 1 min 0,000 mm 2,6 UV-I 610 W/m 8,0 C 21,1 C 1,9 km/h 100,00 %
22.04.2019 11:02 21,0 C 44 % 1010,7 hPa 0,0 l/m 6,6 km/h O-SO 107 1 min 0,000 mm 2,6 UV-I 610 W/m 8,3 C 20,9 C 11,5 km/h 96,30 %
22.04.2019 11:01 21,1 C 43 % 1010,7 hPa 0,0 l/m 2,2 km/h O 94 1 min 0,305 mm 2,6 UV-I 610 W/m 8,0 C 21,1 C 3,8 km/h 100,00 %
22.04.2019 11:00 21,1 C 43 % 1010,7 hPa 0,0 l/m 5,2 km/h O 82 1 min 0,000 mm 2,6 UV-I 610 W/m 8,0 C 21,1 C 7,7 km/h 100,00 %
22.04.2019 10:59 21,1 C 45 % 1010,7 hPa 0,0 l/m 4,2 km/h O-NO 78 1 min 0,000 mm 2,6 UV-I 607 W/m 8,7 C 21,1 C 9,6 km/h 100,00 %
22.04.2019 10:58 21,1 C 45 % 1010,8 hPa 0,0 l/m 5,3 km/h O-SO 122 1 min 0,000 mm 2,6 UV-I 603 W/m 8,7 C 21,1 C 7,7 km/h 95,83 %
22.04.2019 10:57 20,9 C 45 % 1010,8 hPa 0,0 l/m 0,7 km/h O 96 1 min 0,000 mm 2,6 UV-I 603 W/m 8,5 C 20,9 C 3,8 km/h 100,00 %
22.04.2019 10:56 20,9 C 45 % 1010,8 hPa 0,0 l/m 0,7 km/h O 92 1 min 0,000 mm 2,5 UV-I 600 W/m 8,5 C 20,9 C 3,8 km/h 100,00 %
22.04.2019 10:55 20,8 C 46 % 1010,8 hPa 0,0 l/m 1,7 km/h O 92 1 min 0,000 mm 2,5 UV-I 597 W/m 8,8 C 20,8 C 5,7 km/h 100,00 %
22.04.2019 10:54 20,7 C 46 % 1010,8 hPa 0,0 l/m 0,6 km/h O 96 1 min 0,000 mm 2,5 UV-I 596 W/m 8,7 C 20,7 C 1,9 km/h 100,00 %
22.04.2019 10:53 20,7 C 46 % 1010,8 hPa 0,0 l/m 0,3 km/h O 96 1 min 0,000 mm 2,5 UV-I 598 W/m 8,7 C 20,7 C 1,9 km/h 100,00 %
22.04.2019 10:52 20,6 C 46 % 1010,8 hPa 0,0 l/m 2,0 km/h O 95 1 min 0,000 mm 2,5 UV-I 601 W/m 8,6 C 20,6 C 3,8 km/h 96,30 %
22.04.2019 10:51 20,5 C 46 % 1010,9 hPa 0,0 l/m 0,3 km/h NO 52 1 min 0,000 mm 2,5 UV-I 598 W/m 8,5 C 20,5 C 1,9 km/h 100,00 %
22.04.2019 10:50 20,4 C 46 % 1010,9 hPa 0,0 l/m 2,1 km/h NO 54 1 min 0,000 mm 2,5 UV-I 593 W/m 8,4 C 20,4 C 3,8 km/h 100,00 %
22.04.2019 10:49 20,3 C 47 % 1010,9 hPa 0,0 l/m 0,7 km/h O-NO 60 1 min 0,000 mm 2,4 UV-I 589 W/m 8,6 C 20,3 C 3,8 km/h 100,00 %
22.04.2019 10:48 20,2 C 47 % 1010,8 hPa 0,0 l/m 2,0 km/h O-NO 60 1 min 0,000 mm 2,4 UV-I 586 W/m 8,5 C 20,2 C 3,8 km/h 100,00 %
22.04.2019 10:47 20,1 C 47 % 1010,8 hPa 0,0 l/m 1,8 km/h O-SO 102 1 min 0,000 mm 2,4 UV-I 591 W/m 8,4 C 20,1 C 3,8 km/h 100,00 %
22.04.2019 10:46 20,0 C 47 % 1010,9 hPa 0,0 l/m 6,1 km/h O-SO 103 1 min 0,000 mm 2,4 UV-I 591 W/m 8,3 C 20,0 C 7,7 km/h 100,00 %
22.04.2019 10:45 19,9 C 47 % 1010,9 hPa 0,0 l/m 3,0 km/h O 87 1 min 0,000 mm 2,4 UV-I 589 W/m 8,3 C 19,9 C 7,7 km/h 100,00 %
22.04.2019 10:44 19,8 C 47 % 1010,9 hPa 0,0 l/m 2,2 km/h O 80 1 min 0,000 mm 2,4 UV-I 590 W/m 8,2 C 19,8 C 3,8 km/h 100,00 %
22.04.2019 10:43 19,7 C 47 % 1010,9 hPa 0,0 l/m 3,7 km/h O 98 1 min 0,000 mm 2,4 UV-I 590 W/m 8,1 C 19,7 C 7,7 km/h 100,00 %
22.04.2019 10:42 19,7 C 47 % 1010,9 hPa 0,0 l/m 4,6 km/h O 84 1 min 0,000 mm 2,3 UV-I 588 W/m 8,1 C 19,7 C 9,6 km/h 100,00 %
22.04.2019 10:41 19,6 C 48 % 1010,9 hPa 0,0 l/m 4,9 km/h O 86 1 min 0,000 mm 2,3 UV-I 587 W/m 8,3 C 19,6 C 9,6 km/h 100,00 %
22.04.2019 10:40 19,6 C 48 % 1010,9 hPa 0,0 l/m 2,2 km/h NO 55 1 min 0,000 mm 2,3 UV-I 584 W/m 8,3 C 19,6 C 5,7 km/h 100,00 %
22.04.2019 10:39 19,5 C 48 % 1010,9 hPa 0,0 l/m 1,5 km/h N-NO 25 1 min 0,000 mm 2,3 UV-I 581 W/m 8,2 C 19,5 C 3,8 km/h 100,00 %
22.04.2019 10:38 19,5 C 47 % 1010,9 hPa 0,0 l/m 6,4 km/h N-NO 19 1 min 0,000 mm 2,3 UV-I 576 W/m 7,9 C 19,5 C 9,6 km/h 100,00 %
22.04.2019 10:37 19,6 C 48 % 1010,9 hPa 0,0 l/m 5,7 km/h N 351 1 min 0,000 mm 2,2 UV-I 564 W/m 8,3 C 19,6 C 7,7 km/h 100,00 %
22.04.2019 10:36 19,6 C 48 % 1010,9 hPa 0,0 l/m 3,6 km/h N-NW 348 1 min 0,000 mm 2,2 UV-I 555 W/m 8,3 C 19,6 C 9,6 km/h 100,00 %
22.04.2019 10:35 19,6 C 48 % 1010,9 hPa 0,0 l/m 2,2 km/h N-NO 15 1 min 0,000 mm 2,2 UV-I 554 W/m 8,3 C 19,6 C 5,7 km/h 100,00 %
22.04.2019 10:34 19,4 C 48 % 1010,9 hPa 0,0 l/m 0,9 km/h N-NO 15 1 min 0,000 mm 2,2 UV-I 549 W/m 8,1 C 19,4 C 3,8 km/h 100,00 %
22.04.2019 10:33 19,4 C 48 % 1010,9 hPa 0,0 l/m 2,9 km/h N-NO 15 1 min 0,000 mm 2,2 UV-I 534 W/m 8,1 C 19,4 C 5,7 km/h 100,00 %
22.04.2019 10:32 19,3 C 48 % 1011,0 hPa 0,0 l/m 1,5 km/h N-NO 17 1 min 0,000 mm 2,1 UV-I 529 W/m 8,0 C 19,3 C 5,7 km/h 95,83 %
22.04.2019 10:31 19,3 C 48 % 1010,9 hPa 0,0 l/m 2,9 km/h N 11 1 min 0,000 mm 2,1 UV-I 524 W/m 8,0 C 19,3 C 5,7 km/h 100,00 %
22.04.2019 10:30 19,3 C 48 % 1011,0 hPa 0,0 l/m 4,5 km/h NO 42 1 min 0,000 mm 2,1 UV-I 515 W/m 8,0 C 19,3 C 7,7 km/h 100,00 %
22.04.2019 10:29 19,3 C 48 % 1011,0 hPa 0,0 l/m 2,2 km/h N-NO 22 1 min 0,000 mm 2,0 UV-I 499 W/m 8,0 C 19,3 C 5,7 km/h 100,00 %
22.04.2019 10:28 19,2 C 48 % 1011,0 hPa 0,0 l/m 3,3 km/h N-NO 24 1 min 0,000 mm 2,0 UV-I 490 W/m 7,9 C 19,2 C 7,7 km/h 100,00 %
22.04.2019 10:27 19,2 C 48 % 1011,0 hPa 0,0 l/m 0,2 km/h O 82 1 min 0,000 mm 1,9 UV-I 434 W/m 7,9 C 19,2 C 1,9 km/h 100,00 %
22.04.2019 10:26 19,2 C 48 % 1011,1 hPa 0,0 l/m 2,2 km/h O 82 1 min 0,000 mm 1,8 UV-I 392 W/m 7,9 C 19,2 C 3,8 km/h 100,00 %
22.04.2019 10:25 19,2 C 48 % 1011,0 hPa 0,0 l/m 2,3 km/h O 82 1 min 0,000 mm 1,7 UV-I 351 W/m 7,9 C 19,2 C 5,7 km/h 96,15 %
22.04.2019 10:24 19,2 C 48 % 1011,0 hPa 0,0 l/m 1,7 km/h NO 37 1 min 0,000 mm 1,7 UV-I 348 W/m 7,9 C 19,2 C 3,8 km/h 100,00 %
22.04.2019 10:23 19,2 C 49 % 1011,0 hPa 0,0 l/m 0,5 km/h NO 37 1 min 0,000 mm 1,7 UV-I 366 W/m 8,2 C 19,2 C 1,9 km/h 100,00 %
22.04.2019 10:22 19,1 C 48 % 1011,0 hPa 0,0 l/m 0,6 km/h NO 37 1 min 0,000 mm 1,8 UV-I 433 W/m 7,8 C 19,1 C 1,9 km/h 100,00 %
22.04.2019 10:21 19,2 C 48 % 1011,0 hPa 0,0 l/m 3,7 km/h NO 37 1 min 0,000 mm 1,8 UV-I 447 W/m 7,9 C 19,2 C 5,7 km/h 100,00 %
22.04.2019 10:20 19,2 C 48 % 1011,0 hPa 0,0 l/m 3,0 km/h NO 41 1 min 0,000 mm 1,8 UV-I 468 W/m 7,9 C 19,2 C 5,7 km/h 100,00 %
22.04.2019 10:19 19,2 C 48 % 1011,0 hPa 0,0 l/m 4,0 km/h NO 44 1 min 0,000 mm 1,7 UV-I 368 W/m 7,9 C 19,2 C 5,7 km/h 100,00 %
22.04.2019 10:18 19,3 C 48 % 1011,0 hPa 0,0 l/m 1,0 km/h O-NO 78 1 min 0,000 mm 1,7 UV-I 383 W/m 8,0 C 19,3 C 3,8 km/h 100,00 %
22.04.2019 10:17 19,2 C 48 % 1011,1 hPa 0,0 l/m 1,7 km/h O-NO 78 1 min 0,000 mm 1,8 UV-I 426 W/m 7,9 C 19,2 C 3,8 km/h 100,00 %
22.04.2019 10:16 19,2 C 49 % 1011,0 hPa 0,0 l/m 1,7 km/h O-NO 78 1 min 0,000 mm 1,8 UV-I 446 W/m 8,2 C 19,2 C 3,8 km/h 100,00 %
22.04.2019 10:15 19,1 C 49 % 1011,0 hPa 0,0 l/m 0,4 km/h O-NO 78 1 min 0,000 mm 1,9 UV-I 476 W/m 8,1 C 19,1 C 1,9 km/h 96,67 %
22.04.2019 10:14 19,1 C 49 % 1011,0 hPa 0,0 l/m 0,3 km/h O-NO 78 1 min 0,000 mm 1,8 UV-I 440 W/m 8,1 C 19,1 C 1,9 km/h 100,00 %
22.04.2019 10:13 19,1 C 49 % 1011,0 hPa 0,0 l/m 2,1 km/h O-NO 78 1 min 0,000 mm 1,7 UV-I 413 W/m 8,1 C 19,1 C 3,8 km/h 100,00 %
22.04.2019 10:12 19,0 C 49 % 1011,0 hPa 0,0 l/m 2,1 km/h O-NO 78 1 min 0,000 mm 1,7 UV-I 407 W/m 8,0 C 19,0 C 5,7 km/h 100,00 %
22.04.2019 10:11 18,9 C 49 % 1011,1 hPa 0,0 l/m 1,5 km/h O-NO 61 1 min 0,000 mm 1,8 UV-I 438 W/m 7,9 C 18,9 C 3,8 km/h 96,00 %
22.04.2019 10:10 18,9 C 50 % 1011,1 hPa 0,0 l/m 1,4 km/h O-NO 75 2 min 0,000 mm 1,7 UV-I 438 W/m 8,2 C 18,9 C 3,8 km/h 100,00 %
22.04.2019 10:08 18,7 C 50 % 1011,1 hPa 0,0 l/m 2,0 km/h O-NO 75 1 min 0,000 mm 1,8 UV-I 458 W/m 8,1 C 18,7 C 3,8 km/h 100,00 %
22.04.2019 10:07 18,7 C 50 % 1011,1 hPa 0,0 l/m 2,5 km/h O-NO 77 1 min 0,000 mm 1,8 UV-I 463 W/m 8,1 C 18,7 C 5,7 km/h 100,00 %
22.04.2019 10:06 18,6 C 49 % 1011,1 hPa 0,0 l/m 1,4 km/h NO 42 1 min 0,000 mm 1,7 UV-I 441 W/m 7,7 C 18,6 C 3,8 km/h 100,00 %
22.04.2019 10:05 18,5 C 50 % 1011,2 hPa 0,0 l/m 0,5 km/h NO 41 1 min 0,000 mm 1,7 UV-I 418 W/m 7,9 C 18,5 C 1,9 km/h 100,00 %
22.04.2019 10:04 18,4 C 50 % 1011,1 hPa 0,0 l/m 1,5 km/h NO 43 1 min 0,000 mm 1,6 UV-I 427 W/m 7,8 C 18,4 C 5,7 km/h 100,00 %
22.04.2019 10:03 18,3 C 50 % 1011,1 hPa 0,0 l/m 1,8 km/h NO 39 1 min 0,000 mm 1,7 UV-I 460 W/m 7,7 C 18,3 C 3,8 km/h 100,00 %
22.04.2019 10:02 18,3 C 50 % 1011,1 hPa 0,0 l/m 0,9 km/h NO 39 1 min 0,000 mm 1,7 UV-I 465 W/m 7,7 C 18,3 C 3,8 km/h 100,00 %
22.04.2019 10:01 18,2 C 50 % 1011,1 hPa 0,0 l/m 0,8 km/h NO 42 1 min 0,000 mm 1,7 UV-I 462 W/m 7,6 C 18,2 C 3,8 km/h 100,00 %
22.04.2019 10:00 18,2 C 50 % 1011,1 hPa 0,0 l/m 3,5 km/h N-NO 23 1 min 0,228 mm 1,7 UV-I 457 W/m 7,6 C 18,2 C 7,7 km/h 90,91 %
22.04.2019 09:59 18,1 C 50 % 1011,2 hPa 0,0 l/m 0,9 km/h N-NO 21 1 min 0,000 mm 1,6 UV-I 435 W/m 7,5 C 18,1 C 3,8 km/h 100,00 %
22.04.2019 09:58 18,1 C 50 % 1011,2 hPa 0,0 l/m 4,1 km/h N-NO 19 1 min 0,000 mm 1,6 UV-I 437 W/m 7,5 C 18,1 C 5,7 km/h 100,00 %
22.04.2019 09:57 18,1 C 51 % 1011,2 hPa 0,0 l/m 3,0 km/h N-NO 20 1 min 0,000 mm 1,7 UV-I 466 W/m 7,8 C 18,1 C 7,7 km/h 100,00 %
22.04.2019 09:56 18,0 C 51 % 1011,2 hPa 0,0 l/m 0,4 km/h N-NO 33 1 min 0,000 mm 1,6 UV-I 471 W/m 7,7 C 18,0 C 1,9 km/h 100,00 %
22.04.2019 09:55 17,9 C 52 % 1011,2 hPa 0,0 l/m 1,7 km/h N-NO 33 1 min 0,000 mm 1,6 UV-I 453 W/m 7,9 C 17,9 C 3,8 km/h 100,00 %
22.04.2019 09:54 17,9 C 52 % 1011,2 hPa 0,0 l/m 1,0 km/h N-NO 23 1 min 0,000 mm 1,6 UV-I 450 W/m 7,9 C 17,9 C 3,8 km/h 100,00 %
22.04.2019 09:53 17,8 C 52 % 1011,2 hPa 0,0 l/m 1,7 km/h N-NO 23 1 min 0,000 mm 1,6 UV-I 441 W/m 7,8 C 17,8 C 3,8 km/h 100,00 %
22.04.2019 09:52 17,8 C 52 % 1011,2 hPa 0,0 l/m 3,8 km/h N-NO 25 1 min 0,000 mm 1,6 UV-I 430 W/m 7,8 C 17,8 C 5,7 km/h 100,00 %
22.04.2019 09:51 17,7 C 52 % 1011,2 hPa 0,0 l/m 1,6 km/h NO 42 1 min 0,000 mm 1,6 UV-I 427 W/m 7,7 C 17,7 C 3,8 km/h 90,91 %
22.04.2019 09:50 17,7 C 52 % 1011,2 hPa 0,0 l/m 0,9 km/h NO 49 1 min 0,000 mm 1,5 UV-I 434 W/m 7,7 C 17,7 C 3,8 km/h 100,00 %
22.04.2019 09:49 17,6 C 52 % 1011,2 hPa 0,0 l/m 2,2 km/h NO 49 1 min 0,000 mm 1,5 UV-I 423 W/m 7,6 C 17,6 C 5,7 km/h 95,65 %
22.04.2019 09:48 17,6 C 52 % 1011,2 hPa 0,0 l/m 3,6 km/h O-NO 65 1 min 0,000 mm 1,5 UV-I 399 W/m 7,6 C 17,6 C 9,6 km/h 100,00 %
22.04.2019 09:47 17,4 C 51 % 1011,2 hPa 0,0 l/m 1,8 km/h O-NO 69 1 min 0,000 mm 1,4 UV-I 387 W/m 7,2 C 17,4 C 3,8 km/h 100,00 %
22.04.2019 09:46 17,4 C 52 % 1011,3 hPa 0,0 l/m 2,2 km/h O-NO 69 1 min 0,000 mm 1,4 UV-I 381 W/m 7,4 C 17,4 C 5,7 km/h 100,00 %
22.04.2019 09:45 17,4 C 52 % 1011,3 hPa 0,0 l/m 2,6 km/h O-NO 61 1 min 0,000 mm 1,4 UV-I 367 W/m 7,4 C 17,4 C 3,8 km/h 100,00 %
22.04.2019 09:44 17,4 C 52 % 1011,3 hPa 0,0 l/m 3,5 km/h O-NO 57 1 min 0,000 mm 1,4 UV-I 354 W/m 7,4 C 17,4 C 5,7 km/h 100,00 %
22.04.2019 09:43 17,4 C 52 % 1011,3 hPa 0,0 l/m 3,1 km/h N 11 1 min 0,000 mm 1,4 UV-I 376 W/m 7,4 C 17,4 C 5,7 km/h 96,30 %
22.04.2019 09:42 17,4 C 51 % 1011,3 hPa 0,0 l/m 4,0 km/h N 11 1 min 0,000 mm 1,5 UV-I 418 W/m 7,2 C 17,4 C 7,7 km/h 100,00 %
22.04.2019 09:41 17,5 C 51 % 1011,3 hPa 0,0 l/m 7,0 km/h N 9 1 min 0,000 mm 1,5 UV-I 441 W/m 7,3 C 17,2 C 7,7 km/h 100,00 %
22.04.2019 09:40 17,5 C 52 % 1011,3 hPa 0,0 l/m 1,4 km/h NO 34 1 min 0,000 mm 1,5 UV-I 445 W/m 7,5 C 17,5 C 3,8 km/h 100,00 %
22.04.2019 09:39 17,5 C 52 % 1011,3 hPa 0,0 l/m 3,4 km/h O-NO 63 1 min 0,000 mm 1,5 UV-I 454 W/m 7,5 C 17,5 C 7,7 km/h 100,00 %
22.04.2019 09:38 17,4 C 52 % 1011,3 hPa 0,0 l/m 1,9 km/h O 80 1 min 0,000 mm 1,5 UV-I 460 W/m 7,4 C 17,4 C 5,7 km/h 100,00 %
22.04.2019 09:37 17,3 C 52 % 1011,3 hPa 0,0 l/m 0,5 km/h NO 49 1 min 0,000 mm 1,5 UV-I 462 W/m 7,3 C 17,3 C 1,9 km/h 100,00 %
22.04.2019 09:36 17,3 C 52 % 1011,3 hPa 0,0 l/m 2,2 km/h NO 49 1 min 0,000 mm 1,5 UV-I 465 W/m 7,3 C 17,3 C 3,8 km/h 100,00 %
22.04.2019 09:35 17,3 C 52 % 1011,3 hPa 0,0 l/m 4,0 km/h NO 50 1 min 0,000 mm 1,4 UV-I 445 W/m 7,3 C 17,3 C 11,5 km/h 100,00 %
22.04.2019 09:34 17,3 C 53 % 1011,3 hPa 0,0 l/m 2,7 km/h O 91 1 min 0,000 mm 1,4 UV-I 410 W/m 7,6 C 17,3 C 7,7 km/h 100,00 %
22.04.2019 09:33 17,2 C 53 % 1011,3 hPa 0,0 l/m 2,9 km/h O 98 1 min 0,000 mm 1,3 UV-I 397 W/m 7,5 C 17,2 C 7,7 km/h 100,00 %
22.04.2019 09:32 17,2 C 53 % 1011,3 hPa 0,0 l/m 2,3 km/h O 98 1 min 0,000 mm 1,4 UV-I 405 W/m 7,5 C 17,2 C 3,8 km/h 100,00 %
22.04.2019 09:31 17,2 C 53 % 1011,3 hPa 0,0 l/m 2,7 km/h O 98 1 min 0,000 mm 1,4 UV-I 418 W/m 7,5 C 17,2 C 7,7 km/h 100,00 %
22.04.2019 09:30 17,1 C 53 % 1011,3 hPa 0,0 l/m 3,0 km/h O 81 1 min 0,000 mm 1,3 UV-I 414 W/m 7,4 C 17,1 C 5,7 km/h 100,00 %
22.04.2019 09:29 17,1 C 53 % 1011,3 hPa 0,0 l/m 2,3 km/h O-NO 71 1 min 0,000 mm 1,3 UV-I 416 W/m 7,4 C 17,1 C 5,7 km/h 100,00 %
22.04.2019 09:28 17,0 C 53 % 1011,3 hPa 0,0 l/m 2,2 km/h O-NO 67 1 min 0,000 mm 1,3 UV-I 423 W/m 7,4 C 17,0 C 5,7 km/h 100,00 %
22.04.2019 09:27 16,9 C 54 % 1011,3 hPa 0,0 l/m 1,5 km/h O-NO 61 1 min 0,000 mm 1,3 UV-I 413 W/m 7,5 C 16,9 C 5,7 km/h 100,00 %
22.04.2019 09:26 16,8 C 53 % 1011,3 hPa 0,0 l/m 1,9 km/h O-NO 59 1 min 0,000 mm 1,3 UV-I 381 W/m 7,2 C 16,8 C 3,8 km/h 100,00 %
22.04.2019 09:25 16,8 C 53 % 1011,3 hPa 0,0 l/m 1,8 km/h O-NO 61 1 min 0,000 mm 1,2 UV-I 359 W/m 7,2 C 16,8 C 7,7 km/h 100,00 %
22.04.2019 09:24 16,8 C 53 % 1011,3 hPa 0,0 l/m 3,0 km/h O 92 1 min 0,000 mm 1,2 UV-I 366 W/m 7,2 C 16,8 C 3,8 km/h 100,00 %
22.04.2019 09:23 16,8 C 53 % 1011,3 hPa 0,0 l/m 5,6 km/h NO 42 1 min 0,000 mm 1,2 UV-I 306 W/m 7,2 C 16,8 C 9,6 km/h 100,00 %
22.04.2019 09:22 16,8 C 54 % 1011,4 hPa 0,0 l/m 2,7 km/h O 79 1 min 0,000 mm 1,1 UV-I 296 W/m 7,4 C 16,8 C 5,7 km/h 100,00 %
22.04.2019 09:21 16,7 C 54 % 1011,4 hPa 0,0 l/m 1,5 km/h O-NO 67 1 min 0,000 mm 1,2 UV-I 333 W/m 7,3 C 16,7 C 5,7 km/h 100,00 %
22.04.2019 09:20 16,7 C 54 % 1011,4 hPa 0,0 l/m 2,4 km/h N-NO 13 1 min 0,000 mm 1,2 UV-I 381 W/m 7,3 C 16,7 C 5,7 km/h 96,30 %
22.04.2019 09:19 16,6 C 54 % 1011,4 hPa 0,0 l/m 1,5 km/h O-NO 71 1 min 0,000 mm 1,2 UV-I 396 W/m 7,3 C 16,6 C 5,7 km/h 100,00 %
22.04.2019 09:18 16,5 C 54 % 1011,4 hPa 0,0 l/m 0,9 km/h O-NO 75 1 min 0,000 mm 1,2 UV-I 393 W/m 7,2 C 16,5 C 3,8 km/h 100,00 %
22.04.2019 09:17 16,4 C 54 % 1011,4 hPa 0,0 l/m 1,2 km/h O-NO 78 1 min 0,000 mm 1,2 UV-I 384 W/m 7,1 C 16,4 C 3,8 km/h 100,00 %
22.04.2019 09:16 16,3 C 54 % 1011,4 hPa 0,0 l/m 0,7 km/h O-NO 67 1 min 0,000 mm 1,1 UV-I 374 W/m 7,0 C 16,3 C 5,7 km/h 95,65 %
22.04.2019 09:15 16,3 C 55 % 1011,4 hPa 0,0 l/m 3,5 km/h O-NO 67 1 min 0,000 mm 1,1 UV-I 369 W/m 7,2 C 16,3 C 7,7 km/h 100,00 %
22.04.2019 09:14 16,3 C 55 % 1011,5 hPa 0,0 l/m 0,4 km/h O 90 1 min 0,000 mm 1,1 UV-I 357 W/m 7,2 C 16,3 C 1,9 km/h 100,00 %
22.04.2019 09:13 16,2 C 55 % 1011,5 hPa 0,0 l/m 1,8 km/h O 90 1 min 0,000 mm 1,1 UV-I 339 W/m 7,2 C 16,2 C 3,8 km/h 100,00 %
22.04.2019 09:12 16,2 C 55 % 1011,5 hPa 0,0 l/m 3,4 km/h O 90 1 min 0,000 mm 1,1 UV-I 312 W/m 7,2 C 16,2 C 5,7 km/h 100,00 %
22.04.2019 09:11 16,2 C 54 % 1011,5 hPa 0,0 l/m 4,1 km/h O 82 1 min 0,000 mm 1,1 UV-I 309 W/m 6,9 C 16,2 C 7,7 km/h 100,00 %
22.04.2019 09:10 16,2 C 55 % 1011,5 hPa 0,0 l/m 5,2 km/h O 88 1 min 0,000 mm 1,1 UV-I 353 W/m 7,2 C 16,2 C 9,6 km/h 100,00 %
22.04.2019 09:09 16,2 C 55 % 1011,5 hPa 0,0 l/m 4,4 km/h O 85 1 min 0,000 mm 1,1 UV-I 360 W/m 7,2 C 16,2 C 7,7 km/h 100,00 %
22.04.2019 09:08 16,2 C 55 % 1011,5 hPa 0,0 l/m 2,8 km/h O-NO 77 1 min 0,000 mm 1,1 UV-I 374 W/m 7,2 C 16,2 C 5,7 km/h 100,00 %
22.04.2019 09:07 16,1 C 55 % 1011,5 hPa 0,0 l/m 2,0 km/h O-NO 73 1 min 0,000 mm 1,1 UV-I 369 W/m 7,1 C 16,1 C 3,8 km/h 100,00 %
22.04.2019 09:06 16,0 C 56 % 1011,5 hPa 0,0 l/m 1,4 km/h O-NO 69 1 min 0,000 mm 1,1 UV-I 370 W/m 7,2 C 16,0 C 3,8 km/h 100,00 %
22.04.2019 09:05 15,9 C 56 % 1011,5 hPa 0,0 l/m 2,3 km/h O-NO 63 1 min 0,000 mm 1,1 UV-I 366 W/m 7,1 C 15,9 C 3,8 km/h 100,00 %
22.04.2019 09:04 15,8 C 56 % 1011,5 hPa 0,0 l/m 0,5 km/h O-NO 57 1 min 0,000 mm 1,1 UV-I 369 W/m 7,0 C 15,8 C 1,9 km/h 100,00 %
22.04.2019 09:03 15,8 C 57 % 1011,5 hPa 0,0 l/m 3,0 km/h O-NO 60 1 min 0,000 mm 1,1 UV-I 372 W/m 7,3 C 15,8 C 5,7 km/h 100,00 %
22.04.2019 09:02 15,7 C 57 % 1011,5 hPa 0,0 l/m 1,1 km/h NO 51 1 min 0,001 mm 1,0 UV-I 371 W/m 7,2 C 15,7 C 1,9 km/h 100,00 %
22.04.2019 09:01 15,6 C 57 % 1011,5 hPa 0,0 l/m 1,5 km/h NO 51 1 min 0,152 mm 1,0 UV-I 368 W/m 7,1 C 15,6 C 5,7 km/h 100,00 %
22.04.2019 09:00 15,5 C 57 % 1011,5 hPa 0,0 l/m 0,9 km/h NO 50 1 min 0,000 mm 1,0 UV-I 365 W/m 7,0 C 15,5 C 5,7 km/h 95,83 %
22.04.2019 08:59 15,4 C 57 % 1011,5 hPa 0,0 l/m 0,3 km/h O 94 1 min 0,000 mm 1,0 UV-I 361 W/m 6,9 C 15,4 C 3,8 km/h 100,00 %
22.04.2019 08:58 15,4 C 57 % 1011,5 hPa 0,0 l/m 1,2 km/h O 94 1 min 0,000 mm 1,0 UV-I 356 W/m 6,9 C 15,4 C 3,8 km/h 100,00 %
22.04.2019 08:57 15,3 C 57 % 1011,5 hPa 0,0 l/m 1,0 km/h O 94 1 min 0,000 mm 1,0 UV-I 352 W/m 6,8 C 15,3 C 3,8 km/h 100,00 %
22.04.2019 08:56 15,3 C 58 % 1011,5 hPa 0,0 l/m 1,7 km/h O 95 1 min 0,000 mm 0,9 UV-I 349 W/m 7,1 C 15,3 C 3,8 km/h 96,15 %
22.04.2019 08:55 15,3 C 58 % 1011,5 hPa 0,0 l/m 4,9 km/h O 95 1 min 0,000 mm 0,9 UV-I 343 W/m 7,1 C 15,3 C 7,7 km/h 96,15 %
22.04.2019 08:54 15,2 C 58 % 1011,5 hPa 0,0 l/m 3,7 km/h O 86 1 min 0,000 mm 0,9 UV-I 336 W/m 7,0 C 15,2 C 7,7 km/h 100,00 %
22.04.2019 08:53 15,1 C 58 % 1011,5 hPa 0,0 l/m 1,1 km/h O-NO 71 1 min 0,000 mm 0,9 UV-I 334 W/m 6,9 C 15,1 C 3,8 km/h 100,00 %
22.04.2019 08:52 15,1 C 59 % 1011,5 hPa 0,0 l/m 0,7 km/h O-NO 71 1 min 0,000 mm 0,9 UV-I 330 W/m 7,1 C 15,1 C 3,8 km/h 95,65 %
22.04.2019 08:51 15,0 C 59 % 1011,5 hPa 0,0 l/m 0,7 km/h O-NO 71 1 min 0,000 mm 0,9 UV-I 324 W/m 7,1 C 15,0 C 1,9 km/h 100,00 %
22.04.2019 08:50 14,9 C 59 % 1011,5 hPa 0,0 l/m 0,3 km/h O-NO 71 1 min 0,000 mm 0,8 UV-I 319 W/m 7,0 C 14,9 C 1,9 km/h 96,55 %
22.04.2019 08:49 14,8 C 59 % 1011,5 hPa 0,0 l/m 2,6 km/h O-NO 71 1 min 0,000 mm 0,8 UV-I 315 W/m 6,9 C 14,8 C 5,7 km/h 100,00 %
22.04.2019 08:48 14,8 C 59 % 1011,5 hPa 0,0 l/m 2,9 km/h O 80 1 min 0,000 mm 0,8 UV-I 302 W/m 6,9 C 14,8 C 7,7 km/h 100,00 %
22.04.2019 08:47 14,7 C 59 % 1011,5 hPa 0,0 l/m 1,9 km/h O-NO 63 1 min 0,000 mm 0,8 UV-I 306 W/m 6,8 C 14,7 C 3,8 km/h 96,43 %
22.04.2019 08:46 14,7 C 59 % 1011,5 hPa 0,0 l/m 3,0 km/h N-NO 22 1 min 0,000 mm 0,8 UV-I 307 W/m 6,8 C 14,7 C 5,7 km/h 95,65 %
22.04.2019 08:45 14,6 C 59 % 1011,5 hPa 0,0 l/m 1,8 km/h O-NO 62 1 min 0,000 mm 0,8 UV-I 302 W/m 6,7 C 14,6 C 3,8 km/h 100,00 %
22.04.2019 08:44 14,5 C 60 % 1011,5 hPa 0,0 l/m 2,6 km/h NO 45 1 min 0,000 mm 0,8 UV-I 299 W/m 6,8 C 14,5 C 5,7 km/h 96,15 %
22.04.2019 08:43 14,5 C 60 % 1011,5 hPa 0,0 l/m 1,2 km/h O 93 1 min 0,000 mm 0,8 UV-I 294 W/m 6,8 C 14,5 C 1,9 km/h 100,00 %
22.04.2019 08:42 14,4 C 60 % 1011,5 hPa 0,0 l/m 5,3 km/h O 98 1 min 0,000 mm 0,7 UV-I 289 W/m 6,7 C 14,4 C 11,5 km/h 96,30 %
22.04.2019 08:41 14,4 C 60 % 1011,5 hPa 0,0 l/m 6,0 km/h O 80 0 min 0,000 mm 0,7 UV-I 286 W/m 6,7 C 14,4 C 11,5 km/h 100,00 %
22.04.2019 08:40 14,4 C 60 % 1011,5 hPa 0,0 l/m 5,3 km/h O 86 0 min 0,000 mm 0,7 UV-I 287 W/m 6,7 C 14,4 C 7,7 km/h 96,15 %
22.04.2019 08:39 14,4 C 60 % 1011,5 hPa 0,0 l/m 5,5 km/h O 81 0 min 0,000 mm 0,7 UV-I 287 W/m 6,7 C 14,4 C 13,4 km/h 96,30 %
22.04.2019 08:38 14,4 C 60 % 1011,5 hPa 0,0 l/m 6,5 km/h O-SO 103 0 min 0,000 mm 0,7 UV-I 285 W/m 6,7 C 14,4 C 13,4 km/h 97,56 %
22.04.2019 08:37 14,3 C 60 % 1011,4 hPa 0,0 l/m 4,6 km/h O-NO 68 0 min 0,000 mm 0,7 UV-I 285 W/m 6,6 C 14,3 C 7,7 km/h 98,42 %
22.04.2019 08:36 14,3 C 61 % 1011,5 hPa 0,0 l/m 3,3 km/h O 89 0 min 0,000 mm 0,7 UV-I 283 W/m 6,9 C 14,3 C 7,7 km/h 100,00 %
22.04.2019 08:35 14,2 C 61 % 1011,5 hPa 0,0 l/m 4,5 km/h NO 51 0 min 0,000 mm 0,7 UV-I 281 W/m 6,8 C 14,2 C 9,6 km/h 96,30 %
22.04.2019 08:34 14,1 C 61 % 1011,5 hPa 0,0 l/m 3,8 km/h O 85 0 min 0,000 mm 0,7 UV-I 280 W/m 6,7 C 14,1 C 7,7 km/h 96,30 %
22.04.2019 08:33 14,1 C 61 % 1011,5 hPa 0,0 l/m 1,5 km/h NO 52 0 min 0,000 mm 0,7 UV-I 275 W/m 6,7 C 14,1 C 7,7 km/h 100,00 %
22.04.2019 08:32 13,9 C 62 % 1011,4 hPa 0,0 l/m 2,7 km/h NO 55 0 min 0,000 mm 0,7 UV-I 272 W/m 6,7 C 13,9 C 5,7 km/h 100,00 %
22.04.2019 08:31 13,9 C 62 % 1011,4 hPa 0,0 l/m 1,7 km/h O 94 0 min 0,000 mm 0,6 UV-I 269 W/m 6,7 C 13,9 C 3,8 km/h 95,83 %
22.04.2019 08:30 13,8 C 62 % 1011,4 hPa 0,0 l/m 3,8 km/h O 94 0 min 0,000 mm 0,6 UV-I 264 W/m 6,6 C 13,8 C 7,7 km/h 95,65 %
22.04.2019 08:29 13,8 C 62 % 1011,4 hPa 0,0 l/m 1,6 km/h N-NO 32 0 min 0,000 mm 0,6 UV-I 261 W/m 6,6 C 13,8 C 5,7 km/h 100,00 %
22.04.2019 08:28 13,8 C 62 % 1011,5 hPa 0,0 l/m 2,5 km/h N-NO 26 0 min 0,000 mm 0,6 UV-I 258 W/m 6,6 C 13,8 C 7,7 km/h 95,83 %
22.04.2019 08:27 13,7 C 62 % 1011,4 hPa 0,0 l/m 5,3 km/h O-NO 57 0 min 0,000 mm 0,6 UV-I 254 W/m 6,6 C 13,7 C 9,6 km/h 100,00 %
22.04.2019 08:26 13,7 C 62 % 1011,5 hPa 0,0 l/m 2,4 km/h O-NO 61 0 min 0,000 mm 0,6 UV-I 250 W/m 6,6 C 13,7 C 7,7 km/h 91,30 %
22.04.2019 08:25 13,6 C 62 % 1011,4 hPa 0,0 l/m 2,3 km/h O-NO 69 0 min 0,000 mm 0,6 UV-I 246 W/m 6,5 C 13,6 C 3,8 km/h 100,00 %
22.04.2019 08:24 13,6 C 62 % 1011,5 hPa 0,0 l/m 1,7 km/h O-NO 61 0 min 0,000 mm 0,6 UV-I 242 W/m 6,5 C 13,6 C 5,7 km/h 96,15 %
22.04.2019 08:23 13,5 C 63 % 1011,4 hPa 0,0 l/m 1,6 km/h O 81 0 min 0,000 mm 0,6 UV-I 238 W/m 6,6 C 13,5 C 3,8 km/h 100,00 %
22.04.2019 08:22 13,4 C 63 % 1011,5 hPa 0,0 l/m 1,5 km/h O-NO 76 0 min 0,000 mm 0,5 UV-I 235 W/m 6,5 C 13,4 C 3,8 km/h 95,65 %
22.04.2019 08:21 13,4 C 63 % 1011,5 hPa 0,0 l/m 3,4 km/h O 82 0 min 0,000 mm 0,5 UV-I 233 W/m 6,5 C 13,4 C 5,7 km/h 95,83 %
22.04.2019 08:20 13,3 C 63 % 1011,5 hPa 0,0 l/m 1,7 km/h NO 47 0 min 0,000 mm 0,5 UV-I 229 W/m 6,4 C 13,3 C 3,8 km/h 100,00 %
22.04.2019 08:19 13,3 C 63 % 1011,5 hPa 0,0 l/m 1,6 km/h O-NO 70 0 min 0,000 mm 0,5 UV-I 226 W/m 6,4 C 13,3 C 5,7 km/h 95,83 %
22.04.2019 08:18 13,2 C 63 % 1011,4 hPa 0,0 l/m 0,5 km/h O-NO 75 0 min 0,000 mm 0,5 UV-I 222 W/m 6,3 C 13,2 C 1,9 km/h 100,00 %
22.04.2019 08:17 13,2 C 64 % 1011,5 hPa 0,0 l/m 1,2 km/h O-NO 76 0 min 0,000 mm 0,5 UV-I 220 W/m 6,5 C 13,2 C 3,8 km/h 92,31 %
22.04.2019 08:16 13,1 C 64 % 1011,5 hPa 0,0 l/m 3,4 km/h N-NO 32 0 min 0,000 mm 0,5 UV-I 218 W/m 6,4 C 13,1 C 7,7 km/h 95,83 %
22.04.2019 08:15 13,1 C 64 % 1011,5 hPa 0,0 l/m 2,7 km/h N-NO 33 0 min 0,000 mm 0,5 UV-I 215 W/m 6,4 C 13,1 C 7,7 km/h 95,65 %
22.04.2019 08:14 13,0 C 64 % 1011,5 hPa 0,0 l/m 2,2 km/h O 79 0 min 0,000 mm 0,5 UV-I 213 W/m 6,4 C 13,0 C 5,7 km/h 96,00 %
22.04.2019 08:13 12,9 C 64 % 1011,5 hPa 0,0 l/m 3,7 km/h O-NO 67 0 min 0,000 mm 0,5 UV-I 209 W/m 6,3 C 12,9 C 9,6 km/h 100,00 %
22.04.2019 08:12 12,9 C 64 % 1011,5 hPa 0,0 l/m 2,6 km/h NO 42 0 min 0,000 mm 0,2 UV-I 208 W/m 6,3 C 12,9 C 5,7 km/h 96,15 %
22.04.2019 08:11 12,8 C 64 % 1011,5 hPa 0,0 l/m 1,9 km/h O-NO 65 0 min 0,000 mm 0,0 UV-I 205 W/m 6,2 C 12,8 C 5,7 km/h 100,00 %
22.04.2019 08:10 12,8 C 64 % 1011,5 hPa 0,0 l/m 2,2 km/h O-NO 78 0 min 0,000 mm 0,0 UV-I 203 W/m 6,2 C 12,8 C 5,7 km/h 91,67 %
22.04.2019 08:09 12,7 C 64 % 1011,5 hPa 0,0 l/m 3,9 km/h O 80 0 min 0,000 mm 0,0 UV-I 200 W/m 6,1 C 12,7 C 7,7 km/h 100,00 %
22.04.2019 08:08 12,7 C 65 % 1011,5 hPa 0,0 l/m 4,5 km/h O-NO 71 0 min 0,000 mm 0,0 UV-I 199 W/m 6,3 C 12,7 C 7,7 km/h 91,67 %
22.04.2019 08:07 12,6 C 65 % 1011,5 hPa 0,0 l/m 2,9 km/h O 88 0 min 0,000 mm 0,0 UV-I 195 W/m 6,2 C 12,6 C 7,7 km/h 100,00 %
22.04.2019 08:06 12,6 C 65 % 1011,5 hPa 0,0 l/m 2,3 km/h O 86 0 min 0,000 mm 0,0 UV-I 192 W/m 6,2 C 12,6 C 5,7 km/h 96,30 %
22.04.2019 08:05 12,5 C 65 % 1011,5 hPa 0,0 l/m 1,0 km/h O 100 0 min 0,000 mm 0,0 UV-I 190 W/m 6,1 C 12,5 C 3,8 km/h 94,12 %
22.04.2019 08:04 12,4 C 65 % 1011,5 hPa 0,0 l/m 0,2 km/h O 100 0 min 0,000 mm 0,0 UV-I 186 W/m 6,0 C 12,4 C 1,9 km/h 100,00 %
22.04.2019 08:03 12,3 C 66 % 1011,5 hPa 0,0 l/m 0,8 km/h O 100 0 min 0,000 mm 0,0 UV-I 184 W/m 6,1 C 12,3 C 5,7 km/h 95,65 %
22.04.2019 08:02 12,3 C 66 % 1011,5 hPa 0,0 l/m 5,4 km/h O 100 0 min 0,000 mm 0,0 UV-I 179 W/m 6,1 C 12,3 C 11,5 km/h 100,00 %
22.04.2019 08:01 12,2 C 66 % 1011,5 hPa 0,0 l/m 1,1 km/h O-NO 63 0 min 0,000 mm 0,0 UV-I 176 W/m 6,0 C 12,2 C 3,8 km/h 96,15 %
22.04.2019 08:00 12,2 C 66 % 1011,5 hPa 0,0 l/m 0,5 km/h O-NO 59 0 min 0,051 mm 0,0 UV-I 173 W/m 6,0 C 12,2 C 3,8 km/h 100,00 %
22.04.2019 07:59 12,1 C 67 % 1011,5 hPa 0,0 l/m 2,5 km/h O 92 0 min 0,000 mm 0,0 UV-I 170 W/m 6,2 C 12,1 C 5,7 km/h 92,31 %
22.04.2019 07:58 12,0 C 67 % 1011,5 hPa 0,0 l/m 2,1 km/h O 82 0 min 0,000 mm 0,0 UV-I 166 W/m 6,1 C 12,0 C 3,8 km/h 95,83 %
22.04.2019 07:57 11,9 C 67 % 1011,5 hPa 0,0 l/m 2,0 km/h O 82 0 min 0,000 mm 0,0 UV-I 163 W/m 6,0 C 11,9 C 7,7 km/h 100,00 %
22.04.2019 07:56 11,8 C 67 % 1011,6 hPa 0,0 l/m 0,9 km/h O-NO 74 0 min 0,000 mm 0,0 UV-I 160 W/m 5,9 C 11,8 C 3,8 km/h 100,00 %
22.04.2019 07:55 11,8 C 68 % 1011,5 hPa 0,0 l/m 0,3 km/h O-NO 76 0 min 0,000 mm 0,0 UV-I 156 W/m 6,1 C 11,8 C 1,9 km/h 96,30 %
22.04.2019 07:54 11,7 C 67 % 1011,6 hPa 0,0 l/m 1,4 km/h O-NO 76 0 min 0,000 mm 0,0 UV-I 154 W/m 5,8 C 11,7 C 3,8 km/h 95,65 %
22.04.2019 07:53 11,7 C 68 % 1011,6 hPa 0,0 l/m 1,5 km/h O-NO 73 0 min 0,000 mm 0,0 UV-I 151 W/m 6,0 C 11,7 C 3,8 km/h 97,56 %
22.04.2019 07:52 11,6 C 69 % 1011,6 hPa 0,0 l/m 1,9 km/h O-NO 74 0 min 0,000 mm 0,0 UV-I 147 W/m 6,1 C 11,6 C 5,7 km/h 100,00 %
22.04.2019 07:51 11,5 C 69 % 1011,6 hPa 0,0 l/m 0,9 km/h O 86 0 min 0,000 mm 0,0 UV-I 143 W/m 6,0 C 11,5 C 3,8 km/h 100,00 %
22.04.2019 07:50 11,4 C 69 % 1011,6 hPa 0,0 l/m 2,8 km/h O 94 0 min 0,000 mm 0,0 UV-I 141 W/m 5,9 C 11,4 C 7,7 km/h 95,83 %
22.04.2019 07:49 11,3 C 69 % 1011,6 hPa 0,0 l/m 3,9 km/h O-NO 65 0 min 0,000 mm 0,0 UV-I 136 W/m 5,8 C 11,3 C 7,7 km/h 95,83 %
22.04.2019 07:48 11,3 C 69 % 1011,6 hPa 0,0 l/m 1,3 km/h O-NO 58 0 min 0,000 mm 0,0 UV-I 134 W/m 5,8 C 11,3 C 1,9 km/h 95,65 %
22.04.2019 07:47 11,2 C 69 % 1011,6 hPa 0,0 l/m 1,5 km/h O-NO 58 0 min 0,000 mm 0,0 UV-I 131 W/m 5,7 C 11,2 C 3,8 km/h 95,83 %
22.04.2019 07:46 11,2 C 69 % 1011,7 hPa 0,0 l/m 1,4 km/h O-NO 58 0 min 0,000 mm 0,0 UV-I 128 W/m 5,7 C 11,2 C 3,8 km/h 100,00 %
22.04.2019 07:45 11,1 C 69 % 1011,7 hPa 0,0 l/m 2,1 km/h O-NO 57 0 min 0,000 mm 0,0 UV-I 124 W/m 5,6 C 11,1 C 3,8 km/h 95,83 %
22.04.2019 07:44 11,1 C 69 % 1011,7 hPa 0,0 l/m 3,4 km/h O-NO 57 0 min 0,000 mm 0,0 UV-I 121 W/m 5,6 C 11,1 C 5,7 km/h 96,15 %
22.04.2019 07:43 11,1 C 69 % 1011,6 hPa 0,0 l/m 1,7 km/h O-NO 57 0 min 0,000 mm 0,0 UV-I 117 W/m 5,6 C 11,1 C 3,8 km/h 95,83 %
22.04.2019 07:42 11,1 C 70 % 1011,6 hPa 0,0 l/m 1,4 km/h O-NO 57 0 min 0,000 mm 0,0 UV-I 115 W/m 5,8 C 11,1 C 3,8 km/h 96,15 %
22.04.2019 07:41 11,0 C 70 % 1011,6 hPa 0,0 l/m 1,1 km/h O-NO 57 0 min 0,000 mm 0,0 UV-I 112 W/m 5,7 C 11,0 C 3,8 km/h 100,00 %
22.04.2019 07:40 11,0 C 70 % 1011,6 hPa 0,0 l/m 0,9 km/h O-NO 57 0 min 0,000 mm 0,0 UV-I 99 W/m 5,7 C 11,0 C 1,9 km/h 96,55 %
22.04.2019 07:39 10,9 C 70 % 1011,6 hPa 0,0 l/m 3,3 km/h O-NO 57 0 min 0,000 mm 0,0 UV-I 75 W/m 5,6 C 10,9 C 5,7 km/h 100,00 %
22.04.2019 07:38 10,9 C 70 % 1011,6 hPa 0,0 l/m 2,1 km/h O-NO 59 0 min 0,000 mm 0,0 UV-I 52 W/m 5,6 C 10,9 C 5,7 km/h 96,15 %
22.04.2019 07:37 10,8 C 70 % 1011,6 hPa 0,0 l/m 3,5 km/h O-NO 57 0 min 0,000 mm 0,0 UV-I 43 W/m 5,6 C 10,8 C 5,7 km/h 100,00 %
22.04.2019 07:36 10,8 C 71 % 1011,6 hPa 0,0 l/m 1,2 km/h NO 56 0 min 0,000 mm 0,0 UV-I 42 W/m 5,8 C 10,8 C 3,8 km/h 96,30 %
22.04.2019 07:35 10,8 C 71 % 1011,6 hPa 0,0 l/m 1,9 km/h NO 56 0 min 0,000 mm 0,0 UV-I 42 W/m 5,8 C 10,8 C 3,8 km/h 100,00 %
22.04.2019 07:34 10,7 C 71 % 1011,6 hPa 0,0 l/m 1,5 km/h NO 52 0 min 0,000 mm 0,0 UV-I 42 W/m 5,7 C 10,7 C 5,7 km/h 96,55 %
22.04.2019 07:33 10,7 C 72 % 1011,6 hPa 0,0 l/m 2,0 km/h NO 50 0 min 0,000 mm 0,0 UV-I 40 W/m 5,9 C 10,7 C 3,8 km/h 100,00 %
22.04.2019 07:32 10,6 C 72 % 1011,6 hPa 0,0 l/m 1,4 km/h NO 38 0 min 0,000 mm 0,0 UV-I 40 W/m 5,8 C 10,6 C 3,8 km/h 95,65 %
22.04.2019 07:31 10,6 C 72 % 1011,6 hPa 0,0 l/m 1,3 km/h NO 38 0 min 0,000 mm 0,0 UV-I 39 W/m 5,8 C 10,6 C 3,8 km/h 100,00 %
22.04.2019 07:30 10,5 C 72 % 1011,6 hPa 0,0 l/m 2,9 km/h NO 38 0 min 0,000 mm 0,0 UV-I 39 W/m 5,7 C 10,5 C 5,7 km/h 95,65 %
22.04.2019 07:29 10,5 C 72 % 1011,6 hPa 0,0 l/m 1,5 km/h N-NO 26 0 min 0,000 mm 0,0 UV-I 39 W/m 5,7 C 10,5 C 3,8 km/h 96,30 %
22.04.2019 07:28 10,4 C 73 % 1011,6 hPa 0,0 l/m 1,4 km/h N-NO 26 0 min 0,000 mm 0,0 UV-I 38 W/m 5,8 C 10,4 C 3,8 km/h 100,00 %
22.04.2019 07:27 10,4 C 73 % 1011,6 hPa 0,0 l/m 0,6 km/h N-NO 24 0 min 0,000 mm 0,0 UV-I 37 W/m 5,8 C 10,4 C 1,9 km/h 95,83 %
22.04.2019 07:26 10,3 C 73 % 1011,6 hPa 0,0 l/m 0,3 km/h N-NO 24 0 min 0,000 mm 0,0 UV-I 37 W/m 5,7 C 10,3 C 1,9 km/h 100,00 %
22.04.2019 07:25 10,3 C 73 % 1011,6 hPa 0,0 l/m 1,0 km/h N-NO 24 0 min 0,000 mm 0,0 UV-I 35 W/m 5,7 C 10,3 C 3,8 km/h 95,83 %
22.04.2019 07:24 10,2 C 73 % 1011,6 hPa 0,0 l/m 0,5 km/h N-NO 24 0 min 0,000 mm 0,0 UV-I 35 W/m 5,6 C 10,2 C 3,8 km/h 100,00 %
22.04.2019 07:23 10,2 C 73 % 1011,6 hPa 0,0 l/m 0,2 km/h N-NO 22 0 min 0,000 mm 0,0 UV-I 34 W/m 5,6 C 10,2 C 1,9 km/h 95,83 %
22.04.2019 07:22 10,2 C 73 % 1011,6 hPa 0,0 l/m 0,2 km/h N-NO 22 0 min 0,000 mm 0,0 UV-I 33 W/m 5,6 C 10,2 C 1,9 km/h 100,00 %
22.04.2019 07:21 10,1 C 74 % 1011,6 hPa 0,0 l/m 0,1 km/h N-NO 22 0 min 0,000 mm 0,0 UV-I 33 W/m 5,7 C 10,1 C 1,9 km/h 100,00 %
22.04.2019 07:20 10,1 C 74 % 1011,6 hPa 0,0 l/m 0,3 km/h N-NO 22 0 min 0,000 mm 0,0 UV-I 33 W/m 5,7 C 10,1 C 1,9 km/h 92,31 %
22.04.2019 07:19 10,1 C 74 % 1011,6 hPa 0,0 l/m 0,8 km/h N-NO 22 0 min 0,000 mm 0,0 UV-I 32 W/m 5,7 C 10,1 C 3,8 km/h 100,00 %
22.04.2019 07:18 10,0 C 74 % 1011,6 hPa 0,0 l/m 0,8 km/h N-NO 25 0 min 0,000 mm 0,0 UV-I 32 W/m 5,6 C 10,0 C 1,9 km/h 100,00 %
22.04.2019 07:17 9,9 C 75 % 1011,6 hPa 0,0 l/m 0,7 km/h N-NO 25 0 min 0,000 mm 0,0 UV-I 32 W/m 5,7 C 9,9 C 1,9 km/h 100,00 %
22.04.2019 07:16 9,8 C 75 % 1011,6 hPa 0,0 l/m 0,6 km/h N-NO 25 0 min 0,000 mm 0,0 UV-I 30 W/m 5,6 C 9,8 C 1,9 km/h 100,00 %
22.04.2019 07:15 9,8 C 75 % 1011,6 hPa 0,0 l/m 0,8 km/h N-NO 25 0 min 0,000 mm 0,0 UV-I 30 W/m 5,6 C 9,8 C 3,8 km/h 100,00 %
22.04.2019 07:14 9,7 C 75 % 1011,6 hPa 0,0 l/m 0,8 km/h N-NO 20 0 min 0,000 mm 0,0 UV-I 30 W/m 5,5 C 9,7 C 3,8 km/h 100,00 %
22.04.2019 07:13 9,7 C 75 % 1011,6 hPa 0,0 l/m 0,7 km/h N-NO 20 0 min 0,000 mm 0,0 UV-I 29 W/m 5,5 C 9,7 C 1,9 km/h 100,00 %
22.04.2019 07:12 9,7 C 76 % 1011,6 hPa 0,0 l/m 0,4 km/h N-NO 20 0 min 0,000 mm 0,0 UV-I 28 W/m 5,7 C 9,7 C 1,9 km/h 100,00 %
22.04.2019 07:11 9,6 C 76 % 1011,6 hPa 0,0 l/m 0,1 km/h N-NO 20 0 min 0,000 mm 0,0 UV-I 28 W/m 5,6 C 9,6 C 1,9 km/h 91,67 %
22.04.2019 07:10 9,6 C 76 % 1011,7 hPa 0,0 l/m 0,1 km/h N-NO 20 0 min 0,000 mm 0,0 UV-I 26 W/m 5,6 C 9,6 C 1,9 km/h 100,00 %
22.04.2019 07:09 9,5 C 76 % 1011,6 hPa 0,0 l/m 0,2 km/h N-NO 20 0 min 0,000 mm 0,0 UV-I 26 W/m 5,5 C 9,5 C 1,9 km/h 95,65 %
22.04.2019 07:08 9,4 C 76 % 1011,7 hPa 0,0 l/m 0,0 km/h N-NO 20 0 min 0,000 mm 0,0 UV-I 26 W/m 5,4 C 9,4 C 0,0 km/h 100,00 %
22.04.2019 07:07 9,4 C 76 % 1011,7 hPa 0,0 l/m 0,3 km/h N-NO 20 0 min 0,000 mm 0,0 UV-I 26 W/m 5,4 C 9,4 C 1,9 km/h 100,00 %
22.04.2019 07:06 9,3 C 77 % 1011,7 hPa 0,0 l/m 0,2 km/h N-NO 20 0 min 0,000 mm 0,0 UV-I 25 W/m 5,5 C 9,3 C 1,9 km/h 100,00 %
22.04.2019 07:05 9,3 C 76 % 1011,7 hPa 0,0 l/m 0,0 km/h N-NO 20 0 min 0,000 mm 0,0 UV-I 25 W/m 5,3 C 9,3 C 0,0 km/h 100,00 %
22.04.2019 07:04 9,3 C 77 % 1011,7 hPa 0,0 l/m 0,7 km/h N-NO 20 0 min 0,000 mm 0,0 UV-I 25 W/m 5,5 C 9,3 C 3,8 km/h 100,00 %
22.04.2019 07:03 9,2 C 77 % 1011,7 hPa 0,0 l/m 0,1 km/h N-NO 20 0 min 0,000 mm 0,0 UV-I 23 W/m 5,4 C 9,2 C 1,9 km/h 100,00 %
22.04.2019 07:02 9,2 C 77 % 1011,7 hPa 0,0 l/m 0,0 km/h N-NO 20 0 min 0,000 mm 0,0 UV-I 23 W/m 5,4 C 9,2 C 0,0 km/h 95,83 %
22.04.2019 07:01 9,1 C 77 % 1011,7 hPa 0,0 l/m 0,0 km/h N-NO 20 0 min 0,000 mm 0,0 UV-I 23 W/m 5,3 C 9,1 C 0,0 km/h 100,00 %
22.04.2019 07:00 9,1 C 77 % 1011,7 hPa 0,0 l/m 0,0 km/h N-NO 20 0 min 0,000 mm 0,0 UV-I 22 W/m 5,3 C 9,1 C 0,0 km/h 100,00 %
22.04.2019 06:59 9,1 C 77 % 1011,7 hPa 0,0 l/m 0,4 km/h N-NO 20 0 min 0,000 mm 0,0 UV-I 21 W/m 5,3 C 9,1 C 1,9 km/h 100,00 %
22.04.2019 06:58 9,0 C 77 % 1011,7 hPa 0,0 l/m 0,1 km/h N-NO 20 0 min 0,000 mm 0,0 UV-I 21 W/m 5,2 C 9,0 C 1,9 km/h 100,00 %
22.04.2019 06:57 8,9 C 77 % 1011,7 hPa 0,0 l/m 0,1 km/h N-NO 20 0 min 0,000 mm 0,0 UV-I 21 W/m 5,1 C 8,9 C 1,9 km/h 100,00 %
22.04.2019 06:56 8,9 C 77 % 1011,7 hPa 0,0 l/m 0,1 km/h N-NO 20 0 min 0,000 mm 0,0 UV-I 19 W/m 5,1 C 8,9 C 1,9 km/h 100,00 %
22.04.2019 06:55 8,8 C 77 % 1011,7 hPa 0,0 l/m 0,0 km/h N-NO 20 0 min 0,000 mm 0,0 UV-I 19 W/m 5,0 C 8,8 C 0,0 km/h 100,00 %
22.04.2019 06:54 8,8 C 77 % 1011,7 hPa 0,0 l/m 0,0 km/h N-NO 20 0 min 0,000 mm 0,0 UV-I 18 W/m 5,0 C 8,8 C 0,0 km/h 100,00 %
22.04.2019 06:53 8,8 C 77 % 1011,7 hPa 0,0 l/m 0,1 km/h N-NO 20 0 min 0,000 mm 0,0 UV-I 18 W/m 5,0 C 8,8 C 1,9 km/h 100,00 %
22.04.2019 06:52 8,8 C 76 % 1011,7 hPa 0,0 l/m 0,0 km/h N-NO 20 0 min 0,000 mm 0,0 UV-I 18 W/m 4,8 C 8,8 C 0,0 km/h 100,00 %
22.04.2019 06:51 8,8 C 77 % 1011,7 hPa 0,0 l/m 0,0 km/h N-NO 20 0 min 0,000 mm 0,0 UV-I 18 W/m 5,0 C 8,8 C 0,0 km/h 100,00 %
22.04.2019 06:50 8,8 C 77 % 1011,8 hPa 0,0 l/m 0,0 km/h N-NO 20 0 min 0,000 mm 0,0 UV-I 16 W/m 5,0 C 8,8 C 0,0 km/h 100,00 %
22.04.2019 06:49 8,8 C 77 % 1011,7 hPa 0,0 l/m 0,0 km/h N-NO 20 0 min 0,000 mm 0,0 UV-I 16 W/m 5,0 C 8,8 C 0,0 km/h 100,00 %
22.04.2019 06:48 8,8 C 76 % 1011,7 hPa 0,0 l/m 0,0 km/h N-NO 20 0 min 0,000 mm 0,0 UV-I 16 W/m 4,8 C 8,8 C 0,0 km/h 100,00 %
22.04.2019 06:47 8,8 C 76 % 1011,7 hPa 0,0 l/m 0,1 km/h N-NO 20 0 min 0,000 mm 0,0 UV-I 15 W/m 4,8 C 8,8 C 1,9 km/h 95,83 %
22.04.2019 06:46 8,8 C 76 % 1011,7 hPa 0,0 l/m 0,0 km/h N-NO 20 0 min 0,000 mm 0,0 UV-I 14 W/m 4,8 C 8,8 C 0,0 km/h 95,65 %
22.04.2019 06:45 8,9 C 76 % 1011,7 hPa 0,0 l/m 0,0 km/h N-NO 20 0 min 0,000 mm 0,0 UV-I 14 W/m 4,9 C 8,9 C 0,0 km/h 100,00 %
22.04.2019 06:44 8,9 C 76 % 1011,8 hPa 0,0 l/m 0,0 km/h N-NO 20 0 min 0,000 mm 0,0 UV-I 14 W/m 4,9 C 8,9 C 0,0 km/h 92,86 %
22.04.2019 06:43 8,9 C 76 % 1011,8 hPa 0,0 l/m 0,0 km/h N-NO 20 0 min 0,000 mm 0,0 UV-I 12 W/m 4,9 C 8,9 C 0,0 km/h 100,00 %
22.04.2019 06:42 8,9 C 76 % 1011,8 hPa 0,0 l/m 0,0 km/h N-NO 20 0 min 0,000 mm 0,0 UV-I 12 W/m 4,9 C 8,9 C 0,0 km/h 100,00 %
22.04.2019 06:41 8,9 C 76 % 1011,8 hPa 0,0 l/m 0,0 km/h N-NO 20 0 min 0,000 mm 0,0 UV-I 12 W/m 4,9 C 8,9 C 0,0 km/h 95,83 %
22.04.2019 06:40 8,9 C 76 % 1011,7 hPa 0,0 l/m 0,0 km/h N-NO 20 0 min 0,000 mm 0,0 UV-I 11 W/m 4,9 C 8,9 C 0,0 km/h 100,00 %
22.04.2019 06:39 9,0 C 76 % 1011,8 hPa 0,0 l/m 0,0 km/h N-NO 20 0 min 0,000 mm 0,0 UV-I 11 W/m 5,0 C 9,0 C 0,0 km/h 100,00 %
22.04.2019 06:38 9,0 C 76 % 1011,8 hPa 0,0 l/m 0,0 km/h N-NO 20 0 min 0,000 mm 0,0 UV-I 10 W/m 5,0 C 9,0 C 0,0 km/h 100,00 %
22.04.2019 06:37 9,0 C 75 % 1011,7 hPa 0,0 l/m 0,0 km/h N-NO 20 0 min 0,000 mm 0,0 UV-I 9 W/m 4,8 C 9,0 C 0,0 km/h 100,00 %
22.04.2019 06:36 9,1 C 75 % 1011,7 hPa 0,0 l/m 0,0 km/h N-NO 20 0 min 0,000 mm 0,0 UV-I 9 W/m 4,9 C 9,1 C 0,0 km/h 100,00 %
22.04.2019 06:35 9,1 C 75 % 1011,7 hPa 0,0 l/m 0,0 km/h N-NO 20 0 min 0,000 mm 0,0 UV-I 9 W/m 4,9 C 9,1 C 0,0 km/h 100,00 %
22.04.2019 06:34 9,1 C 75 % 1011,8 hPa 0,0 l/m 0,0 km/h N-NO 20 0 min 0,000 mm 0,0 UV-I 9 W/m 4,9 C 9,1 C 0,0 km/h 100,00 %
22.04.2019 06:33 9,1 C 75 % 1011,7 hPa 0,0 l/m 0,0 km/h N-NO 20 0 min 0,000 mm 0,0 UV-I 7 W/m 4,9 C 9,1 C 0,0 km/h 100,00 %
22.04.2019 06:32 9,1 C 75 % 1011,7 hPa 0,0 l/m 0,0 km/h N-NO 20 0 min 0,000 mm 0,0 UV-I 7 W/m 4,9 C 9,1 C 0,0 km/h 92,86 %
22.04.2019 06:31 9,1 C 75 % 1011,8 hPa 0,0 l/m 0,0 km/h N-NO 20 0 min 0,000 mm 0,0 UV-I 7 W/m 4,9 C 9,1 C 0,0 km/h 100,00 %
22.04.2019 06:30 9,1 C 75 % 1011,8 hPa 0,0 l/m 0,0 km/h N-NO 20 0 min 0,000 mm 0,0 UV-I 6 W/m 4,9 C 9,1 C 0,0 km/h 100,00 %
22.04.2019 06:29 9,1 C 75 % 1011,8 hPa 0,0 l/m 0,0 km/h N-NO 20 0 min 0,000 mm 0,0 UV-I 5 W/m 4,9 C 9,1 C 0,0 km/h 100,00 %
22.04.2019 06:28 9,2 C 75 % 1011,8 hPa 0,0 l/m 0,0 km/h N-NO 20 0 min 0,000 mm 0,0 UV-I 5 W/m 5,0 C 9,2 C 0,0 km/h 100,00 %
22.04.2019 06:27 9,2 C 75 % 1011,8 hPa 0,0 l/m 0,0 km/h N-NO 20 0 min 0,000 mm 0,0 UV-I 5 W/m 5,0 C 9,2 C 0,0 km/h 100,00 %
22.04.2019 06:26 9,2 C 75 % 1011,8 hPa 0,0 l/m 0,0 km/h N-NO 20 0 min 0,000 mm 0,0 UV-I 5 W/m 5,0 C 9,2 C 0,0 km/h 100,00 %
22.04.2019 06:25 9,2 C 75 % 1011,8 hPa 0,0 l/m 0,0 km/h N-NO 20 0 min 0,000 mm 0,0 UV-I 2 W/m 5,0 C 9,2 C 0,0 km/h 100,00 %
22.04.2019 06:24 9,2 C 75 % 1011,8 hPa 0,0 l/m 0,0 km/h N-NO 20 0 min 0,000 mm 0,0 UV-I 0 W/m 5,0 C 9,2 C 0,0 km/h 100,00 %
22.04.2019 06:23 9,3 C 75 % 1011,8 hPa 0,0 l/m 0,0 km/h N-NO 20 0 min 0,000 mm 0,0 UV-I 0 W/m 5,1 C 9,3 C 0,0 km/h 100,00 %
22.04.2019 06:22 9,3 C 74 % 1011,9 hPa 0,0 l/m 0,0 km/h N-NO 20 0 min 0,000 mm 0,0 UV-I 0 W/m 4,9 C 9,3 C 0,0 km/h 100,00 %
22.04.2019 06:21 9,3 C 75 % 1011,9 hPa 0,0 l/m 0,0 km/h N-NO 20 0 min 0,000 mm 0,0 UV-I 0 W/m 5,1 C 9,3 C 0,0 km/h 100,00 %
22.04.2019 06:20 9,3 C 75 % 1011,9 hPa 0,0 l/m 0,0 km/h N-NO 20 0 min 0,000 mm 0,0 UV-I 0 W/m 5,1 C 9,3 C 0,0 km/h 96,30 %
22.04.2019 06:19 9,3 C 74 % 1011,9 hPa 0,0 l/m 0,0 km/h N-NO 20 0 min 0,000 mm 0,0 UV-I 0 W/m 4,9 C 9,3 C 0,0 km/h 100,00 %
22.04.2019 06:18 9,3 C 74 % 1011,9 hPa 0,0 l/m 0,0 km/h N-NO 20 0 min 0,000 mm 0,0 UV-I 0 W/m 4,9 C 9,3 C 0,0 km/h 95,65 %
22.04.2019 06:17 9,4 C 74 % 1011,9 hPa 0,0 l/m 0,0 km/h N-NO 20 0 min 0,000 mm 0,0 UV-I 0 W/m 5,0 C 9,4 C 0,0 km/h 100,00 %
22.04.2019 06:16 9,4 C 74 % 1011,9 hPa 0,0 l/m 0,0 km/h N-NO 20 0 min 0,000 mm 0,0 UV-I 0 W/m 5,0 C 9,4 C 0,0 km/h 100,00 %
22.04.2019 06:15 9,4 C 74 % 1011,9 hPa 0,0 l/m 0,0 km/h N-NO 20 0 min 0,000 mm 0,0 UV-I 0 W/m 5,0 C 9,4 C 0,0 km/h 100,00 %
22.04.2019 06:14 9,4 C 74 % 1011,9 hPa 0,0 l/m 0,0 km/h N-NO 20 0 min 0,000 mm 0,0 UV-I 0 W/m 5,0 C 9,4 C 0,0 km/h 100,00 %
22.04.2019 06:13 9,4 C 74 % 1012,0 hPa 0,0 l/m 0,0 km/h N-NO 20 0 min 0,000 mm 0,0 UV-I 0 W/m 5,0 C 9,4 C 0,0 km/h 100,00 %
22.04.2019 06:12 9,5 C 74 % 1011,9 hPa 0,0 l/m 0,0 km/h N-NO 20 0 min 0,000 mm 0,0 UV-I 0 W/m 5,1 C 9,5 C 0,0 km/h 100,00 %
22.04.2019 06:11 9,6 C 74 % 1011,9 hPa 0,0 l/m 0,0 km/h N-NO 20 0 min 0,000 mm 0,0 UV-I 0 W/m 5,2 C 9,6 C 0,0 km/h 100,00 %
22.04.2019 06:10 9,6 C 74 % 1011,9 hPa 0,0 l/m 0,0 km/h N-NO 20 0 min 0,000 mm 0,0 UV-I 0 W/m 5,2 C 9,6 C 0,0 km/h 100,00 %
22.04.2019 06:09 9,6 C 74 % 1011,9 hPa 0,0 l/m 0,0 km/h N-NO 20 0 min 0,000 mm 0,0 UV-I 0 W/m 5,2 C 9,6 C 0,0 km/h 100,00 %
22.04.2019 06:08 9,6 C 74 % 1011,9 hPa 0,0 l/m 0,0 km/h N-NO 20 0 min 0,000 mm 0,0 UV-I 0 W/m 5,2 C 9,6 C 0,0 km/h 100,00 %
22.04.2019 06:07 9,6 C 74 % 1011,9 hPa 0,0 l/m 0,0 km/h N-NO 20 0 min 0,000 mm 0,0 UV-I 0 W/m 5,2 C 9,6 C 0,0 km/h 100,00 %
22.04.2019 06:06 9,6 C 74 % 1011,9 hPa 0,0 l/m 0,0 km/h N-NO 20 0 min 0,000 mm 0,0 UV-I 0 W/m 5,2 C 9,6 C 0,0 km/h 100,00 %
22.04.2019 06:05 9,6 C 74 % 1011,9 hPa 0,0 l/m 0,0 km/h N-NO 20 0 min 0,000 mm 0,0 UV-I 0 W/m 5,2 C 9,6 C 0,0 km/h 100,00 %
22.04.2019 06:04 9,7 C 74 % 1012,0 hPa 0,0 l/m 0,0 km/h N-NO 20 0 min 0,000 mm 0,0 UV-I 0 W/m 5,3 C 9,7 C 0,0 km/h 100,00 %
22.04.2019 06:03 9,7 C 74 % 1012,0 hPa 0,0 l/m 0,0 km/h N-NO 20 0 min 0,000 mm 0,0 UV-I 0 W/m 5,3 C 9,7 C 0,0 km/h 100,00 %
22.04.2019 06:02 9,7 C 74 % 1012,0 hPa 0,0 l/m 0,0 km/h N-NO 20 0 min 0,000 mm 0,0 UV-I 0 W/m 5,3 C 9,7 C 0,0 km/h 100,00 %
22.04.2019 06:01 9,7 C 74 % 1012,0 hPa 0,0 l/m 0,0 km/h N-NO 20 0 min 0,000 mm 0,0 UV-I 0 W/m 5,3 C 9,7 C 0,0 km/h 100,00 %
22.04.2019 06:00 9,7 C 73 % 1012,0 hPa 0,0 l/m 0,0 km/h N-NO 20 0 min 0,025 mm 0,0 UV-I 0 W/m 5,1 C 9,7 C 0,0 km/h 100,00 %
22.04.2019 05:59 9,7 C 73 % 1012,0 hPa 0,0 l/m 0,0 km/h N-NO 20 0 min 0,000 mm 0,0 UV-I 0 W/m 5,1 C 9,7 C 0,0 km/h 100,00 %
22.04.2019 05:58 9,7 C 73 % 1012,0 hPa 0,0 l/m 0,0 km/h N-NO 20 0 min 0,000 mm 0,0 UV-I 0 W/m 5,1 C 9,7 C 0,0 km/h 100,00 %
22.04.2019 05:57 9,8 C 73 % 1012,0 hPa 0,0 l/m 0,0 km/h N-NO 20 0 min 0,000 mm 0,0 UV-I 0 W/m 5,2 C 9,8 C 0,0 km/h 100,00 %
22.04.2019 05:56 9,8 C 73 % 1012,1 hPa 0,0 l/m 0,0 km/h N-NO 20 0 min 0,000 mm 0,0 UV-I 0 W/m 5,2 C 9,8 C 0,0 km/h 96,30 %
22.04.2019 05:55 9,8 C 73 % 1012,0 hPa 0,0 l/m 0,0 km/h N-NO 20 0 min 0,000 mm 0,0 UV-I 0 W/m 5,2 C 9,8 C 0,0 km/h 100,00 %
22.04.2019 05:54 9,8 C 74 % 1012,0 hPa 0,0 l/m 0,0 km/h N-NO 20 0 min 0,000 mm 0,0 UV-I 0 W/m 5,4 C 9,8 C 0,0 km/h 100,00 %
22.04.2019 05:53 9,9 C 74 % 1012,0 hPa 0,0 l/m 0,0 km/h N-NO 20 0 min 0,000 mm 0,0 UV-I 0 W/m 5,5 C 9,9 C 0,0 km/h 100,00 %
22.04.2019 05:52 9,8 C 74 % 1012,0 hPa 0,0 l/m 0,0 km/h N-NO 20 0 min 0,000 mm 0,0 UV-I 0 W/m 5,4 C 9,8 C 0,0 km/h 96,15 %
22.04.2019 05:51 9,8 C 74 % 1012,1 hPa 0,0 l/m 0,0 km/h N-NO 20 0 min 0,000 mm 0,0 UV-I 0 W/m 5,4 C 9,8 C 0,0 km/h 100,00 %
22.04.2019 05:50 9,8 C 74 % 1012,1 hPa 0,0 l/m 0,0 km/h N-NO 20 0 min 0,000 mm 0,0 UV-I 0 W/m 5,4 C 9,8 C 0,0 km/h 100,00 %
22.04.2019 05:49 9,8 C 74 % 1012,0 hPa 0,0 l/m 0,0 km/h N-NO 20 0 min 0,000 mm 0,0 UV-I 0 W/m 5,4 C 9,8 C 0,0 km/h 100,00 %
22.04.2019 05:48 9,8 C 74 % 1012,1 hPa 0,0 l/m 0,0 km/h N-NO 20 0 min 0,000 mm 0,0 UV-I 0 W/m 5,4 C 9,8 C 0,0 km/h 100,00 %
22.04.2019 05:47 9,8 C 74 % 1012,1 hPa 0,0 l/m 0,0 km/h N-NO 20 0 min 0,000 mm 0,0 UV-I 0 W/m 5,4 C 9,8 C 0,0 km/h 100,00 %
22.04.2019 05:46 9,8 C 74 % 1012,1 hPa 0,0 l/m 0,0 km/h N-NO 20 0 min 0,000 mm 0,0 UV-I 0 W/m 5,4 C 9,8 C 0,0 km/h 100,00 %
22.04.2019 05:45 9,8 C 74 % 1012,1 hPa 0,0 l/m 0,0 km/h N-NO 20 0 min 0,000 mm 0,0 UV-I 0 W/m 5,4 C 9,8 C 0,0 km/h 96,15 %
22.04.2019 05:44 9,8 C 74 % 1012,1 hPa 0,0 l/m 0,0 km/h N-NO 20 0 min 0,000 mm 0,0 UV-I 0 W/m 5,4 C 9,8 C 0,0 km/h 100,00 %
22.04.2019 05:43 9,8 C 74 % 1012,1 hPa 0,0 l/m 0,0 km/h N-NO 20 0 min 0,000 mm 0,0 UV-I 0 W/m 5,4 C 9,8 C 0,0 km/h 100,00 %
22.04.2019 05:42 9,8 C 74 % 1012,1 hPa 0,0 l/m 0,0 km/h N-NO 20 0 min 0,000 mm 0,0 UV-I 0 W/m 5,4 C 9,8 C 0,0 km/h 100,00 %
22.04.2019 05:41 9,8 C 74 % 1012,1 hPa 0,0 l/m 0,0 km/h N-NO 20 0 min 0,000 mm 0,0 UV-I 0 W/m 5,4 C 9,8 C 0,0 km/h 100,00 %
22.04.2019 05:40 9,8 C 74 % 1012,1 hPa 0,0 l/m 0,0 km/h N-NO 20 0 min 0,000 mm 0,0 UV-I 0 W/m 5,4 C 9,8 C 0,0 km/h 100,00 %
22.04.2019 05:39 9,8 C 74 % 1012,1 hPa 0,0 l/m 0,0 km/h N-NO 20 0 min 0,000 mm 0,0 UV-I 0 W/m 5,4 C 9,8 C 0,0 km/h 100,00 %
22.04.2019 05:38 9,8 C 73 % 1012,1 hPa 0,0 l/m 0,0 km/h N-NO 20 0 min 0,000 mm 0,0 UV-I 0 W/m 5,2 C 9,8 C 0,0 km/h 100,00 %
22.04.2019 05:37 9,7 C 74 % 1012,2 hPa 0,0 l/m 0,0 km/h N-NO 20 0 min 0,000 mm 0,0 UV-I 0 W/m 5,3 C 9,7 C 0,0 km/h 100,00 %
22.04.2019 05:36 9,8 C 73 % 1012,2 hPa 0,0 l/m 0,0 km/h N-NO 20 0 min 0,000 mm 0,0 UV-I 0 W/m 5,2 C 9,8 C 0,0 km/h 100,00 %
22.04.2019 05:35 9,8 C 73 % 1012,2 hPa 0,0 l/m 0,0 km/h N-NO 20 0 min 0,000 mm 0,0 UV-I 0 W/m 5,2 C 9,8 C 0,0 km/h 100,00 %
22.04.2019 05:34 9,8 C 74 % 1012,2 hPa 0,0 l/m 0,0 km/h N-NO 20 0 min 0,000 mm 0,0 UV-I 0 W/m 5,4 C 9,8 C 0,0 km/h 100,00 %
22.04.2019 05:33 9,7 C 74 % 1012,2 hPa 0,0 l/m 0,0 km/h N-NO 20 0 min 0,000 mm 0,0 UV-I 0 W/m 5,3 C 9,7 C 0,0 km/h 100,00 %
22.04.2019 05:32 9,7 C 74 % 1012,2 hPa 0,0 l/m 0,0 km/h N-NO 20 0 min 0,000 mm 0,0 UV-I 0 W/m 5,3 C 9,7 C 0,0 km/h 95,65 %
22.04.2019 05:31 9,7 C 73 % 1012,2 hPa 0,0 l/m 0,0 km/h N-NO 20 0 min 0,000 mm 0,0 UV-I 0 W/m 5,1 C 9,7 C 0,0 km/h 95,83 %
22.04.2019 05:30 9,7 C 73 % 1012,2 hPa 0,0 l/m 0,0 km/h N-NO 20 0 min 0,000 mm 0,0 UV-I 0 W/m 5,1 C 9,7 C 0,0 km/h 100,00 %
22.04.2019 05:29 9,7 C 73 % 1012,2 hPa 0,0 l/m 0,0 km/h N-NO 20 0 min 0,000 mm 0,0 UV-I 0 W/m 5,1 C 9,7 C 0,0 km/h 100,00 %
22.04.2019 05:28 9,7 C 73 % 1012,2 hPa 0,0 l/m 0,0 km/h N-NO 20 0 min 0,000 mm 0,0 UV-I 0 W/m 5,1 C 9,7 C 0,0 km/h 100,00 %
22.04.2019 05:27 9,7 C 74 % 1012,3 hPa 0,0 l/m 0,0 km/h N-NO 20 0 min 0,000 mm 0,0 UV-I 0 W/m 5,3 C 9,7 C 0,0 km/h 100,00 %
22.04.2019 05:26 9,7 C 73 % 1012,3 hPa 0,0 l/m 0,0 km/h N-NO 20 0 min 0,000 mm 0,0 UV-I 0 W/m 5,1 C 9,7 C 0,0 km/h 100,00 %
22.04.2019 05:25 9,7 C 73 % 1012,3 hPa 0,0 l/m 0,0 km/h N-NO 20 0 min 0,000 mm 0,0 UV-I 0 W/m 5,1 C 9,7 C 0,0 km/h 100,00 %
22.04.2019 05:24 9,7 C 73 % 1012,3 hPa 0,0 l/m 0,0 km/h N-NO 20 0 min 0,000 mm 0,0 UV-I 0 W/m 5,1 C 9,7 C 0,0 km/h 100,00 %
22.04.2019 05:23 9,7 C 73 % 1012,3 hPa 0,0 l/m 0,0 km/h N-NO 20 0 min 0,000 mm 0,0 UV-I 0 W/m 5,1 C 9,7 C 0,0 km/h 100,00 %
22.04.2019 05:22 9,7 C 73 % 1012,3 hPa 0,0 l/m 0,0 km/h N-NO 20 0 min 0,000 mm 0,0 UV-I 0 W/m 5,1 C 9,7 C 0,0 km/h 100,00 %
22.04.2019 05:21 9,7 C 73 % 1012,4 hPa 0,0 l/m 0,0 km/h N-NO 20 0 min 0,000 mm 0,0 UV-I 0 W/m 5,1 C 9,7 C 0,0 km/h 100,00 %
22.04.2019 05:20 9,7 C 73 % 1012,3 hPa 0,0 l/m 0,0 km/h N-NO 20 0 min 0,000 mm 0,0 UV-I 0 W/m 5,1 C 9,7 C 0,0 km/h 100,00 %
22.04.2019 05:19 9,7 C 73 % 1012,4 hPa 0,0 l/m 0,0 km/h N-NO 20 0 min 0,000 mm 0,0 UV-I 0 W/m 5,1 C 9,7 C 0,0 km/h 100,00 %
22.04.2019 05:18 9,7 C 73 % 1012,4 hPa 0,0 l/m 0,0 km/h N-NO 20 0 min 0,000 mm 0,0 UV-I 0 W/m 5,1 C 9,7 C 0,0 km/h 100,00 %
22.04.2019 05:17 9,7 C 73 % 1012,4 hPa 0,0 l/m 0,0 km/h N-NO 20 0 min 0,000 mm 0,0 UV-I 0 W/m 5,1 C 9,7 C 0,0 km/h 100,00 %
22.04.2019 05:16 9,7 C 73 % 1012,4 hPa 0,0 l/m 0,0 km/h N-NO 20 0 min 0,000 mm 0,0 UV-I 0 W/m 5,1 C 9,7 C 0,0 km/h 100,00 %
22.04.2019 05:15 9,7 C 73 % 1012,4 hPa 0,0 l/m 0,0 km/h N-NO 20 0 min 0,000 mm 0,0 UV-I 0 W/m 5,1 C 9,7 C 0,0 km/h 95,65 %
22.04.2019 05:14 9,7 C 72 % 1012,4 hPa 0,0 l/m 0,0 km/h N-NO 20 0 min 0,000 mm 0,0 UV-I 0 W/m 4,9 C 9,7 C 0,0 km/h 100,00 %
22.04.2019 05:13 9,7 C 72 % 1012,4 hPa 0,0 l/m 0,0 km/h N-NO 20 0 min 0,000 mm 0,0 UV-I 0 W/m 4,9 C 9,7 C 0,0 km/h 100,00 %
22.04.2019 05:12 9,7 C 72 % 1012,4 hPa 0,0 l/m 0,0 km/h N-NO 20 0 min 0,000 mm 0,0 UV-I 0 W/m 4,9 C 9,7 C 0,0 km/h 100,00 %
22.04.2019 05:11 9,7 C 72 % 1012,5 hPa 0,0 l/m 0,0 km/h N-NO 20 0 min 0,000 mm 0,0 UV-I 0 W/m 4,9 C 9,7 C 0,0 km/h 100,00 %
22.04.2019 05:10 9,7 C 72 % 1012,4 hPa 0,0 l/m 0,0 km/h N-NO 20 0 min 0,000 mm 0,0 UV-I 0 W/m 4,9 C 9,7 C 0,0 km/h 100,00 %
22.04.2019 05:09 9,8 C 72 % 1012,5 hPa 0,0 l/m 0,0 km/h N-NO 20 0 min 0,000 mm 0,0 UV-I 0 W/m 5,0 C 9,8 C 0,0 km/h 100,00 %
22.04.2019 05:08 9,8 C 72 % 1012,5 hPa 0,0 l/m 0,0 km/h N-NO 20 0 min 0,000 mm 0,0 UV-I 0 W/m 5,0 C 9,8 C 0,0 km/h 100,00 %
22.04.2019 05:07 9,8 C 72 % 1012,4 hPa 0,0 l/m 0,0 km/h N-NO 20 0 min 0,000 mm 0,0 UV-I 0 W/m 5,0 C 9,8 C 0,0 km/h 100,00 %
22.04.2019 05:06 9,8 C 71 % 1012,4 hPa 0,0 l/m 0,0 km/h N-NO 20 0 min 0,000 mm 0,0 UV-I 0 W/m 4,8 C 9,8 C 0,0 km/h 100,00 %
22.04.2019 05:05 9,9 C 71 % 1012,5 hPa 0,0 l/m 0,0 km/h N-NO 20 0 min 0,000 mm 0,0 UV-I 0 W/m 4,9 C 9,9 C 0,0 km/h 100,00 %
22.04.2019 05:04 9,9 C 71 % 1012,5 hPa 0,0 l/m 0,0 km/h N-NO 20 0 min 0,000 mm 0,0 UV-I 0 W/m 4,9 C 9,9 C 0,0 km/h 100,00 %
22.04.2019 05:03 10,0 C 71 % 1012,5 hPa 0,0 l/m 0,0 km/h N-NO 20 0 min 0,000 mm 0,0 UV-I 0 W/m 5,0 C 10,0 C 0,0 km/h 100,00 %
22.04.2019 05:02 10,1 C 71 % 1012,5 hPa 0,0 l/m 0,0 km/h N-NO 20 0 min 0,000 mm 0,0 UV-I 0 W/m 5,1 C 10,1 C 0,0 km/h 100,00 %
22.04.2019 05:01 10,1 C 71 % 1012,5 hPa 0,0 l/m 0,0 km/h N-NO 20 0 min 0,000 mm 0,0 UV-I 0 W/m 5,1 C 10,1 C 0,0 km/h 100,00 %
22.04.2019 05:00 10,2 C 71 % 1012,5 hPa 0,0 l/m 0,0 km/h N-NO 20 0 min 0,025 mm 0,0 UV-I 0 W/m 5,2 C 10,2 C 0,0 km/h 100,00 %
22.04.2019 04:59 10,2 C 71 % 1012,5 hPa 0,0 l/m 0,0 km/h N-NO 20 0 min 0,000 mm 0,0 UV-I 0 W/m 5,2 C 10,2 C 0,0 km/h 100,00 %
22.04.2019 04:58 10,2 C 72 % 1012,5 hPa 0,0 l/m 0,0 km/h N-NO 20 0 min 0,000 mm 0,0 UV-I 0 W/m 5,4 C 10,2 C 0,0 km/h 95,65 %
22.04.2019 04:57 10,2 C 71 % 1012,5 hPa 0,0 l/m 0,0 km/h N-NO 20 0 min 0,000 mm 0,0 UV-I 0 W/m 5,2 C 10,2 C 0,0 km/h 100,00 %
22.04.2019 04:56 10,2 C 71 % 1012,5 hPa 0,0 l/m 0,0 km/h N-NO 20 0 min 0,000 mm 0,0 UV-I 0 W/m 5,2 C 10,2 C 0,0 km/h 97,26 %
22.04.2019 04:55 10,2 C 71 % 1012,5 hPa 0,0 l/m 0,0 km/h N-NO 20 0 min 0,000 mm 0,0 UV-I 0 W/m 5,2 C 10,2 C 0,0 km/h 100,00 %
22.04.2019 04:54 10,2 C 71 % 1012,5 hPa 0,0 l/m 0,0 km/h N-NO 20 0 min 0,000 mm 0,0 UV-I 0 W/m 5,2 C 10,2 C 0,0 km/h 100,00 %
22.04.2019 04:53 10,2 C 71 % 1012,5 hPa 0,0 l/m 0,0 km/h N-NO 20 0 min 0,000 mm 0,0 UV-I 0 W/m 5,2 C 10,2 C 0,0 km/h 100,00 %
22.04.2019 04:52 10,2 C 70 % 1012,5 hPa 0,0 l/m 0,0 km/h N-NO 20 0 min 0,000 mm 0,0 UV-I 0 W/m 5,0 C 10,2 C 0,0 km/h 100,00 %
22.04.2019 04:51 10,2 C 70 % 1012,5 hPa 0,0 l/m 0,0 km/h N-NO 20 0 min 0,000 mm 0,0 UV-I 0 W/m 5,0 C 10,2 C 0,0 km/h 100,00 %
22.04.2019 04:50 10,2 C 70 % 1012,5 hPa 0,0 l/m 0,0 km/h N-NO 20 0 min 0,000 mm 0,0 UV-I 0 W/m 5,0 C 10,2 C 0,0 km/h 97,37 %
22.04.2019 04:49 10,2 C 70 % 1012,5 hPa 0,0 l/m 0,0 km/h N-NO 20 0 min 0,000 mm 0,0 UV-I 0 W/m 5,0 C 10,2 C 0,0 km/h 100,00 %
22.04.2019 04:48 10,2 C 70 % 1012,5 hPa 0,0 l/m 0,0 km/h N-NO 20 0 min 0,000 mm 0,0 UV-I 0 W/m 5,0 C 10,2 C 0,0 km/h 100,00 %
22.04.2019 04:47 10,3 C 70 % 1012,5 hPa 0,0 l/m 0,0 km/h N-NO 20 0 min 0,000 mm 0,0 UV-I 0 W/m 5,1 C 10,3 C 0,0 km/h 95,83 %
22.04.2019 04:46 10,3 C 70 % 1012,5 hPa 0,0 l/m 0,0 km/h N-NO 20 0 min 0,000 mm 0,0 UV-I 0 W/m 5,1 C 10,3 C 0,0 km/h 100,00 %
22.04.2019 04:45 10,3 C 70 % 1012,6 hPa 0,0 l/m 0,0 km/h N-NO 20 0 min 0,000 mm 0,0 UV-I 0 W/m 5,1 C 10,3 C 0,0 km/h 100,00 %
22.04.2019 04:44 10,4 C 70 % 1012,6 hPa 0,0 l/m 0,0 km/h N-NO 20 0 min 0,000 mm 0,0 UV-I 0 W/m 5,2 C 10,4 C 0,0 km/h 100,00 %
22.04.2019 04:43 10,4 C 70 % 1012,6 hPa 0,0 l/m 0,0 km/h N-NO 20 0 min 0,000 mm 0,0 UV-I 0 W/m 5,2 C 10,4 C 0,0 km/h 100,00 %
22.04.2019 04:42 10,4 C 70 % 1012,6 hPa 0,0 l/m 0,0 km/h N-NO 20 0 min 0,000 mm 0,0 UV-I 0 W/m 5,2 C 10,4 C 0,0 km/h 95,83 %
22.04.2019 04:41 10,4 C 70 % 1012,6 hPa 0,0 l/m 0,0 km/h N-NO 20 0 min 0,000 mm 0,0 UV-I 0 W/m 5,2 C 10,4 C 0,0 km/h 96,15 %
22.04.2019 04:40 10,5 C 70 % 1012,6 hPa 0,0 l/m 0,0 km/h N-NO 20 0 min 0,000 mm 0,0 UV-I 0 W/m 5,3 C 10,5 C 0,0 km/h 96,30 %
22.04.2019 04:39 10,5 C 70 % 1012,6 hPa 0,0 l/m 0,0 km/h N-NO 20 0 min 0,000 mm 0,0 UV-I 0 W/m 5,3 C 10,5 C 0,0 km/h 100,00 %
22.04.2019 04:38 10,5 C 70 % 1012,6 hPa 0,0 l/m 0,0 km/h N-NO 20 0 min 0,000 mm 0,0 UV-I 0 W/m 5,3 C 10,5 C 0,0 km/h 95,83 %
22.04.2019 04:37 10,5 C 70 % 1012,6 hPa 0,0 l/m 0,0 km/h N-NO 20 0 min 0,000 mm 0,0 UV-I 0 W/m 5,3 C 10,5 C 0,0 km/h 95,65 %
22.04.2019 04:36 10,5 C 70 % 1012,6 hPa 0,0 l/m 0,0 km/h N-NO 20 0 min 0,000 mm 0,0 UV-I 0 W/m 5,3 C 10,5 C 0,0 km/h 95,83 %
22.04.2019 04:35 10,5 C 70 % 1012,6 hPa 0,0 l/m 0,0 km/h N-NO 20 0 min 0,000 mm 0,0 UV-I 0 W/m 5,3 C 10,5 C 0,0 km/h 96,30 %
22.04.2019 04:34 10,5 C 70 % 1012,6 hPa 0,0 l/m 0,0 km/h N-NO 20 0 min 0,000 mm 0,0 UV-I 0 W/m 5,3 C 10,5 C 0,0 km/h 100,00 %
22.04.2019 04:33 10,5 C 70 % 1012,6 hPa 0,0 l/m 0,0 km/h N-NO 20 0 min 0,000 mm 0,0 UV-I 0 W/m 5,3 C 10,5 C 0,0 km/h 91,30 %
22.04.2019 04:32 10,5 C 70 % 1012,6 hPa 0,0 l/m 0,0 km/h N-NO 20 0 min 0,000 mm 0,0 UV-I 0 W/m 5,3 C 10,5 C 0,0 km/h 100,00 %
22.04.2019 04:31 10,5 C 70 % 1012,6 hPa 0,0 l/m 0,0 km/h N-NO 20 0 min 0,000 mm 0,0 UV-I 0 W/m 5,3 C 10,5 C 0,0 km/h 95,65 %
22.04.2019 04:30 10,5 C 70 % 1012,6 hPa 0,0 l/m 0,0 km/h N-NO 20 0 min 0,000 mm 0,0 UV-I 0 W/m 5,3 C 10,5 C 0,0 km/h 100,00 %
22.04.2019 04:29 10,5 C 70 % 1012,6 hPa 0,0 l/m 0,0 km/h N-NO 20 0 min 0,000 mm 0,0 UV-I 0 W/m 5,3 C 10,5 C 0,0 km/h 92,86 %
22.04.2019 04:28 10,5 C 70 % 1012,6 hPa 0,0 l/m 0,0 km/h N-NO 20 0 min 0,000 mm 0,0 UV-I 0 W/m 5,3 C 10,5 C 0,0 km/h 96,67 %
22.04.2019 04:27 10,5 C 70 % 1012,6 hPa 0,0 l/m 0,0 km/h N-NO 20 0 min 0,000 mm 0,0 UV-I 0 W/m 5,3 C 10,5 C 0,0 km/h 100,00 %
22.04.2019 04:26 10,5 C 70 % 1012,6 hPa 0,0 l/m 0,0 km/h N-NO 20 0 min 0,000 mm 0,0 UV-I 0 W/m 5,3 C 10,5 C 0,0 km/h 95,83 %
22.04.2019 04:25 10,5 C 70 % 1012,5 hPa 0,0 l/m 0,0 km/h N-NO 20 0 min 0,000 mm 0,0 UV-I 0 W/m 5,3 C 10,5 C 0,0 km/h 100,00 %
22.04.2019 04:24 10,5 C 69 % 1012,6 hPa 0,0 l/m 0,0 km/h N-NO 20 0 min 0,000 mm 0,0 UV-I 0 W/m 5,1 C 10,5 C 0,0 km/h 95,83 %
22.04.2019 04:23 10,5 C 69 % 1012,6 hPa 0,0 l/m 0,0 km/h N-NO 20 0 min 0,000 mm 0,0 UV-I 0 W/m 5,1 C 10,5 C 0,0 km/h 95,65 %
22.04.2019 04:22 10,5 C 69 % 1012,6 hPa 0,0 l/m 0,0 km/h N-NO 20 0 min 0,000 mm 0,0 UV-I 0 W/m 5,1 C 10,5 C 0,0 km/h 95,83 %
22.04.2019 04:21 10,5 C 69 % 1012,6 hPa 0,0 l/m 0,0 km/h N-NO 20 0 min 0,000 mm 0,0 UV-I 0 W/m 5,1 C 10,5 C 0,0 km/h 100,00 %
22.04.2019 04:20 10,6 C 69 % 1012,6 hPa 0,0 l/m 0,0 km/h N-NO 20 0 min 0,000 mm 0,0 UV-I 0 W/m 5,2 C 10,6 C 0,0 km/h 95,83 %
22.04.2019 04:19 10,6 C 69 % 1012,7 hPa 0,0 l/m 0,0 km/h N-NO 20 0 min 0,000 mm 0,0 UV-I 0 W/m 5,2 C 10,6 C 0,0 km/h 95,83 %
22.04.2019 04:18 10,6 C 69 % 1012,7 hPa 0,0 l/m 0,0 km/h N-NO 20 0 min 0,000 mm 0,0 UV-I 0 W/m 5,2 C 10,6 C 0,0 km/h 100,00 %
22.04.2019 04:17 10,6 C 69 % 1012,7 hPa 0,0 l/m 0,0 km/h N-NO 20 0 min 0,000 mm 0,0 UV-I 0 W/m 5,2 C 10,6 C 0,0 km/h 91,67 %
22.04.2019 04:16 10,6 C 69 % 1012,7 hPa 0,0 l/m 0,0 km/h N-NO 20 0 min 0,000 mm 0,0 UV-I 0 W/m 5,2 C 10,6 C 0,0 km/h 95,65 %
22.04.2019 04:15 10,6 C 69 % 1012,7 hPa 0,0 l/m 0,0 km/h N-NO 20 0 min 0,000 mm 0,0 UV-I 0 W/m 5,2 C 10,6 C 0,0 km/h 96,30 %
22.04.2019 04:14 10,6 C 69 % 1012,7 hPa 0,0 l/m 0,0 km/h N-NO 20 0 min 0,000 mm 0,0 UV-I 0 W/m 5,2 C 10,6 C 0,0 km/h 100,00 %
22.04.2019 04:13 10,6 C 69 % 1012,7 hPa 0,0 l/m 0,0 km/h N-NO 20 0 min 0,000 mm 0,0 UV-I 0 W/m 5,2 C 10,6 C 0,0 km/h 95,83 %
22.04.2019 04:12 10,6 C 69 % 1012,7 hPa 0,0 l/m 0,0 km/h N-NO 20 0 min 0,000 mm 0,0 UV-I 0 W/m 5,2 C 10,6 C 0,0 km/h 95,65 %
22.04.2019 04:11 10,6 C 69 % 1012,7 hPa 0,0 l/m 0,0 km/h N-NO 20 0 min 0,000 mm 0,0 UV-I 0 W/m 5,2 C 10,6 C 0,0 km/h 100,00 %
22.04.2019 04:10 10,7 C 69 % 1012,8 hPa 0,0 l/m 0,0 km/h N-NO 20 0 min 0,000 mm 0,0 UV-I 0 W/m 5,2 C 10,7 C 0,0 km/h 92,31 %
22.04.2019 04:09 10,7 C 69 % 1012,8 hPa 0,0 l/m 0,0 km/h N-NO 20 0 min 0,000 mm 0,0 UV-I 0 W/m 5,2 C 10,7 C 0,0 km/h 100,00 %
22.04.2019 04:08 10,7 C 68 % 1012,8 hPa 0,0 l/m 0,0 km/h N-NO 20 0 min 0,000 mm 0,0 UV-I 0 W/m 5,0 C 10,7 C 0,0 km/h 96,15 %
22.04.2019 04:07 10,7 C 68 % 1012,8 hPa 0,0 l/m 0,0 km/h N-NO 20 0 min 0,000 mm 0,0 UV-I 0 W/m 5,0 C 10,7 C 0,0 km/h 100,00 %
22.04.2019 04:06 10,7 C 68 % 1012,8 hPa 0,0 l/m 0,0 km/h N-NO 20 0 min 0,000 mm 0,0 UV-I 0 W/m 5,0 C 10,7 C 0,0 km/h 93,33 %
22.04.2019 04:05 10,8 C 68 % 1012,8 hPa 0,0 l/m 0,0 km/h N-NO 20 0 min 0,000 mm 0,0 UV-I 0 W/m 5,1 C 10,8 C 0,0 km/h 100,00 %
22.04.2019 04:04 10,8 C 68 % 1012,9 hPa 0,0 l/m 0,0 km/h N-NO 20 0 min 0,000 mm 0,0 UV-I 0 W/m 5,1 C 10,8 C 0,0 km/h 91,67 %
22.04.2019 04:03 10,8 C 68 % 1012,9 hPa 0,0 l/m 0,0 km/h N-NO 20 0 min 0,000 mm 0,0 UV-I 0 W/m 5,1 C 10,8 C 0,0 km/h 92,31 %
22.04.2019 04:02 10,9 C 68 % 1012,9 hPa 0,0 l/m 0,0 km/h N-NO 20 0 min 0,000 mm 0,0 UV-I 0 W/m 5,2 C 10,9 C 0,0 km/h 92,59 %
22.04.2019 04:01 10,9 C 68 % 1012,9 hPa 0,0 l/m 0,0 km/h N-NO 20 0 min 0,000 mm 0,0 UV-I 0 W/m 5,2 C 10,9 C 0,0 km/h 100,00 %
22.04.2019 04:00 10,9 C 68 % 1012,9 hPa 0,0 l/m 0,0 km/h N-NO 20 0 min 0,026 mm 0,0 UV-I 0 W/m 5,2 C 10,9 C 0,0 km/h 100,00 %
22.04.2019 03:59 11,0 C 68 % 1012,9 hPa 0,0 l/m 0,0 km/h N-NO 20 0 min 0,000 mm 0,0 UV-I 0 W/m 5,3 C 11,0 C 0,0 km/h 95,83 %
22.04.2019 03:58 11,1 C 68 % 1012,9 hPa 0,0 l/m 0,0 km/h N-NO 20 0 min 0,000 mm 0,0 UV-I 0 W/m 5,4 C 11,1 C 0,0 km/h 100,00 %
22.04.2019 03:57 11,1 C 68 % 1012,9 hPa 0,0 l/m 0,0 km/h N-NO 20 0 min 0,000 mm 0,0 UV-I 0 W/m 5,4 C 11,1 C 0,0 km/h 93,75 %
22.04.2019 03:56 11,1 C 68 % 1012,9 hPa 0,0 l/m 0,0 km/h N-NO 20 0 min 0,000 mm 0,0 UV-I 0 W/m 5,4 C 11,1 C 0,0 km/h 100,00 %
22.04.2019 03:55 11,1 C 68 % 1012,9 hPa 0,0 l/m 0,0 km/h N-NO 20 0 min 0,000 mm 0,0 UV-I 0 W/m 5,4 C 11,1 C 0,0 km/h 96,15 %
22.04.2019 03:54 11,1 C 68 % 1012,9 hPa 0,0 l/m 0,0 km/h N-NO 20 0 min 0,000 mm 0,0 UV-I 0 W/m 5,4 C 11,1 C 0,0 km/h 100,00 %
22.04.2019 03:53 11,1 C 68 % 1012,9 hPa 0,0 l/m 0,0 km/h N-NO 20 0 min 0,000 mm 0,0 UV-I 0 W/m 5,4 C 11,1 C 0,0 km/h 95,65 %
22.04.2019 03:52 11,1 C 68 % 1013,0 hPa 0,0 l/m 0,0 km/h N-NO 20 0 min 0,000 mm 0,0 UV-I 0 W/m 5,4 C 11,1 C 0,0 km/h 91,67 %
22.04.2019 03:51 11,1 C 68 % 1013,0 hPa 0,0 l/m 0,0 km/h N-NO 20 0 min 0,000 mm 0,0 UV-I 0 W/m 5,4 C 11,1 C 0,0 km/h 100,00 %
22.04.2019 03:50 11,1 C 68 % 1012,9 hPa 0,0 l/m 0,0 km/h N-NO 20 0 min 0,000 mm 0,0 UV-I 0 W/m 5,4 C 11,1 C 0,0 km/h 95,83 %
22.04.2019 03:49 11,1 C 68 % 1012,9 hPa 0,0 l/m 0,0 km/h N-NO 20 0 min 0,000 mm 0,0 UV-I 0 W/m 5,4 C 11,1 C 0,0 km/h 100,00 %
22.04.2019 03:48 11,1 C 68 % 1013,0 hPa 0,0 l/m 0,0 km/h N-NO 20 0 min 0,000 mm 0,0 UV-I 0 W/m 5,4 C 11,1 C 0,0 km/h 95,83 %
22.04.2019 03:47 11,1 C 68 % 1013,0 hPa 0,0 l/m 0,0 km/h N-NO 20 0 min 0,000 mm 0,0 UV-I 0 W/m 5,4 C 11,1 C 0,0 km/h 95,65 %
22.04.2019 03:46 11,1 C 68 % 1013,0 hPa 0,0 l/m 0,0 km/h N-NO 20 0 min 0,000 mm 0,0 UV-I 0 W/m 5,4 C 11,1 C 0,0 km/h 95,83 %
22.04.2019 03:45 11,1 C 68 % 1013,0 hPa 0,0 l/m 0,0 km/h N-NO 20 0 min 0,000 mm 0,0 UV-I 0 W/m 5,4 C 11,1 C 0,0 km/h 100,00 %
22.04.2019 03:44 11,1 C 68 % 1013,0 hPa 0,0 l/m 0,0 km/h N-NO 20 0 min 0,000 mm 0,0 UV-I 0 W/m 5,4 C 11,1 C 0,0 km/h 95,65 %
22.04.2019 03:43 11,1 C 68 % 1013,0 hPa 0,0 l/m 0,0 km/h N-NO 20 0 min 0,000 mm 0,0 UV-I 0 W/m 5,4 C 11,1 C 0,0 km/h 96,55 %
22.04.2019 03:42 11,0 C 68 % 1013,0 hPa 0,0 l/m 0,0 km/h N-NO 20 0 min 0,000 mm 0,0 UV-I 0 W/m 5,3 C 11,0 C 0,0 km/h 100,00 %
22.04.2019 03:41 11,0 C 68 % 1013,1 hPa 0,0 l/m 0,0 km/h N-NO 20 0 min 0,000 mm 0,0 UV-I 0 W/m 5,3 C 11,0 C 0,0 km/h 100,00 %
22.04.2019 03:40 11,0 C 67 % 1013,0 hPa 0,0 l/m 0,0 km/h N-NO 20 0 min 0,000 mm 0,0 UV-I 0 W/m 5,1 C 11,0 C 0,0 km/h 100,00 %
22.04.2019 03:39 11,0 C 67 % 1013,1 hPa 0,0 l/m 0,0 km/h N-NO 20 0 min 0,000 mm 0,0 UV-I 0 W/m 5,1 C 11,0 C 0,0 km/h 100,00 %
22.04.2019 03:38 11,0 C 67 % 1013,1 hPa 0,0 l/m 0,0 km/h N-NO 20 0 min 0,000 mm 0,0 UV-I 0 W/m 5,1 C 11,0 C 0,0 km/h 100,00 %
22.04.2019 03:37 11,0 C 67 % 1013,1 hPa 0,0 l/m 0,0 km/h N-NO 20 0 min 0,000 mm 0,0 UV-I 0 W/m 5,1 C 11,0 C 0,0 km/h 100,00 %
22.04.2019 03:36 11,0 C 67 % 1013,1 hPa 0,0 l/m 0,0 km/h N-NO 20 0 min 0,000 mm 0,0 UV-I 0 W/m 5,1 C 11,0 C 0,0 km/h 96,55 %
22.04.2019 03:35 11,0 C 67 % 1013,1 hPa 0,0 l/m 0,0 km/h N-NO 20 0 min 0,000 mm 0,0 UV-I 0 W/m 5,1 C 11,0 C 0,0 km/h 96,30 %
22.04.2019 03:34 11,0 C 67 % 1013,1 hPa 0,0 l/m 0,0 km/h N-NO 20 0 min 0,000 mm 0,0 UV-I 0 W/m 5,1 C 11,0 C 0,0 km/h 100,00 %
22.04.2019 03:33 11,1 C 67 % 1013,1 hPa 0,0 l/m 0,0 km/h N-NO 20 0 min 0,000 mm 0,0 UV-I 0 W/m 5,2 C 11,1 C 0,0 km/h 100,00 %
22.04.2019 03:32 11,1 C 67 % 1013,2 hPa 0,0 l/m 0,0 km/h N-NO 20 0 min 0,000 mm 0,0 UV-I 0 W/m 5,2 C 11,1 C 0,0 km/h 100,00 %
22.04.2019 03:31 11,1 C 66 % 1013,2 hPa 0,0 l/m 0,0 km/h N-NO 20 0 min 0,000 mm 0,0 UV-I 0 W/m 5,0 C 11,1 C 0,0 km/h 100,00 %
22.04.2019 03:30 11,2 C 66 % 1013,2 hPa 0,0 l/m 0,0 km/h N-NO 20 0 min 0,000 mm 0,0 UV-I 0 W/m 5,1 C 11,2 C 0,0 km/h 100,00 %
22.04.2019 03:29 11,2 C 66 % 1013,2 hPa 0,0 l/m 0,0 km/h N-NO 20 0 min 0,000 mm 0,0 UV-I 0 W/m 5,1 C 11,2 C 0,0 km/h 100,00 %
22.04.2019 03:28 11,2 C 66 % 1013,2 hPa 0,0 l/m 0,0 km/h N-NO 20 0 min 0,000 mm 0,0 UV-I 0 W/m 5,1 C 11,2 C 0,0 km/h 100,00 %
22.04.2019 03:27 11,2 C 66 % 1013,2 hPa 0,0 l/m 0,0 km/h N-NO 20 0 min 0,000 mm 0,0 UV-I 0 W/m 5,1 C 11,2 C 0,0 km/h 96,15 %
22.04.2019 03:26 11,2 C 66 % 1013,2 hPa 0,0 l/m 0,0 km/h N-NO 20 0 min 0,000 mm 0,0 UV-I 0 W/m 5,1 C 11,2 C 0,0 km/h 100,00 %
22.04.2019 03:25 11,3 C 66 % 1013,3 hPa 0,0 l/m 0,0 km/h N-NO 20 0 min 0,000 mm 0,0 UV-I 0 W/m 5,2 C 11,3 C 0,0 km/h 100,00 %
22.04.2019 03:24 11,3 C 66 % 1013,3 hPa 0,0 l/m 0,0 km/h N-NO 20 0 min 0,000 mm 0,0 UV-I 0 W/m 5,2 C 11,3 C 0,0 km/h 100,00 %
22.04.2019 03:23 11,3 C 65 % 1013,3 hPa 0,0 l/m 0,0 km/h N-NO 20 0 min 0,000 mm 0,0 UV-I 0 W/m 5,0 C 11,3 C 0,0 km/h 100,00 %
22.04.2019 03:22 11,4 C 65 % 1013,3 hPa 0,0 l/m 0,0 km/h N-NO 20 0 min 0,000 mm 0,0 UV-I 0 W/m 5,1 C 11,4 C 0,0 km/h 100,00 %
22.04.2019 03:21 11,4 C 65 % 1013,3 hPa 0,0 l/m 0,0 km/h N-NO 20 0 min 0,000 mm 0,0 UV-I 0 W/m 5,1 C 11,4 C 0,0 km/h 100,00 %
22.04.2019 03:20 11,5 C 65 % 1013,3 hPa 0,0 l/m 0,0 km/h N-NO 20 0 min 0,000 mm 0,0 UV-I 0 W/m 5,2 C 11,5 C 0,0 km/h 100,00 %
22.04.2019 03:19 11,6 C 65 % 1013,4 hPa 0,0 l/m 0,0 km/h N-NO 20 0 min 0,000 mm 0,0 UV-I 0 W/m 5,2 C 11,6 C 0,0 km/h 100,00 %
22.04.2019 03:18 11,6 C 65 % 1013,3 hPa 0,0 l/m 0,0 km/h N-NO 20 0 min 0,000 mm 0,0 UV-I 0 W/m 5,2 C 11,6 C 0,0 km/h 95,65 %
22.04.2019 03:17 11,6 C 65 % 1013,4 hPa 0,0 l/m 0,0 km/h N-NO 20 0 min 0,000 mm 0,0 UV-I 0 W/m 5,2 C 11,6 C 0,0 km/h 100,00 %
22.04.2019 03:16 11,6 C 65 % 1013,3 hPa 0,0 l/m 0,0 km/h N-NO 20 0 min 0,000 mm 0,0 UV-I 0 W/m 5,2 C 11,6 C 0,0 km/h 100,00 %
22.04.2019 03:15 11,7 C 65 % 1013,3 hPa 0,0 l/m 0,0 km/h N-NO 20 0 min 0,000 mm 0,0 UV-I 0 W/m 5,3 C 11,7 C 0,0 km/h 100,00 %
22.04.2019 03:14 11,7 C 64 % 1013,4 hPa 0,0 l/m 0,0 km/h N-NO 20 0 min 0,000 mm 0,0 UV-I 0 W/m 5,1 C 11,7 C 0,0 km/h 100,00 %
22.04.2019 03:13 11,7 C 64 % 1013,4 hPa 0,0 l/m 0,0 km/h N-NO 20 0 min 0,000 mm 0,0 UV-I 0 W/m 5,1 C 11,7 C 0,0 km/h 100,00 %
22.04.2019 03:12 11,8 C 64 % 1013,4 hPa 0,0 l/m 0,0 km/h N-NO 20 0 min 0,000 mm 0,0 UV-I 0 W/m 5,2 C 11,8 C 0,0 km/h 100,00 %
22.04.2019 03:11 11,8 C 64 % 1013,4 hPa 0,0 l/m 0,0 km/h N-NO 20 0 min 0,000 mm 0,0 UV-I 0 W/m 5,2 C 11,8 C 0,0 km/h 100,00 %
22.04.2019 03:10 11,9 C 63 % 1013,4 hPa 0,0 l/m 0,0 km/h N-NO 20 0 min 0,000 mm 0,0 UV-I 0 W/m 5,1 C 11,9 C 0,0 km/h 100,00 %
22.04.2019 03:09 11,9 C 63 % 1013,4 hPa 0,0 l/m 0,2 km/h N-NO 20 0 min 0,000 mm 0,0 UV-I 0 W/m 5,1 C 11,9 C 1,9 km/h 100,00 %
22.04.2019 03:08 12,0 C 63 % 1013,4 hPa 0,0 l/m 0,0 km/h N-NO 20 0 min 0,000 mm 0,0 UV-I 0 W/m 5,2 C 12,0 C 0,0 km/h 95,65 %
22.04.2019 03:07 12,1 C 63 % 1013,4 hPa 0,0 l/m 0,0 km/h N-NO 20 0 min 0,000 mm 0,0 UV-I 0 W/m 5,3 C 12,1 C 0,0 km/h 100,00 %
22.04.2019 03:06 12,1 C 63 % 1013,4 hPa 0,0 l/m 0,0 km/h N-NO 20 0 min 0,000 mm 0,0 UV-I 0 W/m 5,3 C 12,1 C 0,0 km/h 100,00 %
22.04.2019 03:05 12,1 C 62 % 1013,4 hPa 0,0 l/m 0,0 km/h N-NO 20 0 min 0,000 mm 0,0 UV-I 0 W/m 5,0 C 12,1 C 0,0 km/h 100,00 %
22.04.2019 03:04 12,2 C 62 % 1013,4 hPa 0,0 l/m 0,0 km/h N-NO 20 0 min 0,000 mm 0,0 UV-I 0 W/m 5,1 C 12,2 C 0,0 km/h 100,00 %
22.04.2019 03:03 12,2 C 62 % 1013,4 hPa 0,0 l/m 0,0 km/h N-NO 20 0 min 0,000 mm 0,0 UV-I 0 W/m 5,1 C 12,2 C 0,0 km/h 100,00 %
22.04.2019 03:02 12,3 C 62 % 1013,5 hPa 0,0 l/m 0,0 km/h N-NO 20 0 min 0,000 mm 0,0 UV-I 0 W/m 5,2 C 12,3 C 0,0 km/h 100,00 %
22.04.2019 03:01 12,4 C 62 % 1013,5 hPa 0,0 l/m 0,0 km/h N-NO 20 0 min 0,025 mm 0,0 UV-I 0 W/m 5,3 C 12,4 C 0,0 km/h 100,00 %
22.04.2019 03:00 12,5 C 61 % 1013,5 hPa 0,0 l/m 0,0 km/h N-NO 20 0 min 0,000 mm 0,0 UV-I 0 W/m 5,2 C 12,5 C 0,0 km/h 100,00 %
22.04.2019 02:59 12,6 C 61 % 1013,5 hPa 0,0 l/m 0,0 km/h N-NO 20 0 min 0,000 mm 0,0 UV-I 0 W/m 5,3 C 12,6 C 0,0 km/h 100,00 %
22.04.2019 02:58 12,7 C 61 % 1013,5 hPa 0,0 l/m 0,0 km/h N-NO 20 0 min 0,000 mm 0,0 UV-I 0 W/m 5,4 C 12,7 C 0,0 km/h 100,00 %
22.04.2019 02:57 12,7 C 61 % 1013,5 hPa 0,0 l/m 0,0 km/h N-NO 20 0 min 0,000 mm 0,0 UV-I 0 W/m 5,4 C 12,7 C 0,0 km/h 100,00 %
22.04.2019 02:56 12,8 C 60 % 1013,5 hPa 0,0 l/m 0,1 km/h N-NO 20 0 min 0,000 mm 0,0 UV-I 0 W/m 5,2 C 12,8 C 1,9 km/h 100,00 %
22.04.2019 02:55 12,8 C 60 % 1013,5 hPa 0,0 l/m 0,0 km/h N-NO 20 0 min 0,000 mm 0,0 UV-I 0 W/m 5,2 C 12,8 C 0,0 km/h 95,65 %
22.04.2019 02:54 12,9 C 60 % 1013,5 hPa 0,0 l/m 0,2 km/h N-NO 20 0 min 0,000 mm 0,0 UV-I 0 W/m 5,3 C 12,9 C 1,9 km/h 96,30 %
22.04.2019 02:53 12,9 C 60 % 1013,5 hPa 0,0 l/m 0,9 km/h N-NO 20 0 min 0,000 mm 0,0 UV-I 0 W/m 5,3 C 12,9 C 1,9 km/h 100,00 %
22.04.2019 02:52 13,0 C 60 % 1013,5 hPa 0,0 l/m 0,5 km/h N-NO 20 0 min 0,000 mm 0,0 UV-I 0 W/m 5,4 C 13,0 C 1,9 km/h 96,30 %
22.04.2019 02:51 13,1 C 60 % 1013,5 hPa 0,0 l/m 0,7 km/h N-NO 20 0 min 0,000 mm 0,0 UV-I 0 W/m 5,5 C 13,1 C 3,8 km/h 100,00 %
22.04.2019 02:50 13,1 C 60 % 1013,5 hPa 0,0 l/m 0,2 km/h N-NO 20 0 min 0,000 mm 0,0 UV-I 0 W/m 5,5 C 13,1 C 1,9 km/h 100,00 %
22.04.2019 02:49 13,1 C 59 % 1013,5 hPa 0,0 l/m 0,1 km/h N-NO 20 0 min 0,000 mm 0,0 UV-I 0 W/m 5,3 C 13,1 C 1,9 km/h 100,00 %
22.04.2019 02:48 13,1 C 59 % 1013,5 hPa 0,0 l/m 0,0 km/h N-NO 20 0 min 0,000 mm 0,0 UV-I 0 W/m 5,3 C 13,1 C 0,0 km/h 100,00 %
22.04.2019 02:47 13,1 C 59 % 1013,6 hPa 0,0 l/m 1,0 km/h N-NO 20 0 min 0,000 mm 0,0 UV-I 0 W/m 5,3 C 13,1 C 3,8 km/h 95,83 %
22.04.2019 02:46 13,1 C 59 % 1013,6 hPa 0,0 l/m 0,5 km/h N-NO 20 0 min 0,000 mm 0,0 UV-I 0 W/m 5,3 C 13,1 C 1,9 km/h 100,00 %
22.04.2019 02:45 13,1 C 59 % 1013,6 hPa 0,0 l/m 0,6 km/h N-NO 20 0 min 0,000 mm 0,0 UV-I 0 W/m 5,3 C 13,1 C 1,9 km/h 100,00 %
22.04.2019 02:44 13,2 C 59 % 1013,6 hPa 0,0 l/m 0,3 km/h N-NO 20 0 min 0,000 mm 0,0 UV-I 0 W/m 5,4 C 13,2 C 1,9 km/h 100,00 %
22.04.2019 02:43 13,2 C 59 % 1013,6 hPa 0,0 l/m 0,0 km/h N-NO 20 0 min 0,000 mm 0,0 UV-I 0 W/m 5,4 C 13,2 C 0,0 km/h 100,00 %
22.04.2019 02:42 13,2 C 59 % 1013,6 hPa 0,0 l/m 0,0 km/h N-NO 20 0 min 0,000 mm 0,0 UV-I 0 W/m 5,4 C 13,2 C 0,0 km/h 96,55 %
22.04.2019 02:41 13,2 C 59 % 1013,6 hPa 0,0 l/m 0,0 km/h N-NO 20 0 min 0,000 mm 0,0 UV-I 0 W/m 5,4 C 13,2 C 0,0 km/h 100,00 %
22.04.2019 02:40 13,2 C 59 % 1013,6 hPa 0,0 l/m 0,0 km/h N-NO 20 0 min 0,000 mm 0,0 UV-I 0 W/m 5,4 C 13,2 C 0,0 km/h 100,00 %
22.04.2019 02:39 13,2 C 59 % 1013,6 hPa 0,0 l/m 0,0 km/h N-NO 20 0 min 0,000 mm 0,0 UV-I 0 W/m 5,4 C 13,2 C 0,0 km/h 100,00 %
22.04.2019 02:38 13,2 C 59 % 1013,6 hPa 0,0 l/m 0,0 km/h N-NO 20 0 min 0,000 mm 0,0 UV-I 0 W/m 5,4 C 13,2 C 0,0 km/h 100,00 %
22.04.2019 02:37 13,3 C 59 % 1013,6 hPa 0,0 l/m 0,0 km/h N-NO 20 0 min 0,000 mm 0,0 UV-I 0 W/m 5,5 C 13,3 C 0,0 km/h 100,00 %
22.04.2019 02:36 13,2 C 59 % 1013,6 hPa 0,0 l/m 0,0 km/h N-NO 20 0 min 0,000 mm 0,0 UV-I 0 W/m 5,4 C 13,2 C 0,0 km/h 100,00 %
22.04.2019 02:35 13,3 C 59 % 1013,6 hPa 0,0 l/m 0,0 km/h N-NO 20 0 min 0,000 mm 0,0 UV-I 0 W/m 5,5 C 13,3 C 0,0 km/h 100,00 %
22.04.2019 02:34 13,3 C 59 % 1013,6 hPa 0,0 l/m 0,0 km/h N-NO 20 0 min 0,000 mm 0,0 UV-I 0 W/m 5,5 C 13,3 C 0,0 km/h 100,00 %
22.04.2019 02:33 13,3 C 58 % 1013,6 hPa 0,0 l/m 0,0 km/h N-NO 20 0 min 0,000 mm 0,0 UV-I 0 W/m 5,2 C 13,3 C 0,0 km/h 100,00 %
22.04.2019 02:32 13,3 C 58 % 1013,6 hPa 0,0 l/m 0,0 km/h N-NO 20 0 min 0,000 mm 0,0 UV-I 0 W/m 5,2 C 13,3 C 0,0 km/h 100,00 %
22.04.2019 02:31 13,3 C 59 % 1013,7 hPa 0,0 l/m 0,8 km/h N-NO 20 0 min 0,000 mm 0,0 UV-I 0 W/m 5,5 C 13,3 C 1,9 km/h 100,00 %
22.04.2019 02:30 13,3 C 59 % 1013,6 hPa 0,0 l/m 1,0 km/h N-NO 20 0 min 0,000 mm 0,0 UV-I 0 W/m 5,5 C 13,3 C 3,8 km/h 100,00 %
22.04.2019 02:29 13,3 C 59 % 1013,7 hPa 0,0 l/m 1,5 km/h N-NO 20 0 min 0,000 mm 0,0 UV-I 0 W/m 5,5 C 13,3 C 5,7 km/h 100,00 %
22.04.2019 02:28 13,3 C 59 % 1013,7 hPa 0,0 l/m 0,1 km/h N 9 0 min 0,000 mm 0,0 UV-I 0 W/m 5,5 C 13,3 C 1,9 km/h 100,00 %
22.04.2019 02:27 13,3 C 59 % 1013,7 hPa 0,0 l/m 0,2 km/h N 9 0 min 0,000 mm 0,0 UV-I 0 W/m 5,5 C 13,3 C 1,9 km/h 100,00 %
22.04.2019 02:26 13,3 C 59 % 1013,7 hPa 0,0 l/m 0,1 km/h N 9 0 min 0,000 mm 0,0 UV-I 0 W/m 5,5 C 13,3 C 1,9 km/h 100,00 %
22.04.2019 02:25 13,3 C 58 % 1013,7 hPa 0,0 l/m 0,0 km/h N 9 0 min 0,000 mm 0,0 UV-I 0 W/m 5,2 C 13,3 C 0,0 km/h 95,65 %
22.04.2019 02:24 13,3 C 58 % 1013,7 hPa 0,0 l/m 0,1 km/h N 9 0 min 0,000 mm 0,0 UV-I 0 W/m 5,2 C 13,3 C 1,9 km/h 100,00 %
22.04.2019 02:23 13,3 C 58 % 1013,7 hPa 0,0 l/m 0,0 km/h N 9 0 min 0,000 mm 0,0 UV-I 0 W/m 5,2 C 13,3 C 0,0 km/h 100,00 %
22.04.2019 02:22 13,3 C 58 % 1013,7 hPa 0,0 l/m 0,0 km/h N 9 0 min 0,000 mm 0,0 UV-I 0 W/m 5,2 C 13,3 C 0,0 km/h 100,00 %
22.04.2019 02:21 13,3 C 58 % 1013,7 hPa 0,0 l/m 0,1 km/h N 9 0 min 0,000 mm 0,0 UV-I 0 W/m 5,2 C 13,3 C 1,9 km/h 100,00 %
22.04.2019 02:20 13,3 C 59 % 1013,7 hPa 0,0 l/m 0,1 km/h N 9 0 min 0,000 mm 0,0 UV-I 0 W/m 5,5 C 13,3 C 1,9 km/h 95,83 %
22.04.2019 02:19 13,3 C 58 % 1013,7 hPa 0,0 l/m 0,0 km/h N 9 0 min 0,000 mm 0,0 UV-I 0 W/m 5,2 C 13,3 C 0,0 km/h 100,00 %
22.04.2019 02:18 13,3 C 58 % 1013,7 hPa 0,0 l/m 0,0 km/h N 9 0 min 0,000 mm 0,0 UV-I 0 W/m 5,2 C 13,3 C 0,0 km/h 100,00 %
22.04.2019 02:17 13,4 C 58 % 1013,7 hPa 0,0 l/m 0,1 km/h N 9 0 min 0,000 mm 0,0 UV-I 0 W/m 5,3 C 13,4 C 1,9 km/h 100,00 %
22.04.2019 02:16 13,4 C 58 % 1013,7 hPa 0,0 l/m 0,0 km/h N 9 0 min 0,000 mm 0,0 UV-I 0 W/m 5,3 C 13,4 C 0,0 km/h 100,00 %
22.04.2019 02:15 13,4 C 58 % 1013,7 hPa 0,0 l/m 0,0 km/h N 9 0 min 0,000 mm 0,0 UV-I 0 W/m 5,3 C 13,4 C 0,0 km/h 100,00 %
22.04.2019 02:14 13,4 C 58 % 1013,7 hPa 0,0 l/m 0,0 km/h N 9 0 min 0,000 mm 0,0 UV-I 0 W/m 5,3 C 13,4 C 0,0 km/h 100,00 %
22.04.2019 02:13 13,4 C 58 % 1013,7 hPa 0,0 l/m 0,1 km/h N 9 0 min 0,000 mm 0,0 UV-I 0 W/m 5,3 C 13,4 C 1,9 km/h 100,00 %
22.04.2019 02:12 13,4 C 58 % 1013,7 hPa 0,0 l/m 0,1 km/h N 9 0 min 0,000 mm 0,0 UV-I 0 W/m 5,3 C 13,4 C 1,9 km/h 100,00 %
22.04.2019 02:11 13,4 C 58 % 1013,8 hPa 0,0 l/m 0,1 km/h N 9 0 min 0,000 mm 0,0 UV-I 0 W/m 5,3 C 13,4 C 1,9 km/h 100,00 %
22.04.2019 02:10 13,4 C 58 % 1013,8 hPa 0,0 l/m 0,0 km/h N 9 0 min 0,000 mm 0,0 UV-I 0 W/m 5,3 C 13,4 C 0,0 km/h 100,00 %
22.04.2019 02:09 13,4 C 58 % 1013,8 hPa 0,0 l/m 0,2 km/h N 9 0 min 0,000 mm 0,0 UV-I 0 W/m 5,3 C 13,4 C 1,9 km/h 100,00 %
22.04.2019 02:08 13,4 C 58 % 1013,9 hPa 0,0 l/m 0,2 km/h N 9 0 min 0,000 mm 0,0 UV-I 0 W/m 5,3 C 13,4 C 1,9 km/h 100,00 %
22.04.2019 02:07 13,4 C 58 % 1013,9 hPa 0,0 l/m 0,8 km/h N 9 0 min 0,000 mm 0,0 UV-I 0 W/m 5,3 C 13,4 C 1,9 km/h 100,00 %
22.04.2019 02:06 13,3 C 58 % 1013,9 hPa 0,0 l/m 0,7 km/h N 9 0 min 0,000 mm 0,0 UV-I 0 W/m 5,2 C 13,3 C 1,9 km/h 100,00 %
22.04.2019 02:05 13,3 C 58 % 1013,9 hPa 0,0 l/m 1,9 km/h N 9 0 min 0,000 mm 0,0 UV-I 0 W/m 5,2 C 13,3 C 3,8 km/h 100,00 %
22.04.2019 02:04 13,3 C 58 % 1013,9 hPa 0,0 l/m 0,9 km/h N 5 0 min 0,000 mm 0,0 UV-I 0 W/m 5,2 C 13,3 C 3,8 km/h 100,00 %
22.04.2019 02:03 13,3 C 58 % 1013,9 hPa 0,0 l/m 0,6 km/h N 5 0 min 0,000 mm 0,0 UV-I 0 W/m 5,2 C 13,3 C 1,9 km/h 100,00 %
22.04.2019 02:02 13,3 C 59 % 1013,9 hPa 0,0 l/m 1,3 km/h N 5 0 min 0,000 mm 0,0 UV-I 0 W/m 5,5 C 13,3 C 3,8 km/h 100,00 %
22.04.2019 02:01 13,3 C 59 % 1013,9 hPa 0,0 l/m 0,2 km/h N 5 0 min 0,000 mm 0,0 UV-I 0 W/m 5,5 C 13,3 C 1,9 km/h 100,00 %
22.04.2019 02:00 13,3 C 58 % 1013,9 hPa 0,0 l/m 0,1 km/h N 5 0 min 0,026 mm 0,0 UV-I 0 W/m 5,2 C 13,3 C 1,9 km/h 100,00 %
22.04.2019 01:59 13,3 C 58 % 1013,9 hPa 0,0 l/m 0,8 km/h N 5 0 min 0,000 mm 0,0 UV-I 0 W/m 5,2 C 13,3 C 1,9 km/h 100,00 %
22.04.2019 01:58 13,3 C 58 % 1014,0 hPa 0,0 l/m 1,2 km/h N 5 0 min 0,000 mm 0,0 UV-I 0 W/m 5,2 C 13,3 C 3,8 km/h 100,00 %
22.04.2019 01:57 13,3 C 59 % 1014,0 hPa 0,0 l/m 0,0 km/h N 360 0 min 0,000 mm 0,0 UV-I 0 W/m 5,5 C 13,3 C 0,0 km/h 100,00 %
22.04.2019 01:56 13,3 C 59 % 1013,9 hPa 0,0 l/m 0,0 km/h N 360 0 min 0,000 mm 0,0 UV-I 0 W/m 5,5 C 13,3 C 0,0 km/h 95,83 %
22.04.2019 01:55 13,3 C 59 % 1014,0 hPa 0,0 l/m 1,0 km/h N 360 0 min 0,000 mm 0,0 UV-I 0 W/m 5,5 C 13,3 C 3,8 km/h 100,00 %
22.04.2019 01:54 13,3 C 59 % 1014,0 hPa 0,0 l/m 0,1 km/h N 360 0 min 0,000 mm 0,0 UV-I 0 W/m 5,5 C 13,3 C 1,9 km/h 100,00 %
22.04.2019 01:53 13,3 C 59 % 1014,0 hPa 0,0 l/m 0,0 km/h N 360 0 min 0,000 mm 0,0 UV-I 0 W/m 5,5 C 13,3 C 0,0 km/h 100,00 %
22.04.2019 01:52 13,3 C 59 % 1014,0 hPa 0,0 l/m 0,1 km/h N 360 0 min 0,000 mm 0,0 UV-I 0 W/m 5,5 C 13,3 C 1,9 km/h 100,00 %
22.04.2019 01:51 13,3 C 59 % 1014,0 hPa 0,0 l/m 0,1 km/h N 360 0 min 0,000 mm 0,0 UV-I 0 W/m 5,5 C 13,3 C 1,9 km/h 100,00 %
22.04.2019 01:50 13,3 C 59 % 1014,0 hPa 0,0 l/m 0,1 km/h N 360 0 min 0,000 mm 0,0 UV-I 0 W/m 5,5 C 13,3 C 1,9 km/h 100,00 %
22.04.2019 01:49 13,3 C 59 % 1014,0 hPa 0,0 l/m 0,0 km/h N 360 0 min 0,000 mm 0,0 UV-I 0 W/m 5,5 C 13,3 C 0,0 km/h 95,65 %
22.04.2019 01:48 13,3 C 59 % 1014,0 hPa 0,0 l/m 0,0 km/h N 360 0 min 0,000 mm 0,0 UV-I 0 W/m 5,5 C 13,3 C 0,0 km/h 100,00 %
22.04.2019 01:47 13,3 C 59 % 1014,0 hPa 0,0 l/m 0,0 km/h N 360 0 min 0,000 mm 0,0 UV-I 0 W/m 5,5 C 13,3 C 0,0 km/h 100,00 %
22.04.2019 01:46 13,3 C 59 % 1014,0 hPa 0,0 l/m 0,1 km/h N 360 0 min 0,000 mm 0,0 UV-I 0 W/m 5,5 C 13,3 C 1,9 km/h 100,00 %
22.04.2019 01:45 13,2 C 59 % 1014,0 hPa 0,0 l/m 0,0 km/h N 360 0 min 0,000 mm 0,0 UV-I 0 W/m 5,4 C 13,2 C 0,0 km/h 100,00 %
22.04.2019 01:44 13,2 C 59 % 1014,0 hPa 0,0 l/m 0,1 km/h N 360 0 min 0,000 mm 0,0 UV-I 0 W/m 5,4 C 13,2 C 1,9 km/h 100,00 %
22.04.2019 01:43 13,2 C 59 % 1014,1 hPa 0,0 l/m 0,0 km/h N 360 0 min 0,000 mm 0,0 UV-I 0 W/m 5,4 C 13,2 C 0,0 km/h 100,00 %
22.04.2019 01:42 13,2 C 59 % 1014,0 hPa 0,0 l/m 0,0 km/h N 360 0 min 0,000 mm 0,0 UV-I 0 W/m 5,4 C 13,2 C 0,0 km/h 100,00 %
22.04.2019 01:41 13,2 C 59 % 1014,1 hPa 0,0 l/m 0,0 km/h N 360 0 min 0,000 mm 0,0 UV-I 0 W/m 5,4 C 13,2 C 0,0 km/h 100,00 %
22.04.2019 01:40 13,2 C 59 % 1014,1 hPa 0,0 l/m 0,3 km/h N 360 0 min 0,000 mm 0,0 UV-I 0 W/m 5,4 C 13,2 C 1,9 km/h 100,00 %
22.04.2019 01:39 13,1 C 59 % 1014,1 hPa 0,0 l/m 0,0 km/h N 360 0 min 0,000 mm 0,0 UV-I 0 W/m 5,3 C 13,1 C 0,0 km/h 100,00 %
22.04.2019 01:38 13,2 C 60 % 1014,1 hPa 0,0 l/m 0,0 km/h N 360 0 min 0,000 mm 0,0 UV-I 0 W/m 5,6 C 13,2 C 0,0 km/h 100,00 %
22.04.2019 01:37 13,1 C 60 % 1014,0 hPa 0,0 l/m 0,2 km/h N 360 0 min 0,000 mm 0,0 UV-I 0 W/m 5,5 C 13,1 C 1,9 km/h 100,00 %
22.04.2019 01:36 13,1 C 60 % 1014,0 hPa 0,0 l/m 0,0 km/h N 360 0 min 0,000 mm 0,0 UV-I 0 W/m 5,5 C 13,1 C 0,0 km/h 100,00 %
22.04.2019 01:35 13,1 C 60 % 1014,1 hPa 0,0 l/m 0,0 km/h N 360 0 min 0,000 mm 0,0 UV-I 0 W/m 5,5 C 13,1 C 0,0 km/h 100,00 %
22.04.2019 01:34 13,1 C 60 % 1014,1 hPa 0,0 l/m 0,2 km/h N 360 0 min 0,000 mm 0,0 UV-I 0 W/m 5,5 C 13,1 C 1,9 km/h 100,00 %
22.04.2019 01:33 13,1 C 60 % 1014,1 hPa 0,0 l/m 0,0 km/h N 360 0 min 0,000 mm 0,0 UV-I 0 W/m 5,5 C 13,1 C 0,0 km/h 100,00 %
22.04.2019 01:32 13,1 C 60 % 1014,1 hPa 0,0 l/m 0,3 km/h N 360 0 min 0,000 mm 0,0 UV-I 0 W/m 5,5 C 13,1 C 1,9 km/h 95,65 %
22.04.2019 01:31 13,0 C 60 % 1014,1 hPa 0,0 l/m 0,0 km/h N 360 0 min 0,000 mm 0,0 UV-I 0 W/m 5,4 C 13,0 C 0,0 km/h 100,00 %
22.04.2019 01:30 13,0 C 60 % 1014,1 hPa 0,0 l/m 0,0 km/h N 360 0 min 0,000 mm 0,0 UV-I 0 W/m 5,4 C 13,0 C 0,0 km/h 100,00 %
22.04.2019 01:29 13,0 C 60 % 1014,1 hPa 0,0 l/m 0,0 km/h N 360 0 min 0,000 mm 0,0 UV-I 0 W/m 5,4 C 13,0 C 0,0 km/h 100,00 %
22.04.2019 01:28 13,0 C 60 % 1014,1 hPa 0,0 l/m 0,0 km/h N 360 0 min 0,000 mm 0,0 UV-I 0 W/m 5,4 C 13,0 C 0,0 km/h 100,00 %
22.04.2019 01:27 13,0 C 60 % 1014,1 hPa 0,0 l/m 0,0 km/h N 360 0 min 0,000 mm 0,0 UV-I 0 W/m 5,4 C 13,0 C 0,0 km/h 100,00 %
22.04.2019 01:26 13,0 C 61 % 1014,2 hPa 0,0 l/m 0,0 km/h N 360 0 min 0,000 mm 0,0 UV-I 0 W/m 5,7 C 13,0 C 0,0 km/h 100,00 %
22.04.2019 01:25 13,0 C 61 % 1014,1 hPa 0,0 l/m 0,0 km/h N 360 0 min 0,000 mm 0,0 UV-I 0 W/m 5,7 C 13,0 C 0,0 km/h 95,65 %
22.04.2019 01:24 13,0 C 61 % 1014,1 hPa 0,0 l/m 0,0 km/h N 360 0 min 0,000 mm 0,0 UV-I 0 W/m 5,7 C 13,0 C 0,0 km/h 95,83 %
22.04.2019 01:23 13,0 C 61 % 1014,2 hPa 0,0 l/m 0,0 km/h N 360 0 min 0,000 mm 0,0 UV-I 0 W/m 5,7 C 13,0 C 0,0 km/h 100,00 %
22.04.2019 01:22 13,0 C 60 % 1014,2 hPa 0,0 l/m 0,2 km/h N 360 0 min 0,000 mm 0,0 UV-I 0 W/m 5,4 C 13,0 C 1,9 km/h 100,00 %
22.04.2019 01:21 13,1 C 60 % 1014,2 hPa 0,0 l/m 0,0 km/h N 360 0 min 0,000 mm 0,0 UV-I 0 W/m 5,5 C 13,1 C 0,0 km/h 100,00 %
22.04.2019 01:20 13,1 C 60 % 1014,2 hPa 0,0 l/m 0,0 km/h N 360 0 min 0,000 mm 0,0 UV-I 0 W/m 5,5 C 13,1 C 0,0 km/h 100,00 %
22.04.2019 01:19 13,1 C 60 % 1014,2 hPa 0,0 l/m 0,0 km/h N 360 0 min 0,000 mm 0,0 UV-I 0 W/m 5,5 C 13,1 C 0,0 km/h 96,15 %
22.04.2019 01:18 13,1 C 60 % 1014,2 hPa 0,0 l/m 0,0 km/h N 360 0 min 0,000 mm 0,0 UV-I 0 W/m 5,5 C 13,1 C 0,0 km/h 100,00 %
22.04.2019 01:17 13,2 C 60 % 1014,2 hPa 0,0 l/m 0,0 km/h N 360 0 min 0,000 mm 0,0 UV-I 0 W/m 5,6 C 13,2 C 0,0 km/h 100,00 %
22.04.2019 01:16 13,2 C 60 % 1014,2 hPa 0,0 l/m 0,0 km/h N 360 0 min 0,000 mm 0,0 UV-I 0 W/m 5,6 C 13,2 C 0,0 km/h 100,00 %
22.04.2019 01:15 13,2 C 59 % 1014,2 hPa 0,0 l/m 0,0 km/h N 360 0 min 0,000 mm 0,0 UV-I 0 W/m 5,4 C 13,2 C 0,0 km/h 100,00 %
22.04.2019 01:14 13,3 C 59 % 1014,2 hPa 0,0 l/m 0,0 km/h N 360 0 min 0,000 mm 0,0 UV-I 0 W/m 5,5 C 13,3 C 0,0 km/h 100,00 %
22.04.2019 01:13 13,3 C 59 % 1014,3 hPa 0,0 l/m 0,0 km/h N 360 0 min 0,000 mm 0,0 UV-I 0 W/m 5,5 C 13,3 C 0,0 km/h 100,00 %
22.04.2019 01:12 13,4 C 59 % 1014,3 hPa 0,0 l/m 0,0 km/h N 360 0 min 0,000 mm 0,0 UV-I 0 W/m 5,6 C 13,4 C 0,0 km/h 100,00 %
22.04.2019 01:11 13,4 C 59 % 1014,2 hPa 0,0 l/m 0,0 km/h N 360 0 min 0,000 mm 0,0 UV-I 0 W/m 5,6 C 13,4 C 0,0 km/h 100,00 %
22.04.2019 01:10 13,5 C 59 % 1014,2 hPa 0,0 l/m 0,0 km/h N 360 0 min 0,000 mm 0,0 UV-I 0 W/m 5,6 C 13,5 C 0,0 km/h 100,00 %
22.04.2019 01:09 13,6 C 59 % 1014,2 hPa 0,0 l/m 0,0 km/h N 360 0 min 0,000 mm 0,0 UV-I 0 W/m 5,7 C 13,6 C 0,0 km/h 100,00 %
22.04.2019 01:08 13,6 C 59 % 1014,2 hPa 0,0 l/m 0,0 km/h N 360 0 min 0,000 mm 0,0 UV-I 0 W/m 5,7 C 13,6 C 0,0 km/h 100,00 %
22.04.2019 01:07 13,6 C 59 % 1014,3 hPa 0,0 l/m 0,0 km/h N 360 0 min 0,000 mm 0,0 UV-I 0 W/m 5,7 C 13,6 C 0,0 km/h 96,67 %
22.04.2019 01:06 13,7 C 59 % 1014,3 hPa 0,0 l/m 0,0 km/h N 360 0 min 0,000 mm 0,0 UV-I 0 W/m 5,8 C 13,7 C 0,0 km/h 100,00 %
22.04.2019 01:05 13,7 C 59 % 1014,3 hPa 0,0 l/m 0,0 km/h N 360 0 min 0,000 mm 0,0 UV-I 0 W/m 5,8 C 13,7 C 0,0 km/h 100,00 %
22.04.2019 01:04 13,7 C 59 % 1014,2 hPa 0,0 l/m 0,0 km/h N 360 0 min 0,000 mm 0,0 UV-I 0 W/m 5,8 C 13,7 C 0,0 km/h 100,00 %
22.04.2019 01:03 13,7 C 58 % 1014,3 hPa 0,0 l/m 0,0 km/h N 360 0 min 0,000 mm 0,0 UV-I 0 W/m 5,6 C 13,7 C 0,0 km/h 100,00 %
22.04.2019 01:02 13,8 C 58 % 1014,3 hPa 0,0 l/m 0,0 km/h N 360 0 min 0,000 mm 0,0 UV-I 0 W/m 5,7 C 13,8 C 0,0 km/h 100,00 %
22.04.2019 01:01 13,8 C 57 % 1014,3 hPa 0,0 l/m 0,0 km/h N 360 0 min 0,000 mm 0,0 UV-I 0 W/m 5,4 C 13,8 C 0,0 km/h 100,00 %
22.04.2019 01:00 13,9 C 57 % 1014,3 hPa 0,0 l/m 0,0 km/h N 360 0 min 0,025 mm 0,0 UV-I 0 W/m 5,5 C 13,9 C 0,0 km/h 100,00 %
22.04.2019 00:59 13,9 C 57 % 1014,3 hPa 0,0 l/m 0,0 km/h N 360 0 min 0,000 mm 0,0 UV-I 0 W/m 5,5 C 13,9 C 0,0 km/h 100,00 %
22.04.2019 00:58 13,9 C 57 % 1014,3 hPa 0,0 l/m 0,0 km/h N 360 0 min 0,000 mm 0,0 UV-I 0 W/m 5,5 C 13,9 C 0,0 km/h 100,00 %
22.04.2019 00:57 14,0 C 58 % 1014,4 hPa 0,0 l/m 0,0 km/h N 360 0 min 0,000 mm 0,0 UV-I 0 W/m 5,9 C 14,0 C 0,0 km/h 100,00 %
22.04.2019 00:56 14,1 C 58 % 1014,4 hPa 0,0 l/m 0,0 km/h N 360 0 min 0,000 mm 0,0 UV-I 0 W/m 6,0 C 14,1 C 0,0 km/h 100,00 %
22.04.2019 00:55 14,1 C 58 % 1014,4 hPa 0,0 l/m 0,0 km/h N 360 0 min 0,000 mm 0,0 UV-I 0 W/m 6,0 C 14,1 C 0,0 km/h 100,00 %
22.04.2019 00:54 14,1 C 58 % 1014,3 hPa 0,0 l/m 0,0 km/h N 360 0 min 0,000 mm 0,0 UV-I 0 W/m 6,0 C 14,1 C 0,0 km/h 95,83 %
22.04.2019 00:53 14,1 C 58 % 1014,3 hPa 0,0 l/m 0,0 km/h N 360 0 min 0,000 mm 0,0 UV-I 0 W/m 6,0 C 14,1 C 0,0 km/h 100,00 %
22.04.2019 00:52 14,1 C 58 % 1014,4 hPa 0,0 l/m 0,0 km/h N 360 0 min 0,000 mm 0,0 UV-I 0 W/m 6,0 C 14,1 C 0,0 km/h 95,83 %
22.04.2019 00:51 14,1 C 57 % 1014,4 hPa 0,0 l/m 0,0 km/h N 360 0 min 0,000 mm 0,0 UV-I 0 W/m 5,7 C 14,1 C 0,0 km/h 100,00 %
22.04.2019 00:50 14,1 C 57 % 1014,4 hPa 0,0 l/m 0,0 km/h N 360 0 min 0,000 mm 0,0 UV-I 0 W/m 5,7 C 14,1 C 0,0 km/h 95,83 %
22.04.2019 00:49 14,1 C 57 % 1014,4 hPa 0,0 l/m 0,0 km/h N 360 0 min 0,000 mm 0,0 UV-I 0 W/m 5,7 C 14,1 C 0,0 km/h 96,15 %
22.04.2019 00:48 14,1 C 57 % 1014,4 hPa 0,0 l/m 0,0 km/h N 360 0 min 0,000 mm 0,0 UV-I 0 W/m 5,7 C 14,1 C 0,0 km/h 97,73 %
22.04.2019 00:47 14,1 C 57 % 1014,4 hPa 0,0 l/m 0,0 km/h N 360 0 min 0,000 mm 0,0 UV-I 0 W/m 5,7 C 14,1 C 0,0 km/h 97,11 %
22.04.2019 00:46 14,2 C 57 % 1014,4 hPa 0,0 l/m 0,0 km/h N 360 0 min 0,000 mm 0,0 UV-I 0 W/m 5,8 C 14,2 C 0,0 km/h 100,00 %
22.04.2019 00:45 14,2 C 57 % 1014,5 hPa 0,0 l/m 0,0 km/h N 360 0 min 0,000 mm 0,0 UV-I 0 W/m 5,8 C 14,2 C 0,0 km/h 95,65 %
22.04.2019 00:44 14,2 C 57 % 1014,4 hPa 0,0 l/m 0,0 km/h N 360 0 min 0,000 mm 0,0 UV-I 0 W/m 5,8 C 14,2 C 0,0 km/h 100,00 %
22.04.2019 00:43 14,2 C 56 % 1014,5 hPa 0,0 l/m 0,0 km/h N 360 0 min 0,000 mm 0,0 UV-I 0 W/m 5,6 C 14,2 C 0,0 km/h 95,65 %
22.04.2019 00:42 14,2 C 56 % 1014,4 hPa 0,0 l/m 0,0 km/h N 360 0 min 0,000 mm 0,0 UV-I 0 W/m 5,6 C 14,2 C 0,0 km/h 95,83 %
22.04.2019 00:41 14,2 C 56 % 1014,5 hPa 0,0 l/m 0,0 km/h N 360 0 min 0,000 mm 0,0 UV-I 0 W/m 5,6 C 14,2 C 0,0 km/h 100,00 %
22.04.2019 00:40 14,2 C 56 % 1014,4 hPa 0,0 l/m 0,0 km/h N 360 0 min 0,000 mm 0,0 UV-I 0 W/m 5,6 C 14,2 C 0,0 km/h 100,00 %
22.04.2019 00:39 14,2 C 56 % 1014,5 hPa 0,0 l/m 0,0 km/h N 360 0 min 0,000 mm 0,0 UV-I 0 W/m 5,6 C 14,2 C 0,0 km/h 95,65 %
22.04.2019 00:38 14,2 C 56 % 1014,5 hPa 0,0 l/m 0,0 km/h N 360 0 min 0,000 mm 0,0 UV-I 0 W/m 5,6 C 14,2 C 0,0 km/h 95,83 %
22.04.2019 00:37 14,2 C 55 % 1014,5 hPa 0,0 l/m 0,0 km/h N 360 0 min 0,000 mm 0,0 UV-I 0 W/m 5,3 C 14,2 C 0,0 km/h 100,00 %
22.04.2019 00:36 14,2 C 55 % 1014,5 hPa 0,0 l/m 0,0 km/h N 360 0 min 0,000 mm 0,0 UV-I 0 W/m 5,3 C 14,2 C 0,0 km/h 96,15 %
22.04.2019 00:35 14,3 C 55 % 1014,4 hPa 0,0 l/m 0,0 km/h N 360 0 min 0,000 mm 0,0 UV-I 0 W/m 5,4 C 14,3 C 0,0 km/h 100,00 %
22.04.2019 00:34 14,3 C 55 % 1014,5 hPa 0,0 l/m 0,0 km/h N 360 0 min 0,000 mm 0,0 UV-I 0 W/m 5,4 C 14,3 C 0,0 km/h 95,83 %
22.04.2019 00:33 14,3 C 54 % 1014,4 hPa 0,0 l/m 0,0 km/h N 360 0 min 0,000 mm 0,0 UV-I 0 W/m 5,1 C 14,3 C 0,0 km/h 95,65 %
22.04.2019 00:32 14,3 C 54 % 1014,5 hPa 0,0 l/m 0,0 km/h N 360 0 min 0,000 mm 0,0 UV-I 0 W/m 5,1 C 14,3 C 0,0 km/h 100,00 %
22.04.2019 00:31 14,3 C 55 % 1014,5 hPa 0,0 l/m 0,0 km/h N 360 0 min 0,000 mm 0,0 UV-I 0 W/m 5,4 C 14,3 C 0,0 km/h 100,00 %
22.04.2019 00:30 14,3 C 55 % 1014,5 hPa 0,0 l/m 0,0 km/h N 360 0 min 0,000 mm 0,0 UV-I 0 W/m 5,4 C 14,3 C 0,0 km/h 97,14 %
22.04.2019 00:29 14,3 C 55 % 1014,5 hPa 0,0 l/m 0,0 km/h N 360 0 min 0,000 mm 0,0 UV-I 0 W/m 5,4 C 14,3 C 0,0 km/h 91,67 %
22.04.2019 00:28 14,2 C 55 % 1014,5 hPa 0,0 l/m 0,0 km/h N 360 0 min 0,000 mm 0,0 UV-I 0 W/m 5,3 C 14,2 C 0,0 km/h 100,00 %
22.04.2019 00:27 14,3 C 55 % 1014,5 hPa 0,0 l/m 0,0 km/h N 360 0 min 0,000 mm 0,0 UV-I 0 W/m 5,4 C 14,3 C 0,0 km/h 91,67 %
22.04.2019 00:26 14,3 C 55 % 1014,4 hPa 0,0 l/m 0,0 km/h N 360 0 min 0,000 mm 0,0 UV-I 0 W/m 5,4 C 14,3 C 0,0 km/h 100,00 %
22.04.2019 00:25 14,3 C 55 % 1014,5 hPa 0,0 l/m 0,0 km/h N 360 0 min 0,000 mm 0,0 UV-I 0 W/m 5,4 C 14,3 C 0,0 km/h 95,83 %
22.04.2019 00:24 14,3 C 55 % 1014,4 hPa 0,0 l/m 0,0 km/h N 360 0 min 0,000 mm 0,0 UV-I 0 W/m 5,4 C 14,3 C 0,0 km/h 100,00 %
22.04.2019 00:23 14,2 C 54 % 1014,4 hPa 0,0 l/m 0,0 km/h N 360 0 min 0,000 mm 0,0 UV-I 0 W/m 5,0 C 14,2 C 0,0 km/h 96,67 %
22.04.2019 00:22 14,3 C 54 % 1014,5 hPa 0,0 l/m 0,0 km/h N 360 0 min 0,000 mm 0,0 UV-I 0 W/m 5,1 C 14,3 C 0,0 km/h 95,65 %
22.04.2019 00:21 14,3 C 54 % 1014,5 hPa 0,0 l/m 0,0 km/h N 360 0 min 0,000 mm 0,0 UV-I 0 W/m 5,1 C 14,3 C 0,0 km/h 100,00 %
22.04.2019 00:20 14,3 C 54 % 1014,5 hPa 0,0 l/m 0,0 km/h N 360 0 min 0,000 mm 0,0 UV-I 0 W/m 5,1 C 14,3 C 0,0 km/h 91,30 %
22.04.2019 00:19 14,3 C 54 % 1014,5 hPa 0,0 l/m 0,0 km/h N 360 0 min 0,000 mm 0,0 UV-I 0 W/m 5,1 C 14,3 C 0,0 km/h 100,00 %
22.04.2019 00:18 14,3 C 54 % 1014,5 hPa 0,0 l/m 0,0 km/h N 360 0 min 0,000 mm 0,0 UV-I 0 W/m 5,1 C 14,3 C 0,0 km/h 96,15 %
22.04.2019 00:17 14,3 C 53 % 1014,5 hPa 0,0 l/m 0,0 km/h N 360 0 min 0,000 mm 0,0 UV-I 0 W/m 4,9 C 14,3 C 0,0 km/h 100,00 %
22.04.2019 00:16 14,3 C 53 % 1014,5 hPa 0,0 l/m 0,0 km/h N 360 0 min 0,000 mm 0,0 UV-I 0 W/m 4,9 C 14,3 C 0,0 km/h 95,83 %
22.04.2019 00:15 14,4 C 53 % 1014,5 hPa 0,0 l/m 0,0 km/h N 360 0 min 0,000 mm 0,0 UV-I 0 W/m 4,9 C 14,4 C 0,0 km/h 100,00 %
22.04.2019 00:14 14,4 C 53 % 1014,5 hPa 0,0 l/m 0,0 km/h N 360 0 min 0,000 mm 0,0 UV-I 0 W/m 4,9 C 14,4 C 0,0 km/h 96,55 %
22.04.2019 00:13 14,5 C 53 % 1014,5 hPa 0,0 l/m 0,0 km/h N 360 0 min 0,000 mm 0,0 UV-I 0 W/m 5,0 C 14,5 C 0,0 km/h 95,83 %
22.04.2019 00:12 14,6 C 52 % 1014,5 hPa 0,0 l/m 0,0 km/h N 360 0 min 0,000 mm 0,0 UV-I 0 W/m 4,9 C 14,6 C 0,0 km/h 91,30 %
22.04.2019 00:11 14,6 C 52 % 1014,5 hPa 0,0 l/m 0,0 km/h N 360 0 min 0,000 mm 0,0 UV-I 0 W/m 4,9 C 14,6 C 0,0 km/h 95,83 %
22.04.2019 00:10 14,7 C 52 % 1014,4 hPa 0,0 l/m 0,0 km/h N 360 0 min 0,000 mm 0,0 UV-I 0 W/m 5,0 C 14,7 C 0,0 km/h 100,00 %
22.04.2019 00:09 14,8 C 51 % 1014,5 hPa 0,0 l/m 0,0 km/h N 360 0 min 0,000 mm 0,0 UV-I 0 W/m 4,8 C 14,8 C 0,0 km/h 92,86 %
22.04.2019 00:08 14,8 C 51 % 1014,5 hPa 0,0 l/m 0,0 km/h N 360 0 min 0,000 mm 0,0 UV-I 0 W/m 4,8 C 14,8 C 0,0 km/h 100,00 %
22.04.2019 00:07 14,9 C 51 % 1014,5 hPa 0,0 l/m 0,0 km/h N 360 0 min 0,000 mm 0,0 UV-I 0 W/m 4,9 C 14,9 C 0,0 km/h 96,15 %
22.04.2019 00:06 15,0 C 50 % 1014,5 hPa 0,0 l/m 0,0 km/h N 360 0 min 0,000 mm 0,0 UV-I 0 W/m 4,7 C 15,0 C 0,0 km/h 96,67 %
22.04.2019 00:05 15,1 C 50 % 1014,5 hPa 0,0 l/m 0,0 km/h N 360 0 min 0,000 mm 0,0 UV-I 0 W/m 4,8 C 15,1 C 0,0 km/h 100,00 %
22.04.2019 00:04 15,2 C 50 % 1014,5 hPa 0,0 l/m 0,0 km/h N 360 0 min 0,000 mm 0,0 UV-I 0 W/m 4,8 C 15,2 C 0,0 km/h 92,59 %
22.04.2019 00:03 15,2 C 50 % 1014,5 hPa 0,0 l/m 0,0 km/h N 360 0 min 0,000 mm 0,0 UV-I 0 W/m 4,8 C 15,2 C 0,0 km/h 100,00 %
22.04.2019 00:02 15,3 C 49 % 1014,5 hPa 0,0 l/m 0,0 km/h N 360 0 min 0,000 mm 0,0 UV-I 0 W/m 4,7 C 15,3 C 0,0 km/h 91,67 %
22.04.2019 00:01 15,4 C 49 % 1014,5 hPa 0,0 l/m 0,0 km/h N 360 0 min 0,000 mm 0,0 UV-I 0 W/m 4,7 C 15,4 C 0,0 km/h 100,00 %
22.04.2019 00:00 15,4 C 49 % 1014,6 hPa 0,0 l/m 0,0 km/h N 360 0 min 0,000 mm 0,0 UV-I 0 W/m 4,7 C 15,4 C 0,0 km/h 91,67 %
21.04.2019 23:59 15,6 C 49 % 1014,5 hPa 0,0 l/m 0,0 km/h N 360 0 min 0,000 mm 0,0 UV-I 0 W/m 4,9 C 15,6 C 0,0 km/h 95,65 %
21.04.2019 23:58 15,6 C 49 % 1014,5 hPa 0,0 l/m 0,0 km/h N 360 0 min 0,000 mm 0,0 UV-I 0 W/m 4,9 C 15,6 C 0,0 km/h 95,83 %
21.04.2019 23:57 15,7 C 49 % 1014,6 hPa 0,0 l/m 0,0 km/h N 360 0 min 0,000 mm 0,0 UV-I 0 W/m 5,0 C 15,7 C 0,0 km/h 95,65 %
21.04.2019 23:56 15,7 C 49 % 1014,6 hPa 0,0 l/m 0,0 km/h N 360 0 min 0,000 mm 0,0 UV-I 0 W/m 5,0 C 15,7 C 0,0 km/h 100,00 %
21.04.2019 23:55 15,8 C 48 % 1014,6 hPa 0,0 l/m 0,0 km/h N 360 0 min 0,000 mm 0,0 UV-I 0 W/m 4,8 C 15,8 C 0,0 km/h 96,15 %
21.04.2019 23:54 15,9 C 47 % 1014,6 hPa 0,0 l/m 0,0 km/h N 360 0 min 0,000 mm 0,0 UV-I 0 W/m 4,6 C 15,9 C 0,0 km/h 100,00 %
21.04.2019 23:53 15,9 C 47 % 1014,6 hPa 0,0 l/m 0,0 km/h N 360 0 min 0,000 mm 0,0 UV-I 0 W/m 4,6 C 15,9 C 0,0 km/h 96,15 %
21.04.2019 23:52 16,1 C 47 % 1014,6 hPa 0,0 l/m 0,0 km/h N 360 0 min 0,000 mm 0,0 UV-I 0 W/m 4,8 C 16,1 C 0,0 km/h 100,00 %
21.04.2019 23:51 16,1 C 47 % 1014,6 hPa 0,0 l/m 0,0 km/h N 360 0 min 0,000 mm 0,0 UV-I 0 W/m 4,8 C 16,1 C 0,0 km/h 95,83 %
21.04.2019 23:50 16,2 C 47 % 1014,7 hPa 0,0 l/m 0,1 km/h N 360 0 min 0,000 mm 0,0 UV-I 0 W/m 4,9 C 16,2 C 1,9 km/h 95,65 %
21.04.2019 23:49 16,3 C 47 % 1014,6 hPa 0,0 l/m 0,0 km/h N 360 0 min 0,000 mm 0,0 UV-I 0 W/m 5,0 C 16,3 C 0,0 km/h 100,00 %
21.04.2019 23:48 16,3 C 46 % 1014,7 hPa 0,0 l/m 0,0 km/h N 360 0 min 0,000 mm 0,0 UV-I 0 W/m 4,7 C 16,3 C 0,0 km/h 100,00 %
21.04.2019 23:47 16,4 C 46 % 1014,6 hPa 0,0 l/m 0,0 km/h N 360 0 min 0,000 mm 0,0 UV-I 0 W/m 4,8 C 16,4 C 0,0 km/h 100,00 %
21.04.2019 23:46 16,5 C 46 % 1014,6 hPa 0,0 l/m 0,0 km/h N 360 0 min 0,000 mm 0,0 UV-I 0 W/m 4,8 C 16,5 C 0,0 km/h 100,00 %
21.04.2019 23:45 16,6 C 45 % 1014,7 hPa 0,0 l/m 0,0 km/h N 360 0 min 0,000 mm 0,0 UV-I 0 W/m 4,6 C 16,6 C 0,0 km/h 100,00 %
21.04.2019 23:44 16,6 C 45 % 1014,7 hPa 0,0 l/m 0,0 km/h N 360 0 min 0,000 mm 0,0 UV-I 0 W/m 4,6 C 16,6 C 0,0 km/h 100,00 %
21.04.2019 23:43 16,6 C 45 % 1014,7 hPa 0,0 l/m 0,1 km/h N 360 0 min 0,000 mm 0,0 UV-I 0 W/m 4,6 C 16,6 C 1,9 km/h 100,00 %
21.04.2019 23:42 16,7 C 45 % 1014,7 hPa 0,0 l/m 0,1 km/h N 360 0 min 0,000 mm 0,0 UV-I 0 W/m 4,7 C 16,7 C 1,9 km/h 91,30 %
21.04.2019 23:41 16,7 C 45 % 1014,7 hPa 0,0 l/m 0,0 km/h N 360 0 min 0,000 mm 0,0 UV-I 0 W/m 4,7 C 16,7 C 0,0 km/h 95,83 %
21.04.2019 23:40 16,7 C 45 % 1014,7 hPa 0,0 l/m 0,0 km/h N 360 0 min 0,000 mm 0,0 UV-I 0 W/m 4,7 C 16,7 C 0,0 km/h 100,00 %
21.04.2019 23:39 16,7 C 45 % 1014,7 hPa 0,0 l/m 0,1 km/h N 360 0 min 0,000 mm 0,0 UV-I 0 W/m 4,7 C 16,7 C 1,9 km/h 100,00 %
21.04.2019 23:38 16,8 C 44 % 1014,7 hPa 0,0 l/m 0,0 km/h N 360 0 min 0,000 mm 0,0 UV-I 0 W/m 4,5 C 16,8 C 0,0 km/h 100,00 %
21.04.2019 23:37 16,8 C 44 % 1014,7 hPa 0,0 l/m 0,0 km/h N 360 0 min 0,000 mm 0,0 UV-I 0 W/m 4,5 C 16,8 C 0,0 km/h 100,00 %
21.04.2019 23:36 16,8 C 44 % 1014,7 hPa 0,0 l/m 1,6 km/h N 360 0 min 0,000 mm 0,0 UV-I 0 W/m 4,5 C 16,8 C 3,8 km/h 100,00 %
21.04.2019 23:35 16,8 C 43 % 1014,7 hPa 0,0 l/m 2,2 km/h N 360 0 min 0,000 mm 0,0 UV-I 0 W/m 4,2 C 16,8 C 3,8 km/h 100,00 %
21.04.2019 23:34 16,8 C 43 % 1014,7 hPa 0,0 l/m 2,9 km/h N 360 0 min 0,000 mm 0,0 UV-I 0 W/m 4,2 C 16,8 C 3,8 km/h 100,00 %
21.04.2019 23:33 16,9 C 43 % 1014,7 hPa 0,0 l/m 2,8 km/h N 360 0 min 0,000 mm 0,0 UV-I 0 W/m 4,2 C 16,9 C 5,7 km/h 96,15 %
21.04.2019 23:32 16,9 C 43 % 1014,7 hPa 0,0 l/m 1,5 km/h N 360 0 min 0,000 mm 0,0 UV-I 0 W/m 4,2 C 16,9 C 3,8 km/h 100,00 %
21.04.2019 23:31 16,9 C 43 % 1014,7 hPa 0,0 l/m 2,2 km/h N 360 0 min 0,000 mm 0,0 UV-I 0 W/m 4,2 C 16,9 C 3,8 km/h 100,00 %
21.04.2019 23:30 16,9 C 43 % 1014,7 hPa 0,0 l/m 1,8 km/h N 360 0 min 0,000 mm 0,0 UV-I 0 W/m 4,2 C 16,9 C 3,8 km/h 100,00 %
21.04.2019 23:29 17,0 C 43 % 1014,7 hPa 0,0 l/m 2,9 km/h N 360 0 min 0,000 mm 0,0 UV-I 0 W/m 4,3 C 17,0 C 3,8 km/h 100,00 %
21.04.2019 23:28 17,0 C 43 % 1014,7 hPa 0,0 l/m 3,0 km/h N 360 0 min 0,000 mm 0,0 UV-I 0 W/m 4,3 C 17,0 C 5,7 km/h 100,00 %
21.04.2019 23:27 17,0 C 43 % 1014,7 hPa 0,0 l/m 2,6 km/h N 360 0 min 0,000 mm 0,0 UV-I 0 W/m 4,3 C 17,0 C 3,8 km/h 100,00 %
21.04.2019 23:26 17,0 C 43 % 1014,7 hPa 0,0 l/m 2,3 km/h N 360 0 min 0,000 mm 0,0 UV-I 0 W/m 4,3 C 17,0 C 3,8 km/h 100,00 %
21.04.2019 23:25 17,0 C 43 % 1014,7 hPa 0,0 l/m 4,2 km/h N 360 0 min 0,000 mm 0,0 UV-I 0 W/m 4,3 C 17,0 C 5,7 km/h 100,00 %
21.04.2019 23:24 17,1 C 43 % 1014,8 hPa 0,0 l/m 1,6 km/h N 360 0 min 0,000 mm 0,0 UV-I 0 W/m 4,4 C 17,1 C 3,8 km/h 95,83 %
21.04.2019 23:23 17,1 C 43 % 1014,7 hPa 0,0 l/m 3,1 km/h N 360 0 min 0,000 mm 0,0 UV-I 0 W/m 4,4 C 17,1 C 5,7 km/h 100,00 %
21.04.2019 23:22 17,1 C 43 % 1014,7 hPa 0,0 l/m 2,2 km/h N 360 0 min 0,000 mm 0,0 UV-I 0 W/m 4,4 C 17,1 C 3,8 km/h 100,00 %
21.04.2019 23:21 17,1 C 43 % 1014,7 hPa 0,0 l/m 2,2 km/h N 360 0 min 0,000 mm 0,0 UV-I 0 W/m 4,4 C 17,1 C 3,8 km/h 100,00 %
21.04.2019 23:20 17,1 C 43 % 1014,8 hPa 0,0 l/m 3,7 km/h N 360 0 min 0,000 mm 0,0 UV-I 0 W/m 4,4 C 17,1 C 5,7 km/h 100,00 %
21.04.2019 23:19 17,1 C 43 % 1014,8 hPa 0,0 l/m 3,6 km/h N 360 0 min 0,000 mm 0,0 UV-I 0 W/m 4,4 C 17,1 C 5,7 km/h 100,00 %
21.04.2019 23:18 17,1 C 43 % 1014,8 hPa 0,0 l/m 3,6 km/h N 360 0 min 0,000 mm 0,0 UV-I 0 W/m 4,4 C 17,1 C 5,7 km/h 100,00 %
21.04.2019 23:17 17,1 C 43 % 1014,8 hPa 0,0 l/m 3,1 km/h N 360 0 min 0,000 mm 0,0 UV-I 0 W/m 4,4 C 17,1 C 3,8 km/h 100,00 %
21.04.2019 23:16 17,1 C 43 % 1014,8 hPa 0,0 l/m 4,0 km/h N 360 0 min 0,000 mm 0,0 UV-I 0 W/m 4,4 C 17,1 C 5,7 km/h 100,00 %
21.04.2019 23:15 17,2 C 43 % 1014,8 hPa 0,0 l/m 3,2 km/h N 360 0 min 0,000 mm 0,0 UV-I 0 W/m 4,5 C 17,2 C 3,8 km/h 100,00 %
21.04.2019 23:14 17,1 C 43 % 1014,8 hPa 0,0 l/m 2,8 km/h N 360 0 min 0,000 mm 0,0 UV-I 0 W/m 4,4 C 17,1 C 5,7 km/h 100,00 %
21.04.2019 23:13 17,2 C 43 % 1014,8 hPa 0,0 l/m 2,4 km/h N 360 0 min 0,000 mm 0,0 UV-I 0 W/m 4,5 C 17,2 C 3,8 km/h 100,00 %
21.04.2019 23:12 17,1 C 43 % 1014,9 hPa 0,0 l/m 3,9 km/h N 360 0 min 0,000 mm 0,0 UV-I 0 W/m 4,4 C 17,1 C 5,7 km/h 100,00 %
21.04.2019 23:11 17,2 C 43 % 1014,8 hPa 0,0 l/m 3,6 km/h N 360 0 min 0,000 mm 0,0 UV-I 0 W/m 4,5 C 17,2 C 5,7 km/h 100,00 %
21.04.2019 23:10 17,1 C 43 % 1014,9 hPa 0,0 l/m 4,5 km/h N 360 0 min 0,000 mm 0,0 UV-I 0 W/m 4,4 C 17,1 C 5,7 km/h 100,00 %
21.04.2019 23:09 17,1 C 43 % 1014,9 hPa 0,0 l/m 4,9 km/h N 5 0 min 0,000 mm 0,0 UV-I 0 W/m 4,4 C 17,1 C 7,7 km/h 100,00 %
21.04.2019 23:08 17,2 C 43 % 1014,9 hPa 0,0 l/m 3,3 km/h N 5 0 min 0,000 mm 0,0 UV-I 0 W/m 4,5 C 17,2 C 5,7 km/h 100,00 %
21.04.2019 23:07 17,2 C 43 % 1014,9 hPa 0,0 l/m 1,6 km/h N 5 0 min 0,000 mm 0,0 UV-I 0 W/m 4,5 C 17,2 C 3,8 km/h 100,00 %
21.04.2019 23:06 17,2 C 43 % 1014,9 hPa 0,0 l/m 1,9 km/h N 5 0 min 0,000 mm 0,0 UV-I 0 W/m 4,5 C 17,2 C 3,8 km/h 100,00 %
21.04.2019 23:05 17,2 C 43 % 1014,9 hPa 0,0 l/m 2,4 km/h N 5 0 min 0,000 mm 0,0 UV-I 0 W/m 4,5 C 17,2 C 5,7 km/h 100,00 %
21.04.2019 23:04 17,2 C 44 % 1015,0 hPa 0,0 l/m 3,8 km/h N 5 0 min 0,000 mm 0,0 UV-I 0 W/m 4,8 C 17,2 C 5,7 km/h 100,00 %
21.04.2019 23:03 17,2 C 44 % 1014,9 hPa 0,0 l/m 2,4 km/h N 5 0 min 0,000 mm 0,0 UV-I 0 W/m 4,8 C 17,2 C 5,7 km/h 100,00 %
21.04.2019 23:02 17,2 C 44 % 1014,9 hPa 0,0 l/m 3,3 km/h N 5 0 min 0,000 mm 0,0 UV-I 0 W/m 4,8 C 17,2 C 5,7 km/h 100,00 %
21.04.2019 23:01 17,2 C 43 % 1014,9 hPa 0,0 l/m 2,7 km/h N 5 0 min 0,051 mm 0,0 UV-I 0 W/m 4,5 C 17,2 C 3,8 km/h 100,00 %
21.04.2019 23:00 17,2 C 44 % 1015,0 hPa 0,0 l/m 1,0 km/h N 5 0 min 0,000 mm 0,0 UV-I 0 W/m 4,8 C 17,2 C 1,9 km/h 100,00 %
21.04.2019 22:59 17,3 C 44 % 1014,9 hPa 0,0 l/m 0,4 km/h N 5 0 min 0,000 mm 0,0 UV-I 0 W/m 4,9 C 17,3 C 1,9 km/h 100,00 %
21.04.2019 22:58 17,3 C 44 % 1014,9 hPa 0,0 l/m 1,2 km/h N 5 0 min 0,000 mm 0,0 UV-I 0 W/m 4,9 C 17,3 C 3,8 km/h 100,00 %
21.04.2019 22:57 17,3 C 44 % 1014,9 hPa 0,0 l/m 0,4 km/h N 5 0 min 0,000 mm 0,0 UV-I 0 W/m 4,9 C 17,3 C 1,9 km/h 100,00 %
21.04.2019 22:56 17,3 C 44 % 1014,9 hPa 0,0 l/m 1,1 km/h N 5 0 min 0,000 mm 0,0 UV-I 0 W/m 4,9 C 17,3 C 3,8 km/h 95,83 %
21.04.2019 22:55 17,4 C 44 % 1014,9 hPa 0,0 l/m 0,3 km/h N 5 0 min 0,000 mm 0,0 UV-I 0 W/m 5,0 C 17,4 C 1,9 km/h 100,00 %
21.04.2019 22:54 17,4 C 44 % 1014,9 hPa 0,0 l/m 0,2 km/h N 5 0 min 0,000 mm 0,0 UV-I 0 W/m 5,0 C 17,4 C 1,9 km/h 100,00 %
21.04.2019 22:53 17,5 C 43 % 1015,0 hPa 0,0 l/m 1,6 km/h N 5 0 min 0,000 mm 0,0 UV-I 0 W/m 4,8 C 17,5 C 3,8 km/h 100,00 %
21.04.2019 22:52 17,5 C 43 % 1015,0 hPa 0,0 l/m 2,5 km/h N 5 0 min 0,000 mm 0,0 UV-I 0 W/m 4,8 C 17,5 C 3,8 km/h 100,00 %
21.04.2019 22:51 17,6 C 43 % 1015,0 hPa 0,0 l/m 1,7 km/h N 5 0 min 0,000 mm 0,0 UV-I 0 W/m 4,9 C 17,6 C 3,8 km/h 96,15 %
21.04.2019 22:50 17,6 C 43 % 1015,0 hPa 0,0 l/m 1,4 km/h N 5 0 min 0,000 mm 0,0 UV-I 0 W/m 4,9 C 17,6 C 3,8 km/h 100,00 %
21.04.2019 22:49 17,6 C 43 % 1015,0 hPa 0,0 l/m 0,2 km/h N 5 0 min 0,000 mm 0,0 UV-I 0 W/m 4,9 C 17,6 C 1,9 km/h 100,00 %
21.04.2019 22:48 17,6 C 43 % 1015,0 hPa 0,0 l/m 1,0 km/h N 5 0 min 0,000 mm 0,0 UV-I 0 W/m 4,9 C 17,6 C 3,8 km/h 100,00 %
21.04.2019 22:47 17,7 C 43 % 1015,0 hPa 0,0 l/m 0,3 km/h N 5 0 min 0,000 mm 0,0 UV-I 0 W/m 5,0 C 17,7 C 1,9 km/h 100,00 %
21.04.2019 22:46 17,7 C 42 % 1015,0 hPa 0,0 l/m 0,0 km/h N 5 0 min 0,000 mm 0,0 UV-I 0 W/m 4,6 C 17,7 C 0,0 km/h 95,83 %
21.04.2019 22:45 17,7 C 42 % 1015,0 hPa 0,0 l/m 0,1 km/h N 5 0 min 0,000 mm 0,0 UV-I 0 W/m 4,6 C 17,7 C 1,9 km/h 100,00 %
21.04.2019 22:44 17,7 C 42 % 1015,0 hPa 0,0 l/m 0,6 km/h N 5 0 min 0,000 mm 0,0 UV-I 0 W/m 4,6 C 17,7 C 1,9 km/h 100,00 %
21.04.2019 22:43 17,7 C 42 % 1015,0 hPa 0,0 l/m 0,7 km/h N 5 0 min 0,000 mm 0,0 UV-I 0 W/m 4,6 C 17,7 C 1,9 km/h 100,00 %
21.04.2019 22:42 17,7 C 42 % 1015,0 hPa 0,0 l/m 0,2 km/h N 5 0 min 0,000 mm 0,0 UV-I 0 W/m 4,6 C 17,7 C 1,9 km/h 100,00 %
21.04.2019 22:41 17,8 C 42 % 1015,0 hPa 0,0 l/m 0,7 km/h N 5 0 min 0,000 mm 0,0 UV-I 0 W/m 4,7 C 17,8 C 1,9 km/h 100,00 %
21.04.2019 22:40 17,8 C 42 % 1015,0 hPa 0,0 l/m 0,1 km/h N 5 0 min 0,000 mm 0,0 UV-I 0 W/m 4,7 C 17,8 C 1,9 km/h 100,00 %
21.04.2019 22:39 17,8 C 42 % 1015,0 hPa 0,0 l/m 0,6 km/h N 5 0 min 0,000 mm 0,0 UV-I 0 W/m 4,7 C 17,8 C 1,9 km/h 100,00 %
21.04.2019 22:38 17,8 C 42 % 1015,1 hPa 0,0 l/m 0,6 km/h N 5 0 min 0,000 mm 0,0 UV-I 0 W/m 4,7 C 17,8 C 1,9 km/h 100,00 %
21.04.2019 22:37 17,8 C 42 % 1015,1 hPa 0,0 l/m 2,5 km/h N 5 0 min 0,000 mm 0,0 UV-I 0 W/m 4,7 C 17,8 C 5,7 km/h 100,00 %
21.04.2019 22:36 17,8 C 42 % 1015,0 hPa 0,0 l/m 0,1 km/h N 5 0 min 0,000 mm 0,0 UV-I 0 W/m 4,7 C 17,8 C 1,9 km/h 100,00 %
21.04.2019 22:35 17,9 C 42 % 1015,1 hPa 0,0 l/m 0,9 km/h N 5 0 min 0,000 mm 0,0 UV-I 0 W/m 4,8 C 17,9 C 1,9 km/h 100,00 %
21.04.2019 22:34 17,9 C 42 % 1015,1 hPa 0,0 l/m 0,5 km/h N 5 0 min 0,000 mm 0,0 UV-I 0 W/m 4,8 C 17,9 C 1,9 km/h 100,00 %
21.04.2019 22:33 17,9 C 42 % 1015,1 hPa 0,0 l/m 0,5 km/h N 5 0 min 0,000 mm 0,0 UV-I 0 W/m 4,8 C 17,9 C 1,9 km/h 100,00 %
21.04.2019 22:32 17,9 C 42 % 1015,1 hPa 0,0 l/m 0,1 km/h N 5 0 min 0,000 mm 0,0 UV-I 0 W/m 4,8 C 17,9 C 1,9 km/h 100,00 %
21.04.2019 22:31 17,9 C 42 % 1015,1 hPa 0,0 l/m 0,4 km/h N 5 0 min 0,000 mm 0,0 UV-I 0 W/m 4,8 C 17,9 C 1,9 km/h 100,00 %
21.04.2019 22:30 18,0 C 42 % 1015,1 hPa 0,0 l/m 1,3 km/h N 5 0 min 0,000 mm 0,0 UV-I 0 W/m 4,9 C 18,0 C 1,9 km/h 100,00 %
21.04.2019 22:29 18,0 C 42 % 1015,1 hPa 0,0 l/m 0,0 km/h N 5 0 min 0,000 mm 0,0 UV-I 0 W/m 4,9 C 18,0 C 0,0 km/h 100,00 %
21.04.2019 22:28 18,0 C 42 % 1015,1 hPa 0,0 l/m 0,7 km/h N 5 0 min 0,000 mm 0,0 UV-I 0 W/m 4,9 C 18,0 C 1,9 km/h 100,00 %
21.04.2019 22:27 18,1 C 42 % 1015,1 hPa 0,0 l/m 0,6 km/h N 5 0 min 0,000 mm 0,0 UV-I 0 W/m 5,0 C 18,1 C 1,9 km/h 100,00 %
21.04.2019 22:26 18,1 C 42 % 1015,1 hPa 0,0 l/m 0,4 km/h N 5 0 min 0,000 mm 0,0 UV-I 0 W/m 5,0 C 18,1 C 1,9 km/h 100,00 %
21.04.2019 22:25 18,1 C 41 % 1015,1 hPa 0,0 l/m 0,1 km/h N 5 0 min 0,000 mm 0,0 UV-I 0 W/m 4,6 C 18,1 C 1,9 km/h 100,00 %
21.04.2019 22:24 18,1 C 41 % 1015,1 hPa 0,0 l/m 0,3 km/h N 5 0 min 0,000 mm 0,0 UV-I 0 W/m 4,6 C 18,1 C 1,9 km/h 100,00 %
21.04.2019 22:23 18,1 C 41 % 1015,1 hPa 0,0 l/m 1,0 km/h N 5 0 min 0,000 mm 0,0 UV-I 0 W/m 4,6 C 18,1 C 1,9 km/h 100,00 %
21.04.2019 22:22 18,1 C 41 % 1015,1 hPa 0,0 l/m 1,2 km/h N 5 0 min 0,000 mm 0,0 UV-I 0 W/m 4,6 C 18,1 C 3,8 km/h 100,00 %
21.04.2019 22:21 18,2 C 41 % 1015,1 hPa 0,0 l/m 2,2 km/h N 5 0 min 0,000 mm 0,0 UV-I 0 W/m 4,7 C 18,2 C 3,8 km/h 100,00 %
21.04.2019 22:20 18,2 C 42 % 1015,1 hPa 0,0 l/m 2,3 km/h N 5 0 min 0,000 mm 0,0 UV-I 0 W/m 5,1 C 18,2 C 3,8 km/h 100,00 %
21.04.2019 22:19 18,2 C 41 % 1015,2 hPa 0,0 l/m 1,8 km/h N 5 0 min 0,000 mm 0,0 UV-I 0 W/m 4,7 C 18,2 C 5,7 km/h 100,00 %
21.04.2019 22:18 18,2 C 41 % 1015,2 hPa 0,0 l/m 0,4 km/h N 5 0 min 0,000 mm 0,0 UV-I 0 W/m 4,7 C 18,2 C 1,9 km/h 100,00 %
21.04.2019 22:17 18,2 C 41 % 1015,2 hPa 0,0 l/m 0,0 km/h N 5 0 min 0,000 mm 0,0 UV-I 0 W/m 4,7 C 18,2 C 0,0 km/h 95,65 %
21.04.2019 22:16 18,2 C 41 % 1015,2 hPa 0,0 l/m 1,4 km/h N 5 0 min 0,000 mm 0,0 UV-I 0 W/m 4,7 C 18,2 C 3,8 km/h 100,00 %
21.04.2019 22:15 18,3 C 41 % 1015,2 hPa 0,0 l/m 3,4 km/h N 5 0 min 0,000 mm 0,0 UV-I 0 W/m 4,8 C 18,3 C 3,8 km/h 96,15 %
21.04.2019 22:14 18,3 C 41 % 1015,3 hPa 0,0 l/m 1,5 km/h N 5 0 min 0,000 mm 0,0 UV-I 0 W/m 4,8 C 18,3 C 3,8 km/h 100,00 %
21.04.2019 22:13 18,3 C 41 % 1015,2 hPa 0,0 l/m 3,3 km/h N 5 0 min 0,000 mm 0,0 UV-I 0 W/m 4,8 C 18,3 C 5,7 km/h 100,00 %
21.04.2019 22:12 18,3 C 41 % 1015,3 hPa 0,0 l/m 1,8 km/h N 5 0 min 0,000 mm 0,0 UV-I 0 W/m 4,8 C 18,3 C 3,8 km/h 100,00 %
21.04.2019 22:11 18,3 C 41 % 1015,2 hPa 0,0 l/m 1,1 km/h N 5 0 min 0,000 mm 0,0 UV-I 0 W/m 4,8 C 18,3 C 3,8 km/h 100,00 %
21.04.2019 22:10 18,4 C 41 % 1015,2 hPa 0,0 l/m 2,0 km/h N 5 0 min 0,000 mm 0,0 UV-I 0 W/m 4,9 C 18,4 C 5,7 km/h 100,00 %
21.04.2019 22:09 18,4 C 41 % 1015,3 hPa 0,0 l/m 0,9 km/h N 5 0 min 0,000 mm 0,0 UV-I 0 W/m 4,9 C 18,4 C 1,9 km/h 100,00 %
21.04.2019 22:08 18,4 C 41 % 1015,3 hPa 0,0 l/m 2,9 km/h N 5 0 min 0,000 mm 0,0 UV-I 0 W/m 4,9 C 18,4 C 5,7 km/h 100,00 %
21.04.2019 22:07 18,4 C 41 % 1015,3 hPa 0,0 l/m 2,8 km/h N 5 0 min 0,000 mm 0,0 UV-I 0 W/m 4,9 C 18,4 C 5,7 km/h 100,00 %
21.04.2019 22:06 18,4 C 41 % 1015,3 hPa 0,0 l/m 0,1 km/h N 5 0 min 0,000 mm 0,0 UV-I 0 W/m 4,9 C 18,4 C 1,9 km/h 100,00 %
21.04.2019 22:05 18,5 C 41 % 1015,3 hPa 0,0 l/m 1,4 km/h N 5 0 min 0,000 mm 0,0 UV-I 0 W/m 5,0 C 18,5 C 3,8 km/h 100,00 %
21.04.2019 22:04 18,5 C 41 % 1015,3 hPa 0,0 l/m 2,9 km/h N 5 0 min 0,000 mm 0,0 UV-I 0 W/m 5,0 C 18,5 C 5,7 km/h 95,65 %
21.04.2019 22:03 18,6 C 41 % 1015,3 hPa 0,0 l/m 3,5 km/h N 5 0 min 0,000 mm 0,0 UV-I 0 W/m 5,1 C 18,6 C 5,7 km/h 100,00 %
21.04.2019 22:02 18,6 C 41 % 1015,3 hPa 0,0 l/m 2,7 km/h N 5 0 min 0,000 mm 0,0 UV-I 0 W/m 5,1 C 18,6 C 3,8 km/h 100,00 %
21.04.2019 22:01 18,6 C 41 % 1015,3 hPa 0,0 l/m 2,4 km/h N 5 0 min 0,051 mm 0,0 UV-I 0 W/m 5,1 C 18,6 C 3,8 km/h 100,00 %
21.04.2019 22:00 18,6 C 41 % 1015,3 hPa 0,0 l/m 1,8 km/h N 5 0 min 0,000 mm 0,0 UV-I 0 W/m 5,1 C 18,6 C 3,8 km/h 100,00 %
21.04.2019 21:59 18,7 C 41 % 1015,4 hPa 0,0 l/m 1,9 km/h N 5 0 min 0,000 mm 0,0 UV-I 0 W/m 5,2 C 18,7 C 3,8 km/h 100,00 %
21.04.2019 21:58 18,7 C 41 % 1015,4 hPa 0,0 l/m 1,0 km/h N 5 0 min 0,000 mm 0,0 UV-I 0 W/m 5,2 C 18,7 C 1,9 km/h 100,00 %
21.04.2019 21:57 18,7 C 41 % 1015,4 hPa 0,0 l/m 1,5 km/h N 5 0 min 0,000 mm 0,0 UV-I 0 W/m 5,2 C 18,7 C 5,7 km/h 100,00 %
21.04.2019 21:56 18,7 C 40 % 1015,4 hPa 0,0 l/m 1,7 km/h N 5 0 min 0,000 mm 0,0 UV-I 0 W/m 4,8 C 18,7 C 3,8 km/h 100,00 %
21.04.2019 21:55 18,7 C 40 % 1015,4 hPa 0,0 l/m 3,0 km/h N 5 0 min 0,000 mm 0,0 UV-I 0 W/m 4,8 C 18,7 C 3,8 km/h 100,00 %
21.04.2019 21:54 18,8 C 40 % 1015,5 hPa 0,0 l/m 2,5 km/h N 5 0 min 0,000 mm 0,0 UV-I 0 W/m 4,9 C 18,8 C 5,7 km/h 100,00 %
21.04.2019 21:53 18,8 C 40 % 1015,5 hPa 0,0 l/m 2,8 km/h N 5 0 min 0,000 mm 0,0 UV-I 0 W/m 4,9 C 18,8 C 5,7 km/h 100,00 %
21.04.2019 21:52 18,8 C 40 % 1015,5 hPa 0,0 l/m 2,9 km/h N 5 0 min 0,000 mm 0,0 UV-I 0 W/m 4,9 C 18,8 C 5,7 km/h 100,00 %
21.04.2019 21:51 18,9 C 40 % 1015,5 hPa 0,0 l/m 0,8 km/h N 5 0 min 0,000 mm 0,0 UV-I 0 W/m 5,0 C 18,9 C 3,8 km/h 100,00 %
21.04.2019 21:50 18,9 C 40 % 1015,5 hPa 0,0 l/m 0,0 km/h N 5 0 min 0,000 mm 0,0 UV-I 0 W/m 5,0 C 18,9 C 0,0 km/h 100,00 %
21.04.2019 21:49 18,9 C 40 % 1015,5 hPa 0,0 l/m 0,5 km/h N 5 0 min 0,000 mm 0,0 UV-I 0 W/m 5,0 C 18,9 C 1,9 km/h 100,00 %
21.04.2019 21:48 18,9 C 40 % 1015,4 hPa 0,0 l/m 1,3 km/h N 5 0 min 0,000 mm 0,0 UV-I 0 W/m 5,0 C 18,9 C 3,8 km/h 100,00 %
21.04.2019 21:47 19,0 C 40 % 1015,5 hPa 0,0 l/m 2,3 km/h N 5 0 min 0,000 mm 0,0 UV-I 0 W/m 5,1 C 19,0 C 3,8 km/h 100,00 %
21.04.2019 21:46 19,0 C 40 % 1015,5 hPa 0,0 l/m 1,3 km/h N 5 0 min 0,000 mm 0,0 UV-I 0 W/m 5,1 C 19,0 C 1,9 km/h 100,00 %
21.04.2019 21:45 19,1 C 40 % 1015,5 hPa 0,0 l/m 0,3 km/h N 5 0 min 0,000 mm 0,0 UV-I 0 W/m 5,2 C 19,1 C 1,9 km/h 100,00 %
21.04.2019 21:44 19,1 C 40 % 1015,5 hPa 0,0 l/m 0,9 km/h N 5 0 min 0,000 mm 0,0 UV-I 0 W/m 5,2 C 19,1 C 3,8 km/h 100,00 %
21.04.2019 21:43 19,1 C 40 % 1015,4 hPa 0,0 l/m 0,1 km/h N 5 0 min 0,000 mm 0,0 UV-I 0 W/m 5,2 C 19,1 C 1,9 km/h 100,00 %
21.04.2019 21:42 19,2 C 40 % 1015,4 hPa 0,0 l/m 0,4 km/h N 5 0 min 0,000 mm 0,0 UV-I 0 W/m 5,3 C 19,2 C 1,9 km/h 95,65 %
21.04.2019 21:41 19,2 C 40 % 1015,4 hPa 0,0 l/m 0,1 km/h N 5 0 min 0,000 mm 0,0 UV-I 0 W/m 5,3 C 19,2 C 1,9 km/h 100,00 %
21.04.2019 21:40 19,2 C 40 % 1015,5 hPa 0,0 l/m 0,7 km/h N 5 0 min 0,000 mm 0,0 UV-I 0 W/m 5,3 C 19,2 C 3,8 km/h 100,00 %
21.04.2019 21:39 19,2 C 40 % 1015,4 hPa 0,0 l/m 0,1 km/h N 5 0 min 0,000 mm 0,0 UV-I 0 W/m 5,3 C 19,2 C 1,9 km/h 100,00 %
21.04.2019 21:38 19,3 C 40 % 1015,5 hPa 0,0 l/m 0,1 km/h N 5 0 min 0,000 mm 0,0 UV-I 0 W/m 5,4 C 19,3 C 1,9 km/h 100,00 %
21.04.2019 21:37 19,3 C 40 % 1015,4 hPa 0,0 l/m 0,5 km/h N 5 0 min 0,000 mm 0,0 UV-I 0 W/m 5,4 C 19,3 C 1,9 km/h 100,00 %
21.04.2019 21:36 19,3 C 40 % 1015,5 hPa 0,0 l/m 0,3 km/h N 5 0 min 0,000 mm 0,0 UV-I 0 W/m 5,4 C 19,3 C 3,8 km/h 100,00 %
21.04.2019 21:35 19,4 C 40 % 1015,5 hPa 0,0 l/m 1,2 km/h N 5 0 min 0,000 mm 0,0 UV-I 0 W/m 5,5 C 19,4 C 3,8 km/h 100,00 %
21.04.2019 21:34 19,4 C 40 % 1015,5 hPa 0,0 l/m 0,6 km/h N 5 0 min 0,000 mm 0,0 UV-I 0 W/m 5,5 C 19,4 C 1,9 km/h 100,00 %
21.04.2019 21:33 19,4 C 40 % 1015,5 hPa 0,0 l/m 1,3 km/h N 5 0 min 0,000 mm 0,0 UV-I 0 W/m 5,5 C 19,4 C 3,8 km/h 100,00 %
21.04.2019 21:32 19,5 C 40 % 1015,5 hPa 0,0 l/m 0,0 km/h N 5 0 min 0,000 mm 0,0 UV-I 0 W/m 5,5 C 19,5 C 0,0 km/h 100,00 %
21.04.2019 21:31 19,5 C 40 % 1015,5 hPa 0,0 l/m 1,0 km/h N 5 0 min 0,000 mm 0,0 UV-I 0 W/m 5,5 C 19,5 C 1,9 km/h 100,00 %
21.04.2019 21:30 19,6 C 40 % 1015,5 hPa 0,0 l/m 0,2 km/h N 5 0 min 0,000 mm 0,0 UV-I 0 W/m 5,6 C 19,6 C 1,9 km/h 100,00 %
21.04.2019 21:29 19,6 C 39 % 1015,5 hPa 0,0 l/m 0,2 km/h N 5 0 min 0,000 mm 0,0 UV-I 0 W/m 5,3 C 19,6 C 1,9 km/h 95,65 %
21.04.2019 21:28 19,6 C 39 % 1015,5 hPa 0,0 l/m 0,0 km/h N 5 0 min 0,000 mm 0,0 UV-I 0 W/m 5,3 C 19,6 C 0,0 km/h 100,00 %
21.04.2019 21:27 19,7 C 39 % 1015,5 hPa 0,0 l/m 0,4 km/h N 5 0 min 0,000 mm 0,0 UV-I 0 W/m 5,4 C 19,7 C 1,9 km/h 100,00 %
21.04.2019 21:26 19,7 C 39 % 1015,5 hPa 0,0 l/m 0,2 km/h N 5 0 min 0,000 mm 0,0 UV-I 0 W/m 5,4 C 19,7 C 1,9 km/h 100,00 %
21.04.2019 21:25 19,7 C 39 % 1015,5 hPa 0,0 l/m 0,4 km/h N 5 0 min 0,000 mm 0,0 UV-I 0 W/m 5,4 C 19,7 C 1,9 km/h 100,00 %
21.04.2019 21:24 19,8 C 39 % 1015,5 hPa 0,0 l/m 0,3 km/h N 5 0 min 0,000 mm 0,0 UV-I 0 W/m 5,4 C 19,8 C 1,9 km/h 98,78 %
21.04.2019 21:23 19,8 C 39 % 1015,5 hPa 0,0 l/m 0,5 km/h N 5 0 min 0,000 mm 0,0 UV-I 0 W/m 5,4 C 19,8 C 1,9 km/h 100,00 %
21.04.2019 21:22 19,8 C 39 % 1015,5 hPa 0,0 l/m 0,0 km/h N 5 0 min 0,000 mm 0,0 UV-I 0 W/m 5,4 C 19,8 C 0,0 km/h 95,65 %
21.04.2019 21:21 19,8 C 39 % 1015,5 hPa 0,0 l/m 0,6 km/h N 5 0 min 0,000 mm 0,0 UV-I 0 W/m 5,4 C 19,8 C 3,8 km/h 95,83 %
21.04.2019 21:20 19,9 C 38 % 1015,5 hPa 0,0 l/m 0,4 km/h N 5 0 min 0,000 mm 0,0 UV-I 0 W/m 5,2 C 19,9 C 1,9 km/h 100,00 %
21.04.2019 21:19 19,9 C 38 % 1015,5 hPa 0,0 l/m 1,0 km/h N 5 0 min 0,000 mm 0,0 UV-I 0 W/m 5,2 C 19,9 C 1,9 km/h 100,00 %
21.04.2019 21:18 20,0 C 38 % 1015,5 hPa 0,0 l/m 2,1 km/h N 5 0 min 0,000 mm 0,0 UV-I 0 W/m 5,2 C 20,0 C 3,8 km/h 100,00 %
21.04.2019 21:17 20,0 C 38 % 1015,5 hPa 0,0 l/m 1,2 km/h N 5 0 min 0,000 mm 0,0 UV-I 0 W/m 5,2 C 20,0 C 1,9 km/h 100,00 %
21.04.2019 21:16 20,1 C 38 % 1015,5 hPa 0,0 l/m 2,4 km/h N 5 0 min 0,000 mm 0,0 UV-I 0 W/m 5,3 C 20,1 C 5,7 km/h 100,00 %
21.04.2019 21:15 20,1 C 38 % 1015,5 hPa 0,0 l/m 2,7 km/h N 5 0 min 0,000 mm 0,0 UV-I 0 W/m 5,3 C 20,1 C 3,8 km/h 100,00 %
21.04.2019 21:14 20,1 C 38 % 1015,5 hPa 0,0 l/m 4,4 km/h N 5 0 min 0,000 mm 0,0 UV-I 0 W/m 5,3 C 20,1 C 7,7 km/h 100,00 %
21.04.2019 21:13 20,2 C 38 % 1015,5 hPa 0,0 l/m 1,9 km/h N 5 0 min 0,000 mm 0,0 UV-I 0 W/m 5,4 C 20,2 C 3,8 km/h 100,00 %
21.04.2019 21:12 20,2 C 38 % 1015,5 hPa 0,0 l/m 2,6 km/h N 5 0 min 0,000 mm 0,0 UV-I 0 W/m 5,4 C 20,2 C 3,8 km/h 100,00 %
21.04.2019 21:11 20,2 C 38 % 1015,5 hPa 0,0 l/m 3,7 km/h N 5 0 min 0,000 mm 0,0 UV-I 0 W/m 5,4 C 20,2 C 5,7 km/h 100,00 %
21.04.2019 21:10 20,3 C 38 % 1015,5 hPa 0,0 l/m 3,6 km/h N 5 0 min 0,000 mm 0,0 UV-I 0 W/m 5,5 C 20,3 C 5,7 km/h 100,00 %
21.04.2019 21:09 20,3 C 38 % 1015,5 hPa 0,0 l/m 3,9 km/h N 5 0 min 0,000 mm 0,0 UV-I 0 W/m 5,5 C 20,3 C 5,7 km/h 100,00 %
21.04.2019 21:08 20,3 C 38 % 1015,5 hPa 0,0 l/m 3,1 km/h N 5 0 min 0,000 mm 0,0 UV-I 0 W/m 5,5 C 20,3 C 5,7 km/h 100,00 %
21.04.2019 21:07 20,3 C 38 % 1015,5 hPa 0,0 l/m 3,0 km/h N 5 0 min 0,000 mm 0,0 UV-I 0 W/m 5,5 C 20,3 C 5,7 km/h 100,00 %
21.04.2019 21:06 20,4 C 38 % 1015,5 hPa 0,0 l/m 4,9 km/h N 5 0 min 0,000 mm 0,0 UV-I 0 W/m 5,6 C 20,4 C 7,7 km/h 100,00 %
21.04.2019 21:05 20,4 C 38 % 1015,4 hPa 0,0 l/m 1,5 km/h N 5 0 min 0,000 mm 0,0 UV-I 0 W/m 5,6 C 20,4 C 7,7 km/h 100,00 %
21.04.2019 21:04 20,4 C 38 % 1015,4 hPa 0,0 l/m 0,8 km/h N 9 0 min 0,000 mm 0,0 UV-I 0 W/m 5,6 C 20,4 C 1,9 km/h 100,00 %
21.04.2019 21:03 20,5 C 38 % 1015,4 hPa 0,0 l/m 2,6 km/h N 9 0 min 0,000 mm 0,0 UV-I 0 W/m 5,7 C 20,5 C 5,7 km/h 95,65 %
21.04.2019 21:02 20,5 C 37 % 1015,4 hPa 0,0 l/m 3,5 km/h N 9 0 min 0,000 mm 0,0 UV-I 0 W/m 5,3 C 20,5 C 5,7 km/h 100,00 %
21.04.2019 21:01 20,6 C 37 % 1015,4 hPa 0,0 l/m 3,3 km/h N 9 0 min 0,051 mm 0,0 UV-I 0 W/m 5,4 C 20,6 C 5,7 km/h 96,15 %
21.04.2019 21:00 20,6 C 37 % 1015,4 hPa 0,0 l/m 3,3 km/h N 360 0 min 0,000 mm 0,0 UV-I 0 W/m 5,4 C 20,6 C 5,7 km/h 100,00 %
21.04.2019 20:59 20,7 C 37 % 1015,4 hPa 0,0 l/m 3,6 km/h N 360 0 min 0,000 mm 0,0 UV-I 0 W/m 5,5 C 20,7 C 5,7 km/h 95,65 %
21.04.2019 20:58 20,7 C 37 % 1015,4 hPa 0,0 l/m 1,5 km/h N 360 0 min 0,000 mm 0,0 UV-I 0 W/m 5,5 C 20,7 C 3,8 km/h 100,00 %
21.04.2019 20:57 20,7 C 37 % 1015,4 hPa 0,0 l/m 1,8 km/h N 360 0 min 0,000 mm 0,0 UV-I 0 W/m 5,5 C 20,7 C 3,8 km/h 92,86 %
21.04.2019 20:56 20,8 C 37 % 1015,4 hPa 0,0 l/m 2,4 km/h N 360 0 min 0,000 mm 0,0 UV-I 0 W/m 5,6 C 20,8 C 3,8 km/h 100,00 %
21.04.2019 20:55 20,8 C 37 % 1015,4 hPa 0,0 l/m 2,9 km/h N 360 0 min 0,000 mm 0,0 UV-I 0 W/m 5,6 C 20,8 C 5,7 km/h 96,30 %
21.04.2019 20:54 20,8 C 37 % 1015,4 hPa 0,0 l/m 2,8 km/h N 360 0 min 0,000 mm 0,0 UV-I 0 W/m 5,6 C 20,8 C 5,7 km/h 100,00 %
21.04.2019 20:53 20,8 C 37 % 1015,4 hPa 0,0 l/m 2,7 km/h N 360 0 min 0,000 mm 0,0 UV-I 0 W/m 5,6 C 20,8 C 5,7 km/h 96,15 %
21.04.2019 20:52 20,9 C 37 % 1015,4 hPa 0,0 l/m 3,1 km/h N 360 0 min 0,000 mm 0,0 UV-I 0 W/m 5,7 C 20,9 C 5,7 km/h 95,83 %
21.04.2019 20:51 20,9 C 37 % 1015,4 hPa 0,0 l/m 0,5 km/h N 360 0 min 0,000 mm 0,0 UV-I 0 W/m 5,7 C 20,9 C 1,9 km/h 92,31 %
21.04.2019 20:50 21,0 C 37 % 1015,5 hPa 0,0 l/m 1,0 km/h N 360 0 min 0,000 mm 0,0 UV-I 0 W/m 5,8 C 21,0 C 1,9 km/h 96,30 %
21.04.2019 20:49 21,0 C 37 % 1015,4 hPa 0,0 l/m 2,6 km/h N 360 0 min 0,000 mm 0,0 UV-I 0 W/m 5,8 C 21,0 C 3,8 km/h 95,65 %
21.04.2019 20:48 21,1 C 37 % 1015,5 hPa 0,0 l/m 4,5 km/h N 360 0 min 0,000 mm 0,0 UV-I 0 W/m 5,8 C 21,1 C 5,7 km/h 95,83 %
21.04.2019 20:47 21,1 C 37 % 1015,4 hPa 0,0 l/m 1,7 km/h N 360 0 min 0,000 mm 0,0 UV-I 0 W/m 5,8 C 21,1 C 5,7 km/h 95,65 %
21.04.2019 20:46 21,1 C 37 % 1015,5 hPa 0,0 l/m 3,7 km/h N 360 0 min 0,000 mm 0,0 UV-I 0 W/m 5,8 C 21,1 C 7,7 km/h 100,00 %
21.04.2019 20:45 21,2 C 36 % 1015,5 hPa 0,0 l/m 2,4 km/h N 10 0 min 0,000 mm 0,0 UV-I 0 W/m 5,5 C 21,2 C 7,7 km/h 100,00 %
21.04.2019 20:44 21,2 C 36 % 1015,5 hPa 0,0 l/m 4,5 km/h N 10 0 min 0,000 mm 0,0 UV-I 0 W/m 5,5 C 21,2 C 7,7 km/h 96,15 %
21.04.2019 20:43 21,2 C 37 % 1015,5 hPa 0,0 l/m 2,2 km/h N 10 0 min 0,000 mm 0,0 UV-I 0 W/m 5,9 C 21,2 C 5,7 km/h 92,59 %
21.04.2019 20:42 21,3 C 36 % 1015,5 hPa 0,0 l/m 1,9 km/h N 10 0 min 0,000 mm 0,0 UV-I 1 W/m 5,6 C 21,3 C 3,8 km/h 100,00 %
21.04.2019 20:41 21,3 C 36 % 1015,5 hPa 0,0 l/m 0,8 km/h N 10 0 min 0,000 mm 0,0 UV-I 5 W/m 5,6 C 21,3 C 1,9 km/h 96,30 %
21.04.2019 20:40 21,3 C 36 % 1015,5 hPa 0,0 l/m 2,8 km/h N 10 0 min 0,000 mm 0,0 UV-I 5 W/m 5,6 C 21,3 C 5,7 km/h 100,00 %
21.04.2019 20:39 21,4 C 36 % 1015,5 hPa 0,0 l/m 0,4 km/h N 10 0 min 0,000 mm 0,0 UV-I 5 W/m 5,7 C 21,4 C 1,9 km/h 91,67 %
21.04.2019 20:38 21,4 C 36 % 1015,5 hPa 0,0 l/m 0,2 km/h N 10 0 min 0,000 mm 0,0 UV-I 5 W/m 5,7 C 21,4 C 1,9 km/h 100,00 %
21.04.2019 20:37 21,5 C 36 % 1015,5 hPa 0,0 l/m 0,3 km/h N 10 0 min 0,000 mm 0,0 UV-I 7 W/m 5,8 C 21,5 C 1,9 km/h 96,30 %
21.04.2019 20:36 21,5 C 35 % 1015,5 hPa 0,0 l/m 1,5 km/h N 10 0 min 0,000 mm 0,0 UV-I 7 W/m 5,4 C 21,5 C 3,8 km/h 95,65 %
21.04.2019 20:35 21,6 C 35 % 1015,5 hPa 0,0 l/m 0,2 km/h N 10 0 min 0,000 mm 0,0 UV-I 7 W/m 5,5 C 21,6 C 1,9 km/h 100,00 %
21.04.2019 20:34 21,6 C 35 % 1015,5 hPa 0,0 l/m 0,9 km/h N 10 0 min 0,000 mm 0,0 UV-I 8 W/m 5,5 C 21,6 C 3,8 km/h 91,30 %
21.04.2019 20:33 21,7 C 35 % 1015,5 hPa 0,0 l/m 1,4 km/h N 10 0 min 0,000 mm 0,0 UV-I 9 W/m 5,6 C 21,7 C 3,8 km/h 100,00 %
21.04.2019 20:32 21,7 C 35 % 1015,5 hPa 0,0 l/m 2,7 km/h N 10 0 min 0,000 mm 0,0 UV-I 9 W/m 5,6 C 21,7 C 3,8 km/h 96,15 %
21.04.2019 20:31 21,7 C 35 % 1015,4 hPa 0,0 l/m 3,3 km/h N 10 0 min 0,000 mm 0,0 UV-I 9 W/m 5,6 C 21,7 C 3,8 km/h 100,00 %
21.04.2019 20:30 21,8 C 35 % 1015,5 hPa 0,0 l/m 2,7 km/h N 10 0 min 0,000 mm 0,0 UV-I 11 W/m 5,7 C 21,8 C 5,7 km/h 95,65 %
21.04.2019 20:29 21,8 C 35 % 1015,5 hPa 0,0 l/m 2,2 km/h N 10 0 min 0,000 mm 0,0 UV-I 11 W/m 5,7 C 21,8 C 5,7 km/h 95,83 %
21.04.2019 20:28 21,8 C 35 % 1015,5 hPa 0,0 l/m 3,8 km/h N 10 0 min 0,000 mm 0,0 UV-I 11 W/m 5,7 C 21,8 C 5,7 km/h 100,00 %
21.04.2019 20:27 21,8 C 35 % 1015,5 hPa 0,0 l/m 2,4 km/h N 10 0 min 0,000 mm 0,0 UV-I 12 W/m 5,7 C 21,8 C 5,7 km/h 93,33 %
21.04.2019 20:26 21,9 C 35 % 1015,5 hPa 0,0 l/m 5,8 km/h N 11 0 min 0,000 mm 0,0 UV-I 12 W/m 5,7 C 21,9 C 7,7 km/h 95,83 %
21.04.2019 20:25 21,9 C 35 % 1015,5 hPa 0,0 l/m 3,3 km/h N-NO 12 0 min 0,000 mm 0,0 UV-I 12 W/m 5,7 C 21,9 C 5,7 km/h 95,65 %
21.04.2019 20:24 21,9 C 34 % 1015,5 hPa 0,0 l/m 3,3 km/h N-NO 12 0 min 0,000 mm 0,0 UV-I 12 W/m 5,3 C 21,9 C 5,7 km/h 100,00 %
21.04.2019 20:23 22,0 C 35 % 1015,4 hPa 0,0 l/m 4,3 km/h N-NO 12 0 min 0,000 mm 0,0 UV-I 14 W/m 5,8 C 22,0 C 7,7 km/h 95,65 %
21.04.2019 20:22 22,1 C 34 % 1015,5 hPa 0,0 l/m 2,1 km/h N 11 0 min 0,000 mm 0,0 UV-I 14 W/m 5,5 C 22,1 C 5,7 km/h 100,00 %
21.04.2019 20:21 22,1 C 34 % 1015,5 hPa 0,0 l/m 5,6 km/h N 11 0 min 0,000 mm 0,0 UV-I 14 W/m 5,5 C 22,1 C 11,5 km/h 95,65 %
21.04.2019 20:20 22,1 C 35 % 1015,4 hPa 0,0 l/m 5,7 km/h N 5 0 min 0,000 mm 0,0 UV-I 16 W/m 5,9 C 22,1 C 9,6 km/h 91,67 %
21.04.2019 20:19 22,2 C 34 % 1015,4 hPa 0,0 l/m 1,4 km/h N 5 0 min 0,000 mm 0,0 UV-I 16 W/m 5,6 C 22,2 C 5,7 km/h 100,00 %
21.04.2019 20:18 22,2 C 34 % 1015,4 hPa 0,0 l/m 2,9 km/h N 5 0 min 0,000 mm 0,0 UV-I 16 W/m 5,6 C 22,2 C 3,8 km/h 95,83 %
21.04.2019 20:17 22,2 C 34 % 1015,4 hPa 0,0 l/m 2,8 km/h N 5 0 min 0,000 mm 0,0 UV-I 18 W/m 5,6 C 22,2 C 3,8 km/h 100,00 %
21.04.2019 20:16 22,3 C 34 % 1015,4 hPa 0,0 l/m 0,7 km/h N 5 0 min 0,000 mm 0,0 UV-I 18 W/m 5,7 C 22,3 C 3,8 km/h 95,83 %
21.04.2019 20:15 22,3 C 34 % 1015,4 hPa 0,0 l/m 2,6 km/h N 5 0 min 0,000 mm 0,0 UV-I 18 W/m 5,7 C 22,3 C 5,7 km/h 100,00 %
21.04.2019 20:14 22,3 C 34 % 1015,4 hPa 0,0 l/m 2,6 km/h N 5 0 min 0,000 mm 0,0 UV-I 19 W/m 5,7 C 22,3 C 5,7 km/h 96,00 %
21.04.2019 20:13 22,4 C 33 % 1015,3 hPa 0,0 l/m 2,9 km/h N 5 0 min 0,000 mm 0,0 UV-I 19 W/m 5,3 C 22,4 C 5,7 km/h 97,56 %
21.04.2019 20:12 22,4 C 33 % 1015,4 hPa 0,0 l/m 3,8 km/h N 5 0 min 0,000 mm 0,0 UV-I 19 W/m 5,3 C 22,4 C 5,7 km/h 98,86 %
21.04.2019 20:11 22,4 C 34 % 1015,3 hPa 0,0 l/m 3,1 km/h N 5 0 min 0,000 mm 0,0 UV-I 20 W/m 5,8 C 22,4 C 3,8 km/h 96,15 %
21.04.2019 20:10 22,5 C 33 % 1015,3 hPa 0,0 l/m 3,7 km/h N 5 0 min 0,000 mm 0,0 UV-I 21 W/m 5,4 C 22,5 C 5,7 km/h 100,00 %
21.04.2019 20:09 22,6 C 33 % 1015,3 hPa 0,0 l/m 1,9 km/h N 5 0 min 0,000 mm 0,0 UV-I 21 W/m 5,5 C 22,6 C 3,8 km/h 95,65 %
21.04.2019 20:08 22,6 C 33 % 1015,3 hPa 0,0 l/m 4,4 km/h N 5 0 min 0,000 mm 0,0 UV-I 21 W/m 5,5 C 22,6 C 7,7 km/h 100,00 %
21.04.2019 20:07 22,6 C 33 % 1015,3 hPa 0,0 l/m 3,8 km/h N 360 0 min 0,000 mm 0,0 UV-I 23 W/m 5,5 C 22,6 C 7,7 km/h 91,67 %
21.04.2019 20:06 22,6 C 33 % 1015,3 hPa 0,0 l/m 4,1 km/h N 360 0 min 0,000 mm 0,0 UV-I 23 W/m 5,5 C 22,6 C 7,7 km/h 96,15 %
21.04.2019 20:05 22,7 C 33 % 1015,3 hPa 0,0 l/m 2,7 km/h N 9 0 min 0,000 mm 0,0 UV-I 23 W/m 5,6 C 22,7 C 5,7 km/h 100,00 %
21.04.2019 20:04 22,7 C 33 % 1015,3 hPa 0,0 l/m 4,3 km/h N 360 0 min 0,000 mm 0,0 UV-I 24 W/m 5,6 C 22,7 C 7,7 km/h 100,00 %
21.04.2019 20:03 22,7 C 33 % 1015,3 hPa 0,0 l/m 1,9 km/h N 5 0 min 0,000 mm 0,0 UV-I 25 W/m 5,6 C 22,7 C 3,8 km/h 95,83 %
21.04.2019 20:02 22,7 C 33 % 1015,3 hPa 0,0 l/m 2,4 km/h N 5 0 min 0,000 mm 0,0 UV-I 25 W/m 5,6 C 22,7 C 5,7 km/h 95,65 %
21.04.2019 20:01 22,8 C 33 % 1015,3 hPa 0,0 l/m 1,1 km/h N 5 0 min 0,101 mm 0,0 UV-I 25 W/m 5,7 C 22,8 C 1,9 km/h 100,00 %
21.04.2019 20:00 22,8 C 33 % 1015,3 hPa 0,0 l/m 4,1 km/h N 5 0 min 0,000 mm 0,0 UV-I 26 W/m 5,7 C 22,8 C 5,7 km/h 95,65 %
21.04.2019 19:59 22,8 C 32 % 1015,3 hPa 0,0 l/m 3,1 km/h N 5 0 min 0,000 mm 0,0 UV-I 26 W/m 5,2 C 22,8 C 5,7 km/h 100,00 %
21.04.2019 19:58 22,9 C 32 % 1015,3 hPa 0,0 l/m 1,1 km/h N 5 0 min 0,000 mm 0,0 UV-I 26 W/m 5,3 C 22,9 C 3,8 km/h 81,82 %
21.04.2019 19:57 22,9 C 32 % 1015,3 hPa 0,0 l/m 5,3 km/h N 5 0 min 0,000 mm 0,0 UV-I 27 W/m 5,3 C 22,9 C 5,7 km/h 100,00 %
21.04.2019 19:56 22,9 C 32 % 1015,4 hPa 0,0 l/m 4,3 km/h N 5 0 min 0,000 mm 0,0 UV-I 28 W/m 5,3 C 22,9 C 5,7 km/h 100,00 %
21.04.2019 19:55 22,9 C 31 % 1015,3 hPa 0,0 l/m 3,2 km/h N 5 0 min 0,000 mm 0,0 UV-I 28 W/m 4,9 C 22,9 C 7,7 km/h 100,00 %
21.04.2019 19:54 23,0 C 31 % 1015,3 hPa 0,0 l/m 2,7 km/h N 5 0 min 0,000 mm 0,0 UV-I 30 W/m 5,0 C 23,0 C 5,7 km/h 100,00 %
21.04.2019 19:53 23,0 C 31 % 1015,4 hPa 0,0 l/m 5,4 km/h N 5 0 min 0,000 mm 0,0 UV-I 30 W/m 5,0 C 23,0 C 7,7 km/h 100,00 %
21.04.2019 19:52 23,1 C 31 % 1015,4 hPa 0,0 l/m 2,9 km/h N 355 0 min 0,000 mm 0,0 UV-I 31 W/m 5,0 C 23,1 C 5,7 km/h 96,30 %
21.04.2019 19:51 23,1 C 31 % 1015,4 hPa 0,0 l/m 4,9 km/h N 355 0 min 0,000 mm 0,0 UV-I 32 W/m 5,0 C 23,1 C 7,7 km/h 100,00 %
21.04.2019 19:50 23,1 C 31 % 1015,4 hPa 0,0 l/m 1,6 km/h N 355 0 min 0,000 mm 0,0 UV-I 32 W/m 5,0 C 23,1 C 3,8 km/h 100,00 %
21.04.2019 19:49 23,1 C 31 % 1015,3 hPa 0,0 l/m 1,5 km/h N 355 0 min 0,000 mm 0,0 UV-I 32 W/m 5,0 C 23,1 C 3,8 km/h 91,67 %
21.04.2019 19:48 23,1 C 31 % 1015,3 hPa 0,0 l/m 0,5 km/h N 355 0 min 0,000 mm 0,0 UV-I 33 W/m 5,0 C 23,1 C 1,9 km/h 95,83 %
21.04.2019 19:47 23,1 C 31 % 1015,4 hPa 0,0 l/m 1,2 km/h N 355 0 min 0,000 mm 0,0 UV-I 33 W/m 5,0 C 23,1 C 1,9 km/h 100,00 %
21.04.2019 19:46 23,1 C 31 % 1015,4 hPa 0,0 l/m 1,2 km/h N 355 0 min 0,000 mm 0,0 UV-I 33 W/m 5,0 C 23,1 C 1,9 km/h 100,00 %
21.04.2019 19:45 23,2 C 31 % 1015,3 hPa 0,0 l/m 3,5 km/h N 355 0 min 0,000 mm 0,0 UV-I 35 W/m 5,1 C 23,2 C 5,7 km/h 100,00 %
21.04.2019 19:44 23,2 C 30 % 1015,4 hPa 0,0 l/m 5,8 km/h N 355 0 min 0,000 mm 0,0 UV-I 35 W/m 4,7 C 23,2 C 7,7 km/h 100,00 %
21.04.2019 19:43 23,2 C 31 % 1015,3 hPa 0,0 l/m 2,1 km/h N 355 0 min 0,000 mm 0,0 UV-I 35 W/m 5,1 C 23,2 C 3,8 km/h 100,00 %
21.04.2019 19:42 23,2 C 31 % 1015,3 hPa 0,0 l/m 1,8 km/h N 355 0 min 0,000 mm 0,0 UV-I 36 W/m 5,1 C 23,2 C 3,8 km/h 100,00 %
21.04.2019 19:41 23,3 C 30 % 1015,3 hPa 0,0 l/m 3,9 km/h N 355 0 min 0,000 mm 0,0 UV-I 37 W/m 4,7 C 23,3 C 5,7 km/h 100,00 %
21.04.2019 19:40 23,3 C 30 % 1015,4 hPa 0,0 l/m 4,1 km/h N 355 0 min 0,000 mm 0,0 UV-I 37 W/m 4,7 C 23,3 C 7,7 km/h 94,87 %
21.04.2019 19:39 23,3 C 30 % 1015,4 hPa 0,0 l/m 5,2 km/h N 355 0 min 0,000 mm 0,0 UV-I 39 W/m 4,7 C 23,3 C 7,7 km/h 100,00 %
21.04.2019 19:38 23,3 C 30 % 1015,4 hPa 0,0 l/m 6,1 km/h N 350 0 min 0,000 mm 0,0 UV-I 41 W/m 4,7 C 23,3 C 7,7 km/h 100,00 %
21.04.2019 19:37 23,4 C 29 % 1015,4 hPa 0,0 l/m 5,6 km/h N 5 0 min 0,000 mm 0,0 UV-I 57 W/m 4,3 C 23,4 C 7,7 km/h 100,00 %
21.04.2019 19:36 23,4 C 29 % 1015,4 hPa 0,0 l/m 8,4 km/h N 355 0 min 0,000 mm 0,0 UV-I 81 W/m 4,3 C 22,8 C 13,4 km/h 100,00 %
21.04.2019 19:35 23,5 C 29 % 1015,4 hPa 0,0 l/m 5,5 km/h N 5 0 min 0,000 mm 0,0 UV-I 93 W/m 4,4 C 23,5 C 7,7 km/h 100,00 %
21.04.2019 19:34 23,5 C 29 % 1015,4 hPa 0,0 l/m 3,8 km/h N 5 0 min 0,000 mm 0,0 UV-I 96 W/m 4,4 C 23,5 C 5,7 km/h 100,00 %
21.04.2019 19:33 23,5 C 29 % 1015,4 hPa 0,0 l/m 3,4 km/h N 360 0 min 0,000 mm 0,0 UV-I 98 W/m 4,4 C 23,5 C 5,7 km/h 100,00 %
21.04.2019 19:32 23,6 C 29 % 1015,4 hPa 0,0 l/m 2,7 km/h N 360 0 min 0,000 mm 0,0 UV-I 102 W/m 4,5 C 23,6 C 5,7 km/h 100,00 %
21.04.2019 19:31 23,6 C 29 % 1015,4 hPa 0,0 l/m 3,5 km/h N 360 0 min 0,000 mm 0,0 UV-I 104 W/m 4,5 C 23,6 C 5,7 km/h 100,00 %
21.04.2019 19:30 23,6 C 29 % 1015,4 hPa 0,0 l/m 3,7 km/h N 360 0 min 0,000 mm 0,0 UV-I 107 W/m 4,5 C 23,6 C 5,7 km/h 100,00 %
21.04.2019 19:29 23,6 C 29 % 1015,4 hPa 0,0 l/m 3,2 km/h N 360 0 min 0,000 mm 0,0 UV-I 110 W/m 4,5 C 23,6 C 5,7 km/h 100,00 %
21.04.2019 19:28 23,6 C 29 % 1015,4 hPa 0,0 l/m 4,8 km/h N 360 0 min 0,000 mm 0,0 UV-I 113 W/m 4,5 C 23,6 C 5,7 km/h 96,30 %
21.04.2019 19:27 23,6 C 29 % 1015,5 hPa 0,0 l/m 4,6 km/h N 360 0 min 0,000 mm 0,0 UV-I 117 W/m 4,5 C 23,6 C 5,7 km/h 100,00 %
21.04.2019 19:26 23,6 C 29 % 1015,5 hPa 0,0 l/m 5,1 km/h N 360 0 min 0,000 mm 0,0 UV-I 120 W/m 4,5 C 23,6 C 7,7 km/h 100,00 %
21.04.2019 19:25 23,6 C 29 % 1015,5 hPa 0,0 l/m 2,1 km/h N 355 0 min 0,000 mm 0,0 UV-I 122 W/m 4,5 C 23,6 C 3,8 km/h 95,65 %
21.04.2019 19:24 23,6 C 28 % 1015,5 hPa 0,0 l/m 3,7 km/h N 351 0 min 0,000 mm 0,0 UV-I 126 W/m 4,0 C 23,6 C 3,8 km/h 100,00 %
21.04.2019 19:23 23,7 C 28 % 1015,5 hPa 0,0 l/m 7,1 km/h N-NW 348 0 min 0,000 mm 0,0 UV-I 129 W/m 4,1 C 23,5 C 9,6 km/h 100,00 %
21.04.2019 19:22 23,7 C 28 % 1015,5 hPa 0,0 l/m 5,2 km/h N 355 0 min 0,000 mm 0,0 UV-I 131 W/m 4,1 C 23,7 C 9,6 km/h 100,00 %
21.04.2019 19:21 23,7 C 28 % 1015,5 hPa 0,0 l/m 4,5 km/h N 11 0 min 0,000 mm 0,0 UV-I 134 W/m 4,1 C 23,7 C 5,7 km/h 100,00 %
21.04.2019 19:20 23,7 C 28 % 1015,5 hPa 0,0 l/m 2,9 km/h N 360 0 min 0,000 mm 0,0 UV-I 138 W/m 4,1 C 23,7 C 5,7 km/h 100,00 %
21.04.2019 19:19 23,7 C 28 % 1015,5 hPa 0,0 l/m 4,7 km/h N 360 0 min 0,000 mm 0,0 UV-I 141 W/m 4,1 C 23,7 C 7,7 km/h 100,00 %
21.04.2019 19:18 23,8 C 27 % 1015,5 hPa 0,0 l/m 7,4 km/h N 5 0 min 0,000 mm 0,0 UV-I 143 W/m 3,7 C 23,5 C 9,6 km/h 100,00 %
21.04.2019 19:17 23,8 C 28 % 1015,5 hPa 0,0 l/m 7,8 km/h N 355 0 min 0,000 mm 0,0 UV-I 146 W/m 4,2 C 23,4 C 9,6 km/h 100,00 %
21.04.2019 19:16 23,9 C 28 % 1015,5 hPa 0,0 l/m 8,8 km/h N-NW 342 0 min 0,000 mm 0,0 UV-I 150 W/m 4,3 C 23,2 C 13,4 km/h 100,00 %
21.04.2019 19:15 23,9 C 28 % 1015,5 hPa 0,0 l/m 5,7 km/h N 9 0 min 0,000 mm 0,0 UV-I 153 W/m 4,3 C 23,9 C 7,7 km/h 100,00 %
21.04.2019 19:14 23,9 C 28 % 1015,5 hPa 0,0 l/m 3,7 km/h N 10 0 min 0,000 mm 0,0 UV-I 156 W/m 4,3 C 23,9 C 7,7 km/h 100,00 %
21.04.2019 19:13 23,9 C 27 % 1015,6 hPa 0,0 l/m 3,1 km/h N 5 0 min 0,000 mm 0,0 UV-I 159 W/m 3,8 C 23,9 C 7,7 km/h 100,00 %
21.04.2019 19:12 23,9 C 27 % 1015,6 hPa 0,0 l/m 4,0 km/h N 5 0 min 0,000 mm 0,0 UV-I 163 W/m 3,8 C 23,9 C 9,6 km/h 100,00 %
21.04.2019 19:11 23,9 C 26 % 1015,6 hPa 0,0 l/m 4,2 km/h N 5 0 min 0,000 mm 0,0 UV-I 166 W/m 3,2 C 23,9 C 7,7 km/h 100,00 %
21.04.2019 19:10 23,9 C 27 % 1015,6 hPa 0,0 l/m 5,6 km/h N 11 0 min 0,000 mm 0,0 UV-I 170 W/m 3,8 C 23,9 C 7,7 km/h 100,00 %
21.04.2019 19:09 23,9 C 27 % 1015,6 hPa 0,0 l/m 6,1 km/h N 360 0 min 0,000 mm 0,0 UV-I 174 W/m 3,8 C 23,9 C 7,7 km/h 100,00 %
21.04.2019 19:08 23,9 C 27 % 1015,6 hPa 0,0 l/m 6,2 km/h N 351 0 min 0,000 mm 0,0 UV-I 177 W/m 3,8 C 23,9 C 7,7 km/h 100,00 %
21.04.2019 19:07 23,9 C 27 % 1015,6 hPa 0,0 l/m 3,9 km/h N 9 0 min 0,000 mm 0,0 UV-I 180 W/m 3,8 C 23,9 C 7,7 km/h 100,00 %
21.04.2019 19:06 23,9 C 27 % 1015,6 hPa 0,0 l/m 1,5 km/h N 5 0 min 0,000 mm 0,0 UV-I 184 W/m 3,8 C 23,9 C 3,8 km/h 100,00 %
21.04.2019 19:05 23,9 C 27 % 1015,6 hPa 0,0 l/m 3,7 km/h N 5 0 min 0,000 mm 0,0 UV-I 187 W/m 3,8 C 23,9 C 5,7 km/h 100,00 %
21.04.2019 19:04 23,9 C 27 % 1015,6 hPa 0,0 l/m 2,6 km/h N 5 0 min 0,000 mm 0,0 UV-I 191 W/m 3,8 C 23,9 C 7,7 km/h 96,15 %
21.04.2019 19:03 23,9 C 27 % 1015,6 hPa 0,0 l/m 6,7 km/h N 9 0 min 0,000 mm 0,0 UV-I 195 W/m 3,8 C 23,8 C 9,6 km/h 100,00 %
21.04.2019 19:02 24,0 C 27 % 1015,6 hPa 0,0 l/m 5,6 km/h N-NO 24 0 min 0,000 mm 0,0 UV-I 199 W/m 3,8 C 24,0 C 9,6 km/h 100,00 %
21.04.2019 19:01 24,0 C 27 % 1015,6 hPa 0,0 l/m 9,3 km/h N-NW 344 0 min 0,254 mm 0,0 UV-I 202 W/m 3,8 C 23,2 C 13,4 km/h 96,15 %
21.04.2019 19:00 24,1 C 27 % 1015,6 hPa 0,0 l/m 6,6 km/h N-NO 22 0 min 0,000 mm 0,0 UV-I 205 W/m 3,9 C 24,1 C 15,3 km/h 100,00 %
21.04.2019 18:59 24,1 C 27 % 1015,6 hPa 0,0 l/m 3,8 km/h N-NW 327 0 min 0,000 mm 0,0 UV-I 208 W/m 3,9 C 24,1 C 7,7 km/h 95,65 %
21.04.2019 18:58 24,1 C 27 % 1015,7 hPa 0,0 l/m 6,0 km/h W-NW 299 0 min 0,000 mm 0,5 UV-I 212 W/m 3,9 C 24,1 C 7,7 km/h 100,00 %
21.04.2019 18:57 24,1 C 27 % 1015,6 hPa 0,0 l/m 7,6 km/h NW 319 0 min 0,000 mm 0,5 UV-I 214 W/m 3,9 C 23,8 C 9,6 km/h 100,00 %
21.04.2019 18:56 24,1 C 26 % 1015,6 hPa 0,0 l/m 7,6 km/h N-NO 19 0 min 0,000 mm 0,5 UV-I 217 W/m 3,4 C 23,8 C 13,4 km/h 100,00 %
21.04.2019 18:55 24,2 C 26 % 1015,6 hPa 0,0 l/m 8,4 km/h N 5 0 min 0,000 mm 0,5 UV-I 221 W/m 3,5 C 23,7 C 11,5 km/h 100,00 %
21.04.2019 18:54 24,2 C 26 % 1015,6 hPa 0,0 l/m 7,7 km/h N 350 0 min 0,000 mm 0,5 UV-I 224 W/m 3,5 C 23,8 C 13,4 km/h 100,00 %
21.04.2019 18:53 24,2 C 26 % 1015,6 hPa 0,0 l/m 9,2 km/h N 5 0 min 0,000 mm 0,5 UV-I 228 W/m 3,5 C 23,5 C 17,2 km/h 100,00 %
21.04.2019 18:52 24,3 C 26 % 1015,7 hPa 0,0 l/m 7,7 km/h N-NW 336 0 min 0,000 mm 0,5 UV-I 231 W/m 3,6 C 23,9 C 11,5 km/h 100,00 %
21.04.2019 18:51 24,3 C 26 % 1015,7 hPa 0,0 l/m 8,1 km/h W 279 0 min 0,000 mm 0,5 UV-I 236 W/m 3,6 C 23,8 C 11,5 km/h 100,00 %
21.04.2019 18:50 24,3 C 25 % 1015,7 hPa 0,0 l/m 9,6 km/h N 351 0 min 0,000 mm 0,5 UV-I 240 W/m 3,0 C 23,5 C 15,3 km/h 100,00 %
21.04.2019 18:49 24,3 C 25 % 1015,7 hPa 0,0 l/m 6,8 km/h N 9 0 min 0,000 mm 0,5 UV-I 242 W/m 3,0 C 24,2 C 13,4 km/h 100,00 %
21.04.2019 18:48 24,3 C 24 % 1015,7 hPa 0,0 l/m 6,5 km/h N-NW 348 0 min 0,000 mm 0,5 UV-I 245 W/m 2,4 C 24,3 C 15,3 km/h 100,00 %
21.04.2019 18:47 24,4 C 24 % 1015,8 hPa 0,0 l/m 3,9 km/h N-NW 348 0 min 0,000 mm 0,6 UV-I 249 W/m 2,5 C 24,4 C 5,7 km/h 100,00 %
21.04.2019 18:46 24,4 C 24 % 1015,7 hPa 0,0 l/m 5,6 km/h N 349 0 min 0,000 mm 0,6 UV-I 253 W/m 2,5 C 24,4 C 7,7 km/h 100,00 %
21.04.2019 18:45 24,4 C 23 % 1015,7 hPa 0,0 l/m 3,1 km/h N 5 0 min 0,000 mm 0,6 UV-I 255 W/m 1,9 C 24,4 C 5,7 km/h 95,65 %
21.04.2019 18:44 24,4 C 23 % 1015,8 hPa 0,0 l/m 3,5 km/h N 5 0 min 0,000 mm 0,6 UV-I 259 W/m 1,9 C 24,4 C 5,7 km/h 100,00 %
21.04.2019 18:43 24,4 C 23 % 1015,8 hPa 0,0 l/m 3,8 km/h N 5 0 min 0,000 mm 0,6 UV-I 263 W/m 1,9 C 24,4 C 5,7 km/h 100,00 %
21.04.2019 18:42 24,4 C 23 % 1015,8 hPa 0,0 l/m 7,1 km/h N 5 0 min 0,000 mm 0,6 UV-I 267 W/m 1,9 C 24,2 C 9,6 km/h 100,00 %
21.04.2019 18:41 24,5 C 23 % 1015,8 hPa 0,0 l/m 2,6 km/h N-NW 333 0 min 0,000 mm 0,6 UV-I 271 W/m 2,0 C 24,5 C 3,8 km/h 100,00 %
21.04.2019 18:40 24,5 C 23 % 1015,9 hPa 0,0 l/m 4,2 km/h N-NW 333 0 min 0,000 mm 0,6 UV-I 274 W/m 2,0 C 24,5 C 7,7 km/h 100,00 %
21.04.2019 18:39 24,6 C 23 % 1015,9 hPa 0,0 l/m 5,1 km/h N-NW 335 0 min 0,000 mm 0,6 UV-I 276 W/m 2,1 C 24,6 C 7,7 km/h 100,00 %
21.04.2019 18:38 24,5 C 24 % 1015,9 hPa 0,0 l/m 2,6 km/h N 360 0 min 0,000 mm 0,6 UV-I 279 W/m 2,6 C 24,5 C 5,7 km/h 100,00 %
21.04.2019 18:37 24,5 C 23 % 1015,9 hPa 0,0 l/m 4,7 km/h N 9 0 min 0,000 mm 0,7 UV-I 283 W/m 2,0 C 24,5 C 5,7 km/h 100,00 %
21.04.2019 18:36 24,5 C 23 % 1015,8 hPa 0,0 l/m 4,3 km/h N 360 0 min 0,000 mm 0,7 UV-I 287 W/m 2,0 C 24,5 C 7,7 km/h 98,84 %
21.04.2019 18:35 24,6 C 23 % 1015,9 hPa 0,0 l/m 5,2 km/h N-NO 13 1 min 0,000 mm 0,7 UV-I 289 W/m 2,1 C 24,6 C 9,6 km/h 100,00 %
21.04.2019 18:34 24,6 C 23 % 1015,9 hPa 0,0 l/m 2,6 km/h NW 312 1 min 0,000 mm 0,7 UV-I 292 W/m 2,1 C 24,6 C 5,7 km/h 100,00 %
21.04.2019 18:33 24,6 C 23 % 1015,9 hPa 0,0 l/m 4,3 km/h NW 312 1 min 0,000 mm 0,7 UV-I 294 W/m 2,1 C 24,6 C 5,7 km/h 100,00 %
21.04.2019 18:32 24,6 C 23 % 1016,0 hPa 0,0 l/m 3,8 km/h NW 320 1 min 0,000 mm 0,7 UV-I 296 W/m 2,1 C 24,6 C 7,7 km/h 100,00 %
21.04.2019 18:31 24,6 C 23 % 1016,0 hPa 0,0 l/m 5,5 km/h NW 323 1 min 0,000 mm 0,7 UV-I 299 W/m 2,1 C 24,6 C 7,7 km/h 100,00 %
21.04.2019 18:30 24,5 C 24 % 1016,0 hPa 0,0 l/m 3,7 km/h N-NO 13 1 min 0,000 mm 0,7 UV-I 302 W/m 2,6 C 24,5 C 7,7 km/h 100,00 %
21.04.2019 18:29 24,5 C 24 % 1016,0 hPa 0,0 l/m 3,5 km/h N 5 1 min 0,000 mm 0,7 UV-I 303 W/m 2,6 C 24,5 C 9,6 km/h 100,00 %
21.04.2019 18:28 24,4 C 24 % 1016,0 hPa 0,0 l/m 2,2 km/h NW 322 1 min 0,000 mm 0,8 UV-I 306 W/m 2,5 C 24,4 C 3,8 km/h 100,00 %
21.04.2019 18:27 24,3 C 23 % 1016,0 hPa 0,0 l/m 2,4 km/h NW 319 1 min 0,000 mm 0,8 UV-I 309 W/m 1,8 C 24,3 C 3,8 km/h 100,00 %
21.04.2019 18:26 24,3 C 23 % 1016,0 hPa 0,0 l/m 4,5 km/h NW 319 1 min 0,000 mm 0,8 UV-I 313 W/m 1,8 C 24,3 C 7,7 km/h 100,00 %
21.04.2019 18:25 24,3 C 23 % 1016,1 hPa 0,0 l/m 2,8 km/h NW 309 1 min 0,000 mm 0,8 UV-I 316 W/m 1,8 C 24,3 C 5,7 km/h 100,00 %
21.04.2019 18:24 24,3 C 23 % 1016,0 hPa 0,0 l/m 7,3 km/h N-NW 339 1 min 0,000 mm 0,8 UV-I 319 W/m 1,8 C 24,1 C 15,3 km/h 100,00 %
21.04.2019 18:23 24,3 C 23 % 1016,1 hPa 0,0 l/m 8,5 km/h N 360 1 min 0,000 mm 0,8 UV-I 322 W/m 1,8 C 23,7 C 11,5 km/h 100,00 %
21.04.2019 18:22 24,4 C 23 % 1016,1 hPa 0,0 l/m 7,6 km/h N-NW 348 1 min 0,000 mm 0,8 UV-I 325 W/m 1,9 C 24,1 C 9,6 km/h 95,83 %
21.04.2019 18:21 24,4 C 23 % 1016,1 hPa 0,0 l/m 10,8 km/h N 5 1 min 0,000 mm 0,8 UV-I 328 W/m 1,9 C 23,3 C 15,3 km/h 100,00 %
21.04.2019 18:20 24,4 C 24 % 1016,1 hPa 0,0 l/m 6,1 km/h N-NO 17 1 min 0,000 mm 0,9 UV-I 329 W/m 2,5 C 24,4 C 15,3 km/h 100,00 %
21.04.2019 18:19 24,4 C 23 % 1016,1 hPa 0,0 l/m 7,8 km/h N-NW 346 1 min 0,000 mm 0,9 UV-I 331 W/m 1,9 C 24,0 C 11,5 km/h 100,00 %
21.04.2019 18:18 24,4 C 23 % 1016,1 hPa 0,0 l/m 5,3 km/h N 355 1 min 0,000 mm 0,9 UV-I 335 W/m 1,9 C 24,4 C 11,5 km/h 100,00 %
21.04.2019 18:17 24,4 C 23 % 1016,1 hPa 0,0 l/m 6,7 km/h N 355 1 min 0,000 mm 0,9 UV-I 338 W/m 1,9 C 24,3 C 11,5 km/h 100,00 %
21.04.2019 18:16 24,4 C 23 % 1016,1 hPa 0,0 l/m 7,2 km/h N 5 1 min 0,000 mm 0,9 UV-I 343 W/m 1,9 C 24,2 C 11,5 km/h 95,83 %
21.04.2019 18:15 24,4 C 23 % 1016,1 hPa 0,0 l/m 8,2 km/h N 10 1 min 0,000 mm 0,9 UV-I 343 W/m 1,9 C 23,9 C 15,3 km/h 100,00 %
21.04.2019 18:14 24,5 C 23 % 1016,1 hPa 0,0 l/m 5,5 km/h N 355 1 min 0,000 mm 0,9 UV-I 346 W/m 2,0 C 24,5 C 15,3 km/h 100,00 %
21.04.2019 18:13 24,6 C 23 % 1016,2 hPa 0,0 l/m 5,2 km/h NW 315 1 min 0,000 mm 0,9 UV-I 351 W/m 2,1 C 24,6 C 11,5 km/h 100,00 %
21.04.2019 18:12 24,6 C 22 % 1016,2 hPa 0,0 l/m 6,6 km/h N 355 1 min 0,000 mm 0,9 UV-I 353 W/m 1,5 C 24,6 C 11,5 km/h 100,00 %
21.04.2019 18:11 24,7 C 23 % 1016,2 hPa 0,0 l/m 6,0 km/h N 355 1 min 0,000 mm 1,0 UV-I 355 W/m 2,2 C 24,7 C 11,5 km/h 100,00 %
21.04.2019 18:10 24,7 C 22 % 1016,2 hPa 0,0 l/m 6,5 km/h N 360 1 min 0,000 mm 1,0 UV-I 360 W/m 1,6 C 24,7 C 13,4 km/h 100,00 %
21.04.2019 18:09 24,7 C 23 % 1016,2 hPa 0,0 l/m 5,7 km/h N-NO 13 1 min 0,000 mm 1,0 UV-I 363 W/m 2,2 C 24,7 C 13,4 km/h 95,65 %
21.04.2019 18:08 24,7 C 23 % 1016,2 hPa 0,0 l/m 6,1 km/h O 88 1 min 0,000 mm 1,0 UV-I 367 W/m 2,2 C 24,7 C 13,4 km/h 100,00 %
21.04.2019 18:07 24,7 C 22 % 1016,2 hPa 0,0 l/m 5,9 km/h N 5 1 min 0,000 mm 1,0 UV-I 371 W/m 1,6 C 24,7 C 15,3 km/h 95,65 %
21.04.2019 18:06 24,7 C 23 % 1016,2 hPa 0,0 l/m 7,6 km/h N 5 1 min 0,000 mm 1,0 UV-I 372 W/m 2,2 C 24,4 C 13,4 km/h 100,00 %
21.04.2019 18:05 24,7 C 23 % 1016,3 hPa 0,0 l/m 4,6 km/h N 9 1 min 0,000 mm 1,0 UV-I 375 W/m 2,2 C 24,7 C 7,7 km/h 100,00 %
21.04.2019 18:04 24,7 C 23 % 1016,3 hPa 0,0 l/m 3,8 km/h N 355 1 min 0,000 mm 1,0 UV-I 378 W/m 2,2 C 24,7 C 5,7 km/h 100,00 %
21.04.2019 18:03 24,6 C 23 % 1016,3 hPa 0,0 l/m 5,6 km/h N 5 1 min 0,000 mm 1,1 UV-I 382 W/m 2,1 C 24,6 C 9,6 km/h 100,00 %
21.04.2019 18:02 24,6 C 23 % 1016,3 hPa 0,0 l/m 4,6 km/h N 11 1 min 0,000 mm 1,1 UV-I 386 W/m 2,1 C 24,6 C 7,7 km/h 100,00 %
21.04.2019 18:01 24,6 C 23 % 1016,3 hPa 0,0 l/m 5,3 km/h N 5 1 min 0,356 mm 1,1 UV-I 387 W/m 2,1 C 24,6 C 9,6 km/h 100,00 %
21.04.2019 18:00 24,5 C 22 % 1016,4 hPa 0,0 l/m 4,3 km/h N-NO 19 1 min 0,000 mm 1,1 UV-I 391 W/m 1,4 C 24,5 C 5,7 km/h 100,00 %
21.04.2019 17:59 24,4 C 22 % 1016,3 hPa 0,0 l/m 2,2 km/h N-NO 19 1 min 0,000 mm 1,1 UV-I 395 W/m 1,3 C 24,4 C 5,7 km/h 100,00 %
21.04.2019 17:58 24,4 C 21 % 1016,3 hPa 0,0 l/m 0,4 km/h N 10 1 min 0,000 mm 1,1 UV-I 398 W/m 0,7 C 24,4 C 1,9 km/h 100,00 %
21.04.2019 17:57 24,5 C 22 % 1016,3 hPa 0,0 l/m 3,2 km/h N 10 1 min 0,000 mm 1,2 UV-I 402 W/m 1,4 C 24,5 C 5,7 km/h 100,00 %
21.04.2019 17:56 24,5 C 22 % 1016,4 hPa 0,0 l/m 3,7 km/h N 10 1 min 0,000 mm 1,2 UV-I 404 W/m 1,4 C 24,5 C 7,7 km/h 100,00 %
21.04.2019 17:55 24,5 C 22 % 1016,4 hPa 0,0 l/m 2,9 km/h N-NO 13 1 min 0,000 mm 1,2 UV-I 407 W/m 1,4 C 24,5 C 5,7 km/h 100,00 %
21.04.2019 17:54 24,6 C 22 % 1016,4 hPa 0,0 l/m 6,2 km/h N-NO 13 1 min 0,000 mm 1,2 UV-I 409 W/m 1,5 C 24,6 C 9,6 km/h 100,00 %
21.04.2019 17:53 24,7 C 22 % 1016,4 hPa 0,0 l/m 7,6 km/h N-NW 338 1 min 0,000 mm 1,2 UV-I 410 W/m 1,6 C 24,4 C 11,5 km/h 100,00 %
21.04.2019 17:52 24,7 C 22 % 1016,4 hPa 0,0 l/m 7,7 km/h N 355 1 min 0,000 mm 1,2 UV-I 412 W/m 1,6 C 24,4 C 9,6 km/h 100,00 %
21.04.2019 17:51 24,8 C 22 % 1016,4 hPa 0,0 l/m 8,5 km/h N 10 1 min 0,000 mm 1,2 UV-I 415 W/m 1,6 C 24,3 C 11,5 km/h 100,00 %
21.04.2019 17:50 24,8 C 22 % 1016,4 hPa 0,0 l/m 7,6 km/h N 5 1 min 0,000 mm 1,2 UV-I 416 W/m 1,6 C 24,5 C 9,6 km/h 100,00 %
21.04.2019 17:49 24,8 C 22 % 1016,4 hPa 0,0 l/m 4,3 km/h N-NW 342 1 min 0,000 mm 1,2 UV-I 418 W/m 1,6 C 24,8 C 7,7 km/h 100,00 %
21.04.2019 17:48 24,9 C 23 % 1016,5 hPa 0,0 l/m 7,8 km/h N 5 1 min 0,000 mm 1,3 UV-I 419 W/m 2,3 C 24,5 C 15,3 km/h 100,00 %
21.04.2019 17:47 24,9 C 23 % 1016,5 hPa 0,0 l/m 1,8 km/h O-NO 71 1 min 0,000 mm 1,3 UV-I 424 W/m 2,3 C 24,9 C 3,8 km/h 96,30 %
21.04.2019 17:46 24,8 C 23 % 1016,5 hPa 0,0 l/m 3,1 km/h O-NO 73 1 min 0,000 mm 1,3 UV-I 429 W/m 2,3 C 24,8 C 5,7 km/h 100,00 %
21.04.2019 17:45 24,7 C 23 % 1016,5 hPa 0,0 l/m 1,8 km/h O-NO 58 1 min 0,000 mm 1,3 UV-I 435 W/m 2,2 C 24,7 C 3,8 km/h 100,00 %
21.04.2019 17:44 24,7 C 22 % 1016,5 hPa 0,0 l/m 4,2 km/h NO 42 1 min 0,000 mm 1,3 UV-I 438 W/m 1,6 C 24,7 C 7,7 km/h 100,00 %
21.04.2019 17:43 24,6 C 23 % 1016,5 hPa 0,0 l/m 6,7 km/h NO 35 1 min 0,000 mm 1,3 UV-I 440 W/m 2,1 C 24,5 C 9,6 km/h 100,00 %
21.04.2019 17:42 24,6 C 22 % 1016,5 hPa 0,0 l/m 4,0 km/h N 9 1 min 0,000 mm 1,3 UV-I 441 W/m 1,5 C 24,6 C 5,7 km/h 100,00 %
21.04.2019 17:41 24,5 C 22 % 1016,5 hPa 0,0 l/m 2,9 km/h N-NW 346 1 min 0,000 mm 1,3 UV-I 445 W/m 1,4 C 24,5 C 5,7 km/h 100,00 %
21.04.2019 17:40 24,5 C 22 % 1016,6 hPa 0,0 l/m 2,4 km/h N-NW 346 1 min 0,000 mm 1,4 UV-I 449 W/m 1,4 C 24,5 C 5,7 km/h 96,15 %
21.04.2019 17:39 24,4 C 22 % 1016,6 hPa 0,0 l/m 0,6 km/h N-NW 346 1 min 0,000 mm 1,4 UV-I 453 W/m 1,3 C 24,4 C 1,9 km/h 100,00 %
21.04.2019 17:38 24,4 C 22 % 1016,6 hPa 0,0 l/m 1,9 km/h N-NW 346 1 min 0,000 mm 1,4 UV-I 454 W/m 1,3 C 24,4 C 3,8 km/h 95,83 %
21.04.2019 17:37 24,5 C 22 % 1016,6 hPa 0,0 l/m 6,1 km/h N-NW 346 1 min 0,000 mm 1,4 UV-I 457 W/m 1,4 C 24,5 C 9,6 km/h 100,00 %
21.04.2019 17:36 24,6 C 22 % 1016,5 hPa 0,0 l/m 13,3 km/h N 360 1 min 0,000 mm 1,4 UV-I 461 W/m 1,5 C 23,1 C 17,2 km/h 95,83 %
21.04.2019 17:35 24,7 C 22 % 1016,6 hPa 0,0 l/m 11,2 km/h N 11 1 min 0,000 mm 1,4 UV-I 464 W/m 1,6 C 23,6 C 15,3 km/h 91,67 %
21.04.2019 17:34 24,7 C 22 % 1016,6 hPa 0,0 l/m 9,6 km/h N 5 1 min 0,000 mm 1,4 UV-I 466 W/m 1,6 C 23,9 C 15,3 km/h 100,00 %
21.04.2019 17:33 24,8 C 21 % 1016,6 hPa 0,0 l/m 11,9 km/h N 5 1 min 0,000 mm 1,5 UV-I 468 W/m 1,0 C 23,6 C 17,2 km/h 96,15 %
21.04.2019 17:32 25,0 C 21 % 1016,6 hPa 0,0 l/m 7,7 km/h N-NW 342 1 min 0,000 mm 1,5 UV-I 469 W/m 1,2 C 24,7 C 11,5 km/h 100,00 %
21.04.2019 17:31 25,0 C 21 % 1016,7 hPa 0,0 l/m 1,2 km/h N 355 1 min 0,000 mm 1,5 UV-I 470 W/m 1,2 C 25,0 C 3,8 km/h 96,15 %
21.04.2019 17:30 25,0 C 21 % 1016,7 hPa 0,0 l/m 3,3 km/h N 10 1 min 0,000 mm 1,5 UV-I 474 W/m 1,2 C 25,0 C 9,6 km/h 100,00 %
21.04.2019 17:29 25,1 C 21 % 1016,7 hPa 0,0 l/m 3,2 km/h N 5 1 min 0,000 mm 1,5 UV-I 476 W/m 1,2 C 25,1 C 11,5 km/h 95,65 %
21.04.2019 17:28 25,0 C 22 % 1016,7 hPa 0,0 l/m 3,0 km/h N 9 1 min 0,000 mm 1,5 UV-I 478 W/m 1,8 C 25,0 C 7,7 km/h 100,00 %
21.04.2019 17:27 24,9 C 22 % 1016,7 hPa 0,0 l/m 5,3 km/h N 10 1 min 0,000 mm 1,6 UV-I 481 W/m 1,7 C 24,9 C 11,5 km/h 95,65 %
21.04.2019 17:26 24,9 C 22 % 1016,7 hPa 0,0 l/m 3,0 km/h W-NW 292 1 min 0,000 mm 1,6 UV-I 485 W/m 1,7 C 24,9 C 5,7 km/h 96,43 %
21.04.2019 17:25 24,8 C 22 % 1016,7 hPa 0,0 l/m 5,8 km/h NW 313 1 min 0,000 mm 1,6 UV-I 488 W/m 1,6 C 24,8 C 13,4 km/h 100,00 %
21.04.2019 17:24 24,7 C 23 % 1016,7 hPa 0,0 l/m 4,9 km/h W-NW 303 1 min 0,000 mm 1,6 UV-I 490 W/m 2,2 C 24,7 C 5,7 km/h 96,30 %
21.04.2019 17:23 24,7 C 22 % 1016,7 hPa 0,0 l/m 3,6 km/h N 5 1 min 0,000 mm 1,6 UV-I 491 W/m 1,6 C 24,7 C 5,7 km/h 100,00 %
21.04.2019 17:22 24,6 C 22 % 1016,8 hPa 0,0 l/m 2,7 km/h N 9 1 min 0,000 mm 1,6 UV-I 495 W/m 1,5 C 24,6 C 5,7 km/h 96,30 %
21.04.2019 17:21 24,5 C 22 % 1016,8 hPa 0,0 l/m 1,1 km/h NO 44 1 min 0,000 mm 1,6 UV-I 499 W/m 1,4 C 24,5 C 3,8 km/h 100,00 %
21.04.2019 17:20 24,5 C 21 % 1016,8 hPa 0,0 l/m 5,9 km/h NO 42 1 min 0,000 mm 1,6 UV-I 500 W/m 0,7 C 24,5 C 9,6 km/h 96,15 %
21.04.2019 17:19 24,6 C 21 % 1016,8 hPa 0,0 l/m 10,3 km/h N 10 1 min 0,000 mm 1,7 UV-I 502 W/m 0,8 C 23,7 C 15,3 km/h 97,56 %
21.04.2019 17:18 24,7 C 22 % 1016,8 hPa 0,0 l/m 9,6 km/h N 360 1 min 0,000 mm 1,7 UV-I 506 W/m 1,6 C 23,9 C 17,2 km/h 100,00 %
21.04.2019 17:17 24,8 C 21 % 1016,8 hPa 0,0 l/m 12,0 km/h N 350 1 min 0,000 mm 1,7 UV-I 506 W/m 1,0 C 23,6 C 17,2 km/h 100,00 %
21.04.2019 17:16 24,9 C 21 % 1016,9 hPa 0,0 l/m 10,8 km/h N 5 1 min 0,000 mm 1,7 UV-I 508 W/m 1,1 C 23,9 C 15,3 km/h 96,15 %
21.04.2019 17:15 25,1 C 21 % 1016,8 hPa 0,0 l/m 10,8 km/h N 9 1 min 0,000 mm 1,7 UV-I 513 W/m 1,2 C 24,1 C 15,3 km/h 95,83 %
21.04.2019 17:14 25,3 C 22 % 1016,9 hPa 0,0 l/m 9,4 km/h N-NO 16 1 min 0,000 mm 1,8 UV-I 518 W/m 2,1 C 24,6 C 15,3 km/h 100,00 %
21.04.2019 17:13 25,3 C 22 % 1016,9 hPa 0,0 l/m 6,5 km/h N 9 1 min 0,000 mm 1,8 UV-I 520 W/m 2,1 C 25,3 C 9,6 km/h 96,30 %
21.04.2019 17:12 25,4 C 21 % 1016,9 hPa 0,0 l/m 3,1 km/h N-NO 16 1 min 0,000 mm 1,8 UV-I 523 W/m 1,5 C 25,4 C 7,7 km/h 100,00 %
21.04.2019 17:11 25,4 C 21 % 1016,9 hPa 0,0 l/m 3,7 km/h N-NO 17 1 min 0,000 mm 1,8 UV-I 527 W/m 1,5 C 25,4 C 5,7 km/h 96,30 %
21.04.2019 17:10 25,4 C 21 % 1016,9 hPa 0,0 l/m 3,2 km/h N-NO 20 1 min 0,000 mm 1,8 UV-I 529 W/m 1,5 C 25,4 C 5,7 km/h 100,00 %
21.04.2019 17:09 25,5 C 21 % 1016,9 hPa 0,0 l/m 5,8 km/h N 360 1 min 0,000 mm 1,8 UV-I 531 W/m 1,6 C 25,5 C 9,6 km/h 95,83 %
21.04.2019 17:08 25,6 C 21 % 1017,0 hPa 0,0 l/m 6,4 km/h O-NO 74 1 min 0,000 mm 1,9 UV-I 534 W/m 1,6 C 25,6 C 9,6 km/h 95,65 %
21.04.2019 17:07 25,5 C 21 % 1016,9 hPa 0,0 l/m 2,9 km/h N-NO 14 1 min 0,000 mm 1,9 UV-I 535 W/m 1,6 C 25,5 C 5,7 km/h 100,00 %
21.04.2019 17:06 25,5 C 21 % 1016,9 hPa 0,0 l/m 5,8 km/h N 5 1 min 0,000 mm 1,9 UV-I 540 W/m 1,6 C 25,5 C 15,3 km/h 96,15 %
21.04.2019 17:05 25,4 C 21 % 1017,0 hPa 0,0 l/m 1,3 km/h O-SO 109 1 min 0,000 mm 1,9 UV-I 547 W/m 1,5 C 25,4 C 3,8 km/h 100,00 %
21.04.2019 17:04 25,4 C 21 % 1017,0 hPa 0,0 l/m 4,6 km/h O-SO 115 1 min 0,000 mm 1,9 UV-I 545 W/m 1,5 C 25,4 C 7,7 km/h 94,12 %
21.04.2019 17:03 25,4 C 21 % 1017,0 hPa 0,0 l/m 5,1 km/h O 88 1 min 0,000 mm 1,9 UV-I 549 W/m 1,5 C 25,4 C 7,7 km/h 100,00 %
21.04.2019 17:02 25,4 C 21 % 1017,0 hPa 0,0 l/m 3,9 km/h O 94 1 min 0,000 mm 2,0 UV-I 551 W/m 1,5 C 25,4 C 5,7 km/h 95,83 %
21.04.2019 17:01 25,3 C 21 % 1017,0 hPa 0,0 l/m 6,5 km/h O 96 1 min 0,457 mm 2,0 UV-I 554 W/m 1,4 C 25,3 C 11,5 km/h 100,00 %
21.04.2019 17:00 25,3 C 21 % 1017,0 hPa 0,0 l/m 4,7 km/h O-NO 75 1 min 0,000 mm 2,0 UV-I 557 W/m 1,4 C 25,3 C 7,7 km/h 96,15 %
21.04.2019 16:59 25,2 C 22 % 1017,1 hPa 0,0 l/m 5,7 km/h N 5 1 min 0,000 mm 2,0 UV-I 557 W/m 2,0 C 25,2 C 13,4 km/h 100,00 %
21.04.2019 16:58 25,2 C 22 % 1017,1 hPa 0,0 l/m 1,5 km/h O-NO 73 1 min 0,000 mm 2,0 UV-I 560 W/m 2,0 C 25,2 C 3,8 km/h 96,30 %
21.04.2019 16:57 25,1 C 22 % 1017,0 hPa 0,0 l/m 2,0 km/h O-NO 77 1 min 0,000 mm 2,0 UV-I 563 W/m 1,9 C 25,1 C 5,7 km/h 95,65 %
21.04.2019 16:56 25,1 C 22 % 1017,1 hPa 0,0 l/m 2,0 km/h N-NO 32 1 min 0,000 mm 2,0 UV-I 565 W/m 1,9 C 25,1 C 5,7 km/h 100,00 %
21.04.2019 16:55 25,1 C 22 % 1017,1 hPa 0,0 l/m 8,1 km/h N-NO 30 1 min 0,000 mm 2,1 UV-I 568 W/m 1,9 C 24,7 C 15,3 km/h 95,65 %
21.04.2019 16:54 25,2 C 22 % 1017,0 hPa 0,0 l/m 9,3 km/h N 5 1 min 0,000 mm 2,1 UV-I 573 W/m 2,0 C 24,5 C 15,3 km/h 100,00 %
21.04.2019 16:53 25,3 C 22 % 1017,1 hPa 0,0 l/m 7,3 km/h N 355 1 min 0,000 mm 2,1 UV-I 576 W/m 2,1 C 25,1 C 17,2 km/h 95,65 %
21.04.2019 16:52 25,2 C 23 % 1017,1 hPa 0,0 l/m 2,7 km/h N 5 1 min 0,000 mm 2,1 UV-I 574 W/m 2,6 C 25,2 C 5,7 km/h 100,00 %
21.04.2019 16:51 25,2 C 22 % 1017,1 hPa 0,0 l/m 7,6 km/h N-NO 17 1 min 0,000 mm 2,1 UV-I 578 W/m 2,0 C 24,9 C 9,6 km/h 95,65 %
21.04.2019 16:50 25,3 C 22 % 1017,1 hPa 0,0 l/m 5,5 km/h N-NO 13 1 min 0,000 mm 2,2 UV-I 582 W/m 2,1 C 25,3 C 15,3 km/h 92,86 %
21.04.2019 16:49 25,3 C 22 % 1017,1 hPa 0,0 l/m 1,4 km/h O-SO 103 1 min 0,000 mm 2,2 UV-I 582 W/m 2,1 C 25,3 C 3,8 km/h 100,00 %
21.04.2019 16:48 25,3 C 22 % 1017,1 hPa 0,0 l/m 3,4 km/h O-SO 103 1 min 0,000 mm 2,2 UV-I 584 W/m 2,1 C 25,3 C 7,7 km/h 100,00 %
21.04.2019 16:47 25,2 C 23 % 1017,1 hPa 0,0 l/m 2,8 km/h O 101 1 min 0,000 mm 2,2 UV-I 583 W/m 2,6 C 25,2 C 5,7 km/h 96,55 %
21.04.2019 16:46 25,1 C 22 % 1017,2 hPa 0,0 l/m 5,4 km/h O 82 1 min 0,000 mm 2,2 UV-I 584 W/m 1,9 C 25,1 C 11,5 km/h 100,00 %
21.04.2019 16:45 25,1 C 21 % 1017,2 hPa 0,0 l/m 3,5 km/h N-NO 27 1 min 0,000 mm 2,2 UV-I 587 W/m 1,2 C 25,1 C 5,7 km/h 100,00 %
21.04.2019 16:44 24,9 C 21 % 1017,2 hPa 0,0 l/m 4,9 km/h O 86 1 min 0,000 mm 2,2 UV-I 590 W/m 1,1 C 24,9 C 9,6 km/h 95,65 %
21.04.2019 16:43 24,9 C 21 % 1017,2 hPa 0,0 l/m 3,9 km/h N-NW 329 1 min 0,000 mm 2,2 UV-I 588 W/m 1,1 C 24,9 C 9,6 km/h 100,00 %
21.04.2019 16:42 24,8 C 21 % 1017,2 hPa 0,0 l/m 1,2 km/h NW 304 1 min 0,000 mm 2,2 UV-I 591 W/m 1,0 C 24,8 C 3,8 km/h 100,00 %
21.04.2019 16:41 24,7 C 21 % 1017,2 hPa 0,0 l/m 0,4 km/h W-NW 284 1 min 0,000 mm 2,2 UV-I 591 W/m 0,9 C 24,7 C 1,9 km/h 95,83 %
21.04.2019 16:40 24,7 C 20 % 1017,2 hPa 0,0 l/m 1,4 km/h W-NW 284 1 min 0,000 mm 2,2 UV-I 597 W/m 0,2 C 24,7 C 5,7 km/h 100,00 %
21.04.2019 16:39 24,7 C 21 % 1017,2 hPa 0,0 l/m 4,2 km/h W-NW 284 1 min 0,000 mm 2,2 UV-I 600 W/m 0,9 C 24,7 C 7,7 km/h 100,00 %
21.04.2019 16:38 24,7 C 20 % 1017,2 hPa 0,0 l/m 4,0 km/h W-SW 238 1 min 0,000 mm 2,3 UV-I 605 W/m 0,2 C 24,7 C 7,7 km/h 100,00 %
21.04.2019 16:37 24,7 C 21 % 1017,2 hPa 0,0 l/m 8,1 km/h NW 307 1 min 0,000 mm 2,3 UV-I 608 W/m 0,9 C 24,3 C 11,5 km/h 100,00 %
21.04.2019 16:36 24,7 C 20 % 1017,2 hPa 0,0 l/m 4,0 km/h NW 326 1 min 0,000 mm 2,3 UV-I 610 W/m 0,2 C 24,7 C 7,7 km/h 100,00 %
21.04.2019 16:35 24,7 C 20 % 1017,3 hPa 0,0 l/m 8,9 km/h NO 44 1 min 0,000 mm 2,3 UV-I 612 W/m 0,2 C 24,1 C 15,3 km/h 100,00 %
21.04.2019 16:34 24,8 C 21 % 1017,3 hPa 0,0 l/m 13,5 km/h N 355 1 min 0,000 mm 2,3 UV-I 613 W/m 1,0 C 23,3 C 19,1 km/h 96,15 %
21.04.2019 16:33 24,8 C 20 % 1017,3 hPa 0,0 l/m 12,1 km/h N 355 1 min 0,000 mm 2,4 UV-I 614 W/m 0,3 C 23,5 C 17,2 km/h 100,00 %
21.04.2019 16:32 24,8 C 20 % 1017,3 hPa 0,0 l/m 3,2 km/h N 360 1 min 0,000 mm 2,4 UV-I 619 W/m 0,3 C 24,8 C 11,5 km/h 100,00 %
21.04.2019 16:31 24,8 C 19 % 1017,3 hPa 0,0 l/m 1,8 km/h N-NW 332 1 min 0,000 mm 2,4 UV-I 621 W/m -0,4 C 24,8 C 3,8 km/h 100,00 %
21.04.2019 16:30 24,9 C 19 % 1017,4 hPa 0,0 l/m 2,1 km/h N-NW 333 1 min 0,000 mm 2,4 UV-I 621 W/m -0,3 C 24,9 C 5,7 km/h 100,00 %
21.04.2019 16:29 24,9 C 20 % 1017,4 hPa 0,0 l/m 3,8 km/h N-NW 344 1 min 0,000 mm 2,4 UV-I 623 W/m 0,4 C 24,9 C 7,7 km/h 100,00 %
21.04.2019 16:28 25,1 C 19 % 1017,3 hPa 0,0 l/m 7,4 km/h N-NW 339 1 min 0,000 mm 2,4 UV-I 625 W/m -0,1 C 24,9 C 9,6 km/h 100,00 %
21.04.2019 16:27 25,2 C 20 % 1017,4 hPa 0,0 l/m 11,2 km/h N 355 1 min 0,000 mm 2,5 UV-I 627 W/m 0,6 C 24,2 C 15,3 km/h 100,00 %
21.04.2019 16:26 25,3 C 20 % 1017,3 hPa 0,0 l/m 7,5 km/h N-NO 14 1 min 0,000 mm 2,5 UV-I 630 W/m 0,7 C 25,0 C 11,5 km/h 100,00 %
21.04.2019 16:25 25,3 C 20 % 1017,4 hPa 0,0 l/m 3,9 km/h N 360 1 min 0,000 mm 2,5 UV-I 633 W/m 0,7 C 25,3 C 9,6 km/h 100,00 %
21.04.2019 16:24 25,3 C 20 % 1017,4 hPa 0,0 l/m 2,6 km/h O 101 1 min 0,000 mm 2,5 UV-I 633 W/m 0,7 C 25,3 C 7,7 km/h 100,00 %
21.04.2019 16:23 25,3 C 20 % 1017,4 hPa 0,0 l/m 3,6 km/h O-SO 105 1 min 0,000 mm 2,5 UV-I 634 W/m 0,7 C 25,3 C 5,7 km/h 100,00 %
21.04.2019 16:22 25,3 C 22 % 1017,4 hPa 0,0 l/m 4,3 km/h O-NO 73 1 min 0,000 mm 2,5 UV-I 636 W/m 2,1 C 25,3 C 7,7 km/h 100,00 %
21.04.2019 16:21 25,3 C 21 % 1017,5 hPa 0,0 l/m 3,2 km/h SO 136 1 min 0,000 mm 2,5 UV-I 641 W/m 1,4 C 25,3 C 7,7 km/h 100,00 %
21.04.2019 16:20 25,3 C 21 % 1017,5 hPa 0,0 l/m 5,0 km/h O-SO 115 1 min 0,000 mm 2,6 UV-I 642 W/m 1,4 C 25,3 C 7,7 km/h 100,00 %
21.04.2019 16:19 25,3 C 20 % 1017,5 hPa 0,0 l/m 6,1 km/h N-NO 23 1 min 0,000 mm 2,6 UV-I 642 W/m 0,7 C 25,3 C 7,7 km/h 96,15 %
21.04.2019 16:18 25,4 C 20 % 1017,5 hPa 0,0 l/m 9,3 km/h N 5 1 min 0,000 mm 2,6 UV-I 643 W/m 0,8 C 24,7 C 11,5 km/h 100,00 %
21.04.2019 16:17 25,5 C 21 % 1017,5 hPa 0,0 l/m 5,6 km/h N-NW 331 1 min 0,000 mm 2,6 UV-I 643 W/m 1,6 C 25,5 C 7,7 km/h 100,00 %
21.04.2019 16:16 25,5 C 20 % 1017,6 hPa 0,0 l/m 1,4 km/h NW 323 1 min 0,000 mm 2,6 UV-I 642 W/m 0,9 C 25,5 C 7,7 km/h 100,00 %
21.04.2019 16:15 25,5 C 20 % 1017,5 hPa 0,0 l/m 0,3 km/h O 84 1 min 0,000 mm 2,6 UV-I 647 W/m 0,9 C 25,5 C 1,9 km/h 100,00 %
21.04.2019 16:14 25,4 C 20 % 1017,6 hPa 0,0 l/m 0,7 km/h O 84 1 min 0,000 mm 2,7 UV-I 655 W/m 0,8 C 25,4 C 1,9 km/h 100,00 %
21.04.2019 16:13 25,4 C 21 % 1017,6 hPa 0,0 l/m 6,9 km/h O 84 1 min 0,000 mm 2,7 UV-I 661 W/m 1,5 C 25,3 C 9,6 km/h 100,00 %
21.04.2019 16:12 25,4 C 21 % 1017,6 hPa 0,0 l/m 6,7 km/h O-NO 78 1 min 0,000 mm 2,7 UV-I 663 W/m 1,5 C 25,3 C 13,4 km/h 100,00 %
21.04.2019 16:11 25,3 C 20 % 1017,6 hPa 0,0 l/m 1,9 km/h O 82 1 min 0,000 mm 2,7 UV-I 662 W/m 0,7 C 25,3 C 3,8 km/h 100,00 %
21.04.2019 16:10 25,2 C 21 % 1017,7 hPa 0,0 l/m 2,2 km/h O-NO 59 1 min 0,000 mm 2,7 UV-I 665 W/m 1,3 C 25,2 C 5,7 km/h 100,00 %
21.04.2019 16:09 25,1 C 21 % 1017,7 hPa 0,0 l/m 1,6 km/h O-NO 63 1 min 0,000 mm 2,8 UV-I 668 W/m 1,2 C 25,1 C 3,8 km/h 96,15 %
21.04.2019 16:08 25,1 C 21 % 1017,7 hPa 0,0 l/m 3,3 km/h N-NO 22 1 min 0,000 mm 2,8 UV-I 671 W/m 1,2 C 25,1 C 7,7 km/h 100,00 %
21.04.2019 16:07 25,0 C 21 % 1017,8 hPa 0,0 l/m 6,5 km/h O 86 1 min 0,000 mm 2,8 UV-I 673 W/m 1,2 C 25,0 C 17,2 km/h 100,00 %
21.04.2019 16:06 24,9 C 22 % 1017,7 hPa 0,0 l/m 9,3 km/h O-NO 78 1 min 0,000 mm 2,8 UV-I 674 W/m 1,7 C 24,2 C 15,3 km/h 100,00 %
21.04.2019 16:05 24,9 C 22 % 1017,7 hPa 0,0 l/m 9,2 km/h O-NO 78 1 min 0,000 mm 2,8 UV-I 675 W/m 1,7 C 24,2 C 15,3 km/h 100,00 %
21.04.2019 16:04 25,0 C 23 % 1017,7 hPa 0,0 l/m 8,9 km/h O 82 1 min 0,000 mm 2,8 UV-I 676 W/m 2,4 C 24,4 C 19,1 km/h 100,00 %
21.04.2019 16:03 25,0 C 23 % 1017,8 hPa 0,0 l/m 2,3 km/h O-SO 107 1 min 0,000 mm 2,9 UV-I 679 W/m 2,4 C 25,0 C 5,7 km/h 100,00 %
21.04.2019 16:02 25,0 C 21 % 1017,8 hPa 0,0 l/m 5,8 km/h O-SO 107 1 min 0,001 mm 2,9 UV-I 680 W/m 1,2 C 25,0 C 11,5 km/h 100,00 %
21.04.2019 16:01 25,1 C 21 % 1017,8 hPa 0,0 l/m 9,6 km/h O 86 1 min 0,533 mm 2,9 UV-I 684 W/m 1,2 C 24,4 C 13,4 km/h 100,00 %
21.04.2019 16:00 25,3 C 22 % 1017,8 hPa 0,0 l/m 10,8 km/h SO 125 1 min 0,000 mm 2,9 UV-I 685 W/m 2,1 C 24,3 C 15,3 km/h 100,00 %
21.04.2019 15:59 25,3 C 22 % 1017,8 hPa 0,0 l/m 12,6 km/h O-SO 116 1 min 0,000 mm 2,9 UV-I 687 W/m 2,1 C 24,0 C 19,1 km/h 100,00 %
21.04.2019 15:58 25,3 C 22 % 1017,8 hPa 0,0 l/m 7,5 km/h O-SO 118 1 min 0,000 mm 3,0 UV-I 689 W/m 2,1 C 25,0 C 13,4 km/h 100,00 %
21.04.2019 15:57 25,3 C 23 % 1017,8 hPa 0,0 l/m 5,0 km/h O 98 1 min 0,000 mm 3,0 UV-I 691 W/m 2,7 C 25,3 C 7,7 km/h 100,00 %
21.04.2019 15:56 25,3 C 22 % 1017,9 hPa 0,0 l/m 5,5 km/h O-SO 113 1 min 0,000 mm 3,0 UV-I 693 W/m 2,1 C 25,3 C 7,7 km/h 100,00 %
21.04.2019 15:55 25,3 C 22 % 1017,9 hPa 0,0 l/m 5,1 km/h O 92 1 min 0,000 mm 3,0 UV-I 695 W/m 2,1 C 25,3 C 7,7 km/h 100,00 %
21.04.2019 15:54 25,2 C 22 % 1017,9 hPa 0,0 l/m 3,6 km/h O-SO 110 1 min 0,000 mm 3,0 UV-I 700 W/m 2,0 C 25,2 C 11,5 km/h 100,00 %
21.04.2019 15:53 25,1 C 22 % 1017,9 hPa 0,0 l/m 4,9 km/h O 92 1 min 0,000 mm 3,0 UV-I 701 W/m 1,9 C 25,1 C 7,7 km/h 100,00 %
21.04.2019 15:52 25,0 C 22 % 1017,9 hPa 0,0 l/m 2,4 km/h O 80 1 min 0,000 mm 3,1 UV-I 702 W/m 1,8 C 25,0 C 5,7 km/h 100,00 %
21.04.2019 15:51 24,9 C 22 % 1017,9 hPa 0,0 l/m 0,5 km/h O-NO 74 1 min 0,000 mm 3,1 UV-I 704 W/m 1,7 C 24,9 C 3,8 km/h 100,00 %
21.04.2019 15:50 24,9 C 22 % 1018,0 hPa 0,0 l/m 2,9 km/h N 11 1 min 0,000 mm 3,1 UV-I 705 W/m 1,7 C 24,9 C 5,7 km/h 100,00 %
21.04.2019 15:49 24,8 C 21 % 1018,0 hPa 0,0 l/m 5,3 km/h O-NO 67 1 min 0,000 mm 3,1 UV-I 709 W/m 1,0 C 24,8 C 7,7 km/h 100,00 %
21.04.2019 15:48 24,8 C 21 % 1018,0 hPa 0,0 l/m 5,8 km/h O 95 1 min 0,000 mm 3,1 UV-I 714 W/m 1,0 C 24,8 C 11,5 km/h 98,82 %
21.04.2019 15:47 24,8 C 23 % 1018,0 hPa 0,0 l/m 7,9 km/h O-SO 119 1 min 0,000 mm 3,1 UV-I 716 W/m 2,3 C 24,4 C 13,4 km/h 100,00 %
21.04.2019 15:46 24,7 C 22 % 1018,0 hPa 0,0 l/m 7,2 km/h SO 142 1 min 0,000 mm 3,1 UV-I 717 W/m 1,6 C 24,5 C 13,4 km/h 100,00 %
21.04.2019 15:45 24,7 C 21 % 1018,1 hPa 0,0 l/m 6,4 km/h O 85 1 min 0,000 mm 3,1 UV-I 717 W/m 0,9 C 24,7 C 13,4 km/h 100,00 %
21.04.2019 15:44 24,7 C 22 % 1018,1 hPa 0,0 l/m 6,4 km/h O 96 1 min 0,000 mm 3,1 UV-I 717 W/m 1,6 C 24,7 C 13,4 km/h 100,00 %
21.04.2019 15:43 24,7 C 22 % 1018,1 hPa 0,0 l/m 6,7 km/h O 88 1 min 0,000 mm 3,2 UV-I 719 W/m 1,6 C 24,6 C 13,4 km/h 96,15 %
21.04.2019 15:42 24,6 C 21 % 1018,0 hPa 0,0 l/m 7,8 km/h N 11 1 min 0,000 mm 3,2 UV-I 721 W/m 0,8 C 24,2 C 15,3 km/h 100,00 %
21.04.2019 15:41 24,7 C 20 % 1018,1 hPa 0,0 l/m 10,3 km/h N-NW 347 1 min 0,000 mm 3,2 UV-I 721 W/m 0,2 C 23,8 C 17,2 km/h 100,00 %
21.04.2019 15:40 24,8 C 21 % 1018,1 hPa 0,0 l/m 10,6 km/h N 355 1 min 0,000 mm 3,2 UV-I 720 W/m 1,0 C 23,8 C 19,1 km/h 100,00 %
21.04.2019 15:39 24,8 C 21 % 1018,1 hPa 0,0 l/m 3,7 km/h N-NO 23 1 min 0,000 mm 3,2 UV-I 719 W/m 1,0 C 24,8 C 5,7 km/h 100,00 %
21.04.2019 15:38 24,9 C 20 % 1018,2 hPa 0,0 l/m 4,8 km/h W-NW 298 1 min 0,000 mm 3,2 UV-I 719 W/m 0,4 C 24,9 C 7,7 km/h 100,00 %
21.04.2019 15:37 25,1 C 20 % 1018,2 hPa 0,0 l/m 9,9 km/h NW 323 1 min 0,000 mm 3,2 UV-I 719 W/m 0,6 C 24,3 C 15,3 km/h 100,00 %
21.04.2019 15:36 25,2 C 21 % 1018,2 hPa 0,0 l/m 9,6 km/h N 349 1 min 0,000 mm 3,2 UV-I 720 W/m 1,3 C 24,5 C 15,3 km/h 100,00 %
21.04.2019 15:35 25,3 C 22 % 1018,2 hPa 0,0 l/m 6,6 km/h N 360 1 min 0,000 mm 3,2 UV-I 725 W/m 2,1 C 25,3 C 15,3 km/h 100,00 %
21.04.2019 15:34 25,2 C 22 % 1018,2 hPa 0,0 l/m 1,8 km/h NO 44 1 min 0,000 mm 3,3 UV-I 728 W/m 2,0 C 25,2 C 3,8 km/h 100,00 %
21.04.2019 15:33 25,1 C 23 % 1018,2 hPa 0,0 l/m 3,9 km/h N-NO 18 1 min 0,000 mm 3,3 UV-I 729 W/m 2,5 C 25,1 C 7,7 km/h 100,00 %
21.04.2019 15:32 25,1 C 23 % 1018,2 hPa 0,0 l/m 2,7 km/h O-SO 113 1 min 0,000 mm 3,3 UV-I 729 W/m 2,5 C 25,1 C 5,7 km/h 100,00 %
21.04.2019 15:31 25,1 C 22 % 1018,2 hPa 0,0 l/m 5,7 km/h SO 124 1 min 0,000 mm 3,3 UV-I 732 W/m 1,9 C 25,1 C 9,6 km/h 100,00 %
21.04.2019 15:30 25,1 C 22 % 1018,2 hPa 0,0 l/m 10,9 km/h O-NO 70 1 min 0,000 mm 3,3 UV-I 733 W/m 1,9 C 24,1 C 15,3 km/h 100,00 %
21.04.2019 15:29 25,2 C 22 % 1018,2 hPa 0,0 l/m 7,2 km/h O 88 1 min 0,000 mm 3,3 UV-I 735 W/m 2,0 C 25,0 C 15,3 km/h 100,00 %
21.04.2019 15:28 25,2 C 22 % 1018,3 hPa 0,0 l/m 3,4 km/h O-NO 65 1 min 0,000 mm 3,4 UV-I 740 W/m 2,0 C 25,2 C 5,7 km/h 100,00 %
21.04.2019 15:27 25,2 C 22 % 1018,3 hPa 0,0 l/m 6,2 km/h NO 43 1 min 0,000 mm 3,4 UV-I 743 W/m 2,0 C 25,2 C 17,2 km/h 100,00 %
21.04.2019 15:26 25,3 C 21 % 1018,3 hPa 0,0 l/m 6,5 km/h O-NO 72 1 min 0,000 mm 3,4 UV-I 744 W/m 1,4 C 25,3 C 15,3 km/h 100,00 %
21.04.2019 15:25 25,3 C 21 % 1018,3 hPa 0,0 l/m 1,5 km/h SO 129 1 min 0,000 mm 3,4 UV-I 745 W/m 1,4 C 25,3 C 5,7 km/h 100,00 %
21.04.2019 15:24 25,4 C 22 % 1018,3 hPa 0,0 l/m 7,7 km/h SO 128 1 min 0,000 mm 3,5 UV-I 747 W/m 2,1 C 25,1 C 15,3 km/h 100,00 %
21.04.2019 15:23 25,3 C 21 % 1018,3 hPa 0,0 l/m 2,3 km/h O-NO 71 1 min 0,000 mm 3,5 UV-I 749 W/m 1,4 C 25,3 C 5,7 km/h 100,00 %
21.04.2019 15:22 25,2 C 21 % 1018,4 hPa 0,0 l/m 1,3 km/h N-NW 348 1 min 0,000 mm 3,5 UV-I 751 W/m 1,3 C 25,2 C 5,7 km/h 100,00 %
21.04.2019 15:21 25,2 C 22 % 1018,4 hPa 0,0 l/m 4,9 km/h N 349 1 min 0,000 mm 3,5 UV-I 752 W/m 2,0 C 25,2 C 13,4 km/h 100,00 %
21.04.2019 15:20 25,1 C 22 % 1018,4 hPa 0,0 l/m 7,3 km/h O 79 1 min 0,000 mm 3,5 UV-I 756 W/m 1,9 C 24,9 C 15,3 km/h 96,30 %
21.04.2019 15:19 25,0 C 24 % 1018,4 hPa 0,0 l/m 6,5 km/h O 92 1 min 0,000 mm 3,5 UV-I 753 W/m 3,0 C 25,0 C 13,4 km/h 100,00 %
21.04.2019 15:18 25,0 C 24 % 1018,4 hPa 0,0 l/m 2,3 km/h SO 137 1 min 0,000 mm 3,5 UV-I 752 W/m 3,0 C 25,0 C 9,6 km/h 100,00 %
21.04.2019 15:17 24,9 C 23 % 1018,5 hPa 0,0 l/m 3,9 km/h O 98 1 min 0,000 mm 3,5 UV-I 753 W/m 2,3 C 24,9 C 5,7 km/h 100,00 %
21.04.2019 15:16 24,9 C 25 % 1018,4 hPa 0,0 l/m 5,8 km/h O-SO 103 1 min 0,000 mm 3,5 UV-I 753 W/m 3,5 C 24,9 C 9,6 km/h 96,15 %
21.04.2019 15:15 24,9 C 24 % 1018,4 hPa 0,0 l/m 2,6 km/h N 5 1 min 0,000 mm 3,6 UV-I 755 W/m 2,9 C 24,9 C 5,7 km/h 97,73 %
21.04.2019 15:14 24,8 C 24 % 1018,4 hPa 0,0 l/m 3,4 km/h N 5 1 min 0,000 mm 3,6 UV-I 758 W/m 2,9 C 24,8 C 7,7 km/h 98,78 %
21.04.2019 15:13 24,7 C 24 % 1018,5 hPa 0,0 l/m 0,4 km/h O-SO 107 1 min 0,000 mm 3,5 UV-I 757 W/m 2,8 C 24,7 C 1,9 km/h 100,00 %
21.04.2019 15:12 24,6 C 25 % 1018,5 hPa 0,0 l/m 2,5 km/h O-SO 107 1 min 0,000 mm 3,6 UV-I 758 W/m 3,3 C 24,6 C 5,7 km/h 100,00 %
21.04.2019 15:11 24,5 C 24 % 1018,5 hPa 0,0 l/m 3,7 km/h O-SO 107 1 min 0,000 mm 3,5 UV-I 758 W/m 2,6 C 24,5 C 7,7 km/h 100,00 %
21.04.2019 15:10 24,5 C 24 % 1018,5 hPa 0,0 l/m 4,1 km/h O 80 1 min 0,000 mm 3,5 UV-I 758 W/m 2,6 C 24,5 C 5,7 km/h 100,00 %
21.04.2019 15:09 24,5 C 24 % 1018,6 hPa 0,0 l/m 5,1 km/h O 82 1 min 0,000 mm 3,6 UV-I 762 W/m 2,6 C 24,5 C 7,7 km/h 100,00 %
21.04.2019 15:08 24,5 C 23 % 1018,6 hPa 0,0 l/m 3,5 km/h O-NO 61 1 min 0,000 mm 3,6 UV-I 761 W/m 2,0 C 24,5 C 11,5 km/h 100,00 %
21.04.2019 15:07 24,5 C 23 % 1018,6 hPa 0,0 l/m 5,1 km/h NO 42 1 min 0,000 mm 3,6 UV-I 761 W/m 2,0 C 24,5 C 7,7 km/h 100,00 %
21.04.2019 15:06 24,6 C 23 % 1018,6 hPa 0,0 l/m 11,7 km/h N-NW 342 1 min 0,000 mm 3,6 UV-I 762 W/m 2,1 C 23,4 C 17,2 km/h 100,00 %
21.04.2019 15:05 24,6 C 24 % 1018,6 hPa 0,0 l/m 9,3 km/h N 355 1 min 0,000 mm 3,6 UV-I 760 W/m 2,7 C 23,9 C 17,2 km/h 100,00 %
21.04.2019 15:04 24,6 C 24 % 1018,7 hPa 0,0 l/m 5,1 km/h O 90 1 min 0,000 mm 3,6 UV-I 759 W/m 2,7 C 24,6 C 11,5 km/h 100,00 %
21.04.2019 15:03 24,5 C 24 % 1018,7 hPa 0,0 l/m 4,6 km/h O-SO 111 1 min 0,000 mm 3,6 UV-I 759 W/m 2,6 C 24,5 C 11,5 km/h 100,00 %
21.04.2019 15:02 24,4 C 24 % 1018,7 hPa 0,0 l/m 2,6 km/h O 91 1 min 0,000 mm 3,6 UV-I 765 W/m 2,5 C 24,4 C 7,7 km/h 100,00 %
21.04.2019 15:01 24,3 C 24 % 1018,7 hPa 0,0 l/m 7,7 km/h O-SO 102 1 min 0,558 mm 3,6 UV-I 766 W/m 2,4 C 23,9 C 11,5 km/h 100,00 %
21.04.2019 15:00 24,2 C 25 % 1018,7 hPa 0,0 l/m 3,9 km/h O 97 1 min 0,000 mm 3,7 UV-I 770 W/m 2,9 C 24,2 C 9,6 km/h 100,00 %
21.04.2019 14:59 24,2 C 25 % 1018,8 hPa 0,0 l/m 7,4 km/h NO 40 1 min 0,000 mm 3,7 UV-I 772 W/m 2,9 C 23,9 C 11,5 km/h 100,00 %
21.04.2019 14:58 24,2 C 25 % 1018,8 hPa 0,0 l/m 9,0 km/h N 5 1 min 0,000 mm 3,7 UV-I 771 W/m 2,9 C 23,5 C 15,3 km/h 100,00 %
21.04.2019 14:57 24,3 C 25 % 1018,8 hPa 0,0 l/m 3,3 km/h N-NO 32 1 min 0,000 mm 3,7 UV-I 772 W/m 3,0 C 24,3 C 7,7 km/h 96,15 %
21.04.2019 14:56 24,3 C 26 % 1018,8 hPa 0,0 l/m 4,2 km/h N-NO 25 1 min 0,000 mm 3,7 UV-I 772 W/m 3,6 C 24,3 C 7,7 km/h 100,00 %
21.04.2019 14:55 24,2 C 26 % 1018,8 hPa 0,0 l/m 6,6 km/h N-NO 13 1 min 0,000 mm 3,7 UV-I 772 W/m 3,5 C 24,2 C 19,1 km/h 95,65 %
21.04.2019 14:54 24,2 C 26 % 1018,8 hPa 0,0 l/m 9,0 km/h O 94 1 min 0,000 mm 3,7 UV-I 771 W/m 3,5 C 23,5 C 15,3 km/h 100,00 %
21.04.2019 14:53 24,2 C 26 % 1018,8 hPa 0,0 l/m 9,1 km/h N 360 1 min 0,000 mm 3,7 UV-I 772 W/m 3,5 C 23,5 C 17,2 km/h 92,31 %
21.04.2019 14:52 24,2 C 26 % 1018,8 hPa 0,0 l/m 7,0 km/h N-NW 348 1 min 0,000 mm 3,7 UV-I 774 W/m 3,5 C 24,0 C 11,5 km/h 100,00 %
21.04.2019 14:51 24,2 C 27 % 1018,8 hPa 0,0 l/m 6,8 km/h N-NO 30 1 min 0,000 mm 3,7 UV-I 778 W/m 4,0 C 24,1 C 11,5 km/h 96,15 %
21.04.2019 14:50 24,1 C 27 % 1018,8 hPa 0,0 l/m 3,3 km/h NO 34 1 min 0,000 mm 3,7 UV-I 776 W/m 3,9 C 24,1 C 5,7 km/h 100,00 %
21.04.2019 14:49 24,1 C 27 % 1018,8 hPa 0,0 l/m 9,7 km/h N-NO 22 1 min 0,000 mm 3,7 UV-I 777 W/m 3,9 C 23,2 C 17,2 km/h 95,83 %
21.04.2019 14:48 24,1 C 26 % 1018,8 hPa 0,0 l/m 8,4 km/h N-NW 334 1 min 0,000 mm 3,8 UV-I 777 W/m 3,4 C 23,6 C 13,4 km/h 97,56 %
21.04.2019 14:47 24,2 C 27 % 1018,9 hPa 0,0 l/m 7,3 km/h W-SW 246 1 min 0,000 mm 3,8 UV-I 777 W/m 4,0 C 23,9 C 15,3 km/h 100,00 %
21.04.2019 14:46 24,2 C 27 % 1018,9 hPa 0,0 l/m 7,1 km/h N 355 1 min 0,000 mm 3,8 UV-I 780 W/m 4,0 C 24,0 C 11,5 km/h 95,65 %
21.04.2019 14:45 24,3 C 27 % 1018,9 hPa 0,0 l/m 8,5 km/h N-NW 346 1 min 0,000 mm 3,8 UV-I 780 W/m 4,1 C 23,7 C 15,3 km/h 100,00 %
21.04.2019 14:44 24,3 C 26 % 1018,9 hPa 0,0 l/m 9,3 km/h N 360 1 min 0,000 mm 3,8 UV-I 779 W/m 3,6 C 23,5 C 15,3 km/h 93,33 %
21.04.2019 14:43 24,3 C 27 % 1018,9 hPa 0,0 l/m 1,2 km/h N 10 1 min 0,000 mm 3,8 UV-I 778 W/m 4,1 C 24,3 C 9,6 km/h 100,00 %
21.04.2019 14:42 24,2 C 28 % 1018,9 hPa 0,0 l/m 1,1 km/h O 81 1 min 0,000 mm 3,8 UV-I 778 W/m 4,5 C 24,2 C 1,9 km/h 96,15 %
21.04.2019 14:41 24,1 C 28 % 1019,0 hPa 0,0 l/m 1,9 km/h O 84 1 min 0,000 mm 3,8 UV-I 781 W/m 4,4 C 24,1 C 5,7 km/h 96,30 %
21.04.2019 14:40 24,0 C 28 % 1019,0 hPa 0,0 l/m 4,9 km/h O 85 1 min 0,000 mm 3,8 UV-I 784 W/m 4,4 C 24,0 C 17,2 km/h 100,00 %
21.04.2019 14:39 24,0 C 27 % 1019,0 hPa 0,0 l/m 16,3 km/h N 5 1 min 0,000 mm 3,9 UV-I 788 W/m 3,8 C 21,9 C 19,1 km/h 96,30 %
21.04.2019 14:38 24,1 C 27 % 1018,9 hPa 0,0 l/m 14,1 km/h N 360 1 min 0,000 mm 3,9 UV-I 787 W/m 3,9 C 22,4 C 21,0 km/h 100,00 %
21.04.2019 14:37 24,1 C 27 % 1019,0 hPa 0,0 l/m 9,6 km/h N 350 1 min 0,000 mm 3,9 UV-I 786 W/m 3,9 C 23,3 C 15,3 km/h 97,73 %
21.04.2019 14:36 24,1 C 27 % 1019,0 hPa 0,0 l/m 5,5 km/h NW 321 1 min 0,000 mm 3,9 UV-I 790 W/m 3,9 C 24,1 C 9,6 km/h 98,80 %
21.04.2019 14:35 24,1 C 27 % 1019,1 hPa 0,0 l/m 5,3 km/h W-NW 296 1 min 0,000 mm 3,9 UV-I 792 W/m 3,9 C 24,1 C 9,6 km/h 96,30 %
21.04.2019 14:34 24,1 C 27 % 1019,1 hPa 0,0 l/m 4,5 km/h NW 308 1 min 0,000 mm 3,9 UV-I 795 W/m 3,9 C 24,1 C 7,7 km/h 100,00 %
21.04.2019 14:33 24,1 C 27 % 1019,1 hPa 0,0 l/m 7,8 km/h NW 315 1 min 0,000 mm 4,0 UV-I 795 W/m 3,9 C 23,7 C 11,5 km/h 91,67 %
21.04.2019 14:32 23,9 C 28 % 1019,1 hPa 0,0 l/m 6,5 km/h N-NO 23 1 min 0,000 mm 4,0 UV-I 797 W/m 4,3 C 23,9 C 9,6 km/h 100,00 %
21.04.2019 14:31 23,9 C 27 % 1019,1 hPa 0,0 l/m 1,2 km/h W-NW 302 1 min 0,000 mm 4,0 UV-I 797 W/m 3,8 C 23,9 C 3,8 km/h 96,30 %
21.04.2019 14:30 23,9 C 27 % 1019,2 hPa 0,0 l/m 4,0 km/h W-NW 301 1 min 0,000 mm 4,0 UV-I 795 W/m 3,8 C 23,9 C 7,7 km/h 91,30 %
21.04.2019 14:29 23,9 C 27 % 1019,2 hPa 0,0 l/m 0,6 km/h O-SO 107 1 min 0,000 mm 4,0 UV-I 793 W/m 3,8 C 23,9 C 1,9 km/h 96,30 %
21.04.2019 14:28 23,8 C 29 % 1019,2 hPa 0,0 l/m 1,9 km/h O-SO 107 1 min 0,000 mm 4,0 UV-I 795 W/m 4,7 C 23,8 C 5,7 km/h 95,65 %
21.04.2019 14:27 23,8 C 28 % 1019,3 hPa 0,0 l/m 3,3 km/h O-NO 71 1 min 0,000 mm 3,9 UV-I 793 W/m 4,2 C 23,8 C 5,7 km/h 100,00 %
21.04.2019 14:26 23,7 C 27 % 1019,3 hPa 0,0 l/m 3,2 km/h N 5 1 min 0,000 mm 3,9 UV-I 795 W/m 3,6 C 23,7 C 7,7 km/h 96,15 %
21.04.2019 14:25 23,7 C 27 % 1019,3 hPa 0,0 l/m 4,5 km/h N 360 1 min 0,000 mm 3,9 UV-I 795 W/m 3,6 C 23,7 C 13,4 km/h 100,00 %
21.04.2019 14:24 23,7 C 28 % 1019,3 hPa 0,0 l/m 7,9 km/h N 355 1 min 0,000 mm 3,9 UV-I 793 W/m 4,1 C 23,3 C 15,3 km/h 95,83 %
21.04.2019 14:23 23,8 C 28 % 1019,3 hPa 0,0 l/m 1,4 km/h NW 323 1 min 0,000 mm 3,9 UV-I 792 W/m 4,2 C 23,8 C 5,7 km/h 96,15 %
21.04.2019 14:22 23,8 C 28 % 1019,3 hPa 0,0 l/m 6,1 km/h NW 316 1 min 0,000 mm 3,9 UV-I 793 W/m 4,2 C 23,8 C 11,5 km/h 100,00 %
21.04.2019 14:21 23,7 C 28 % 1019,3 hPa 0,0 l/m 7,2 km/h N-NO 24 1 min 0,000 mm 3,9 UV-I 795 W/m 4,1 C 23,5 C 15,3 km/h 95,65 %
21.04.2019 14:20 23,7 C 28 % 1019,4 hPa 0,0 l/m 9,0 km/h NO 34 1 min 0,000 mm 3,9 UV-I 795 W/m 4,1 C 23,0 C 15,3 km/h 100,00 %
21.04.2019 14:19 23,6 C 30 % 1019,4 hPa 0,0 l/m 10,9 km/h N-NO 15 1 min 0,000 mm 4,0 UV-I 795 W/m 5,0 C 22,4 C 19,1 km/h 95,65 %
21.04.2019 14:18 23,4 C 30 % 1019,4 hPa 0,0 l/m 6,5 km/h N 10 1 min 0,000 mm 4,0 UV-I 796 W/m 4,8 C 23,4 C 15,3 km/h 100,00 %
21.04.2019 14:17 23,3 C 30 % 1019,3 hPa 0,0 l/m 5,2 km/h N-NO 17 1 min 0,000 mm 3,9 UV-I 795 W/m 4,7 C 23,3 C 7,7 km/h 95,65 %
21.04.2019 14:16 23,2 C 30 % 1019,4 hPa 0,0 l/m 5,3 km/h N 5 1 min 0,000 mm 3,9 UV-I 792 W/m 4,7 C 23,2 C 9,6 km/h 95,83 %
21.04.2019 14:15 23,2 C 30 % 1019,4 hPa 0,0 l/m 1,0 km/h O 101 1 min 0,000 mm 3,9 UV-I 795 W/m 4,7 C 23,2 C 1,9 km/h 100,00 %
21.04.2019 14:14 23,2 C 29 % 1019,4 hPa 0,0 l/m 4,4 km/h N-NO 23 1 min 0,000 mm 3,9 UV-I 793 W/m 4,2 C 23,2 C 13,4 km/h 100,00 %
21.04.2019 14:13 23,3 C 30 % 1019,4 hPa 0,0 l/m 15,1 km/h N 10 1 min 0,000 mm 3,9 UV-I 791 W/m 4,7 C 21,2 C 19,1 km/h 100,00 %
21.04.2019 14:12 23,3 C 31 % 1019,4 hPa 0,0 l/m 16,0 km/h N-NW 339 1 min 0,000 mm 3,9 UV-I 790 W/m 5,2 C 21,1 C 19,1 km/h 100,00 %
21.04.2019 14:11 23,3 C 30 % 1019,4 hPa 0,0 l/m 9,4 km/h N 5 1 min 0,000 mm 3,9 UV-I 791 W/m 4,7 C 22,4 C 15,3 km/h 100,00 %
21.04.2019 14:10 23,4 C 30 % 1019,4 hPa 0,0 l/m 8,4 km/h N-NW 329 1 min 0,000 mm 3,9 UV-I 791 W/m 4,8 C 22,8 C 11,5 km/h 100,00 %
21.04.2019 14:09 23,5 C 30 % 1019,5 hPa 0,0 l/m 14,4 km/h N-NW 333 1 min 0,000 mm 3,9 UV-I 791 W/m 4,9 C 21,6 C 19,1 km/h 100,00 %
21.04.2019 14:08 23,7 C 30 % 1019,5 hPa 0,0 l/m 14,1 km/h N 9 1 min 0,000 mm 3,9 UV-I 791 W/m 5,1 C 21,9 C 17,2 km/h 96,15 %
21.04.2019 14:07 23,7 C 30 % 1019,4 hPa 0,0 l/m 11,7 km/h N-NO 18 1 min 0,000 mm 4,0 UV-I 789 W/m 5,1 C 22,4 C 17,2 km/h 100,00 %
21.04.2019 14:06 23,8 C 30 % 1019,5 hPa 0,0 l/m 6,1 km/h N-NW 336 1 min 0,000 mm 4,0 UV-I 791 W/m 5,2 C 23,8 C 15,3 km/h 100,00 %
21.04.2019 14:05 23,8 C 30 % 1019,5 hPa 0,0 l/m 8,3 km/h N-NW 341 1 min 0,000 mm 4,0 UV-I 793 W/m 5,2 C 23,3 C 15,3 km/h 100,00 %
21.04.2019 14:04 23,9 C 30 % 1019,5 hPa 0,0 l/m 9,5 km/h N-NW 331 1 min 0,000 mm 4,0 UV-I 793 W/m 5,3 C 23,1 C 17,2 km/h 100,00 %
21.04.2019 14:03 23,8 C 30 % 1019,5 hPa 0,0 l/m 4,1 km/h O 86 1 min 0,000 mm 4,0 UV-I 792 W/m 5,2 C 23,8 C 7,7 km/h 100,00 %
21.04.2019 14:02 23,7 C 31 % 1019,5 hPa 0,0 l/m 4,1 km/h O 84 1 min 0,001 mm 4,0 UV-I 795 W/m 5,6 C 23,7 C 5,7 km/h 100,00 %
21.04.2019 14:01 23,6 C 31 % 1019,5 hPa 0,0 l/m 4,0 km/h NO 40 1 min 0,533 mm 4,1 UV-I 799 W/m 5,5 C 23,6 C 7,7 km/h 100,00 %
21.04.2019 14:00 23,5 C 30 % 1019,5 hPa 0,0 l/m 5,5 km/h NW 306 1 min 0,000 mm 4,0 UV-I 797 W/m 4,9 C 23,5 C 9,6 km/h 96,55 %
_ Min-Zeit 06:46 16:28 13:56 - 21:22 - - - - - - 16:31 06:46 21:22 19:58
Minimum _ 8,8 C 19 % 1007,9 hPa - 0,0 km/h - - - - - - -0,4 C 8,8 C 0,0 km/h 81,82 %
_ Max-Zeit 13:44 06:49 14:00 14:00 13:53 - - 10:10 13:01 14:01 13:43 10:55 13:36 12:44 14:01
Maximum _ 26,3 C 77 % 1019,5 hPa 0,0 l/m 21,0 km/h
O-SO
- - 2 min 0,559 mm 4,1 UV-I 805 W/m 8,8 C 25,9 C 36,4 km/h
O-SO
100,00 %
Durchschnitt _ 18,7 C 44 % 1014,2 hPa #0,0 l/m 3,3 km/h N - #5:18 h #1,880 mm 2,5 UV-I 453 W/m 4,9 C 18,5 C 6,0 km/h 98,65 %